<?xml version='1.0' encoding='UTF-8'?>
<gpx version="1.1" creator="https://www.komoot.de" xmlns="http://www.topografix.com/GPX/1/1" xmlns:xsi="http://www.w3.org/2001/XMLSchema-instance" xsi:schemaLocation="http://www.topografix.com/GPX/1/1 http://www.topografix.com/GPX/1/1/gpx.xsd">
  <metadata>
    <name>Neuilly-Chartres via #CC</name>
    <author>
      <link href="https://www.komoot.de">
        <text>komoot</text>
        <type>text/html</type>
      </link>
    </author>
  </metadata>
  <trk>
    <name>Neuilly-Chartres via #CC</name>
    <trkseg>
      <trkpt lat="48.884937" lon="2.267577">
        <ele>40.963781</ele>
        <time>2024-09-21T20:37:41.236Z</time>
      </trkpt>
      <trkpt lat="48.884890" lon="2.267524">
        <ele>40.963781</ele>
        <time>2024-09-21T20:37:42.049Z</time>
      </trkpt>
      <trkpt lat="48.884795" lon="2.267467">
        <ele>40.963781</ele>
        <time>2024-09-21T20:37:43.784Z</time>
      </trkpt>
      <trkpt lat="48.884959" lon="2.266741">
        <ele>40.963781</ele>
        <time>2024-09-21T20:37:51.948Z</time>
      </trkpt>
      <trkpt lat="48.884904" lon="2.266710">
        <ele>40.963781</ele>
        <time>2024-09-21T20:37:52.635Z</time>
      </trkpt>
      <trkpt lat="48.884850" lon="2.266678">
        <ele>40.963781</ele>
        <time>2024-09-21T20:37:53.348Z</time>
      </trkpt>
      <trkpt lat="48.883946" lon="2.265544">
        <ele>40.469318</ele>
        <time>2024-09-21T20:38:09.974Z</time>
      </trkpt>
      <trkpt lat="48.883520" lon="2.265191">
        <ele>40.241850</ele>
        <time>2024-09-21T20:38:15.932Z</time>
      </trkpt>
      <trkpt lat="48.883479" lon="2.265336">
        <ele>40.193185</ele>
        <time>2024-09-21T20:38:17.738Z</time>
      </trkpt>
      <trkpt lat="48.883308" lon="2.265212">
        <ele>40.098643</ele>
        <time>2024-09-21T20:38:37.805Z</time>
      </trkpt>
      <trkpt lat="48.883209" lon="2.265139">
        <ele>40.028728</ele>
        <time>2024-09-21T20:38:49.579Z</time>
      </trkpt>
      <trkpt lat="48.883151" lon="2.265098">
        <ele>39.988084</ele>
        <time>2024-09-21T20:38:56.789Z</time>
      </trkpt>
      <trkpt lat="48.883058" lon="2.265031">
        <ele>39.922691</ele>
        <time>2024-09-21T20:39:07.847Z</time>
      </trkpt>
      <trkpt lat="48.883181" lon="2.264643">
        <ele>39.742701</ele>
        <time>2024-09-21T20:39:11.137Z</time>
      </trkpt>
      <trkpt lat="48.882303" lon="2.263382">
        <ele>38.977475</ele>
        <time>2024-09-21T20:39:27.160Z</time>
      </trkpt>
      <trkpt lat="48.881390" lon="2.262035">
        <ele>38.968344</ele>
        <time>2024-09-21T20:39:45.215Z</time>
      </trkpt>
      <trkpt lat="48.881298" lon="2.262114">
        <ele>38.967586</ele>
        <time>2024-09-21T20:39:47.088Z</time>
      </trkpt>
      <trkpt lat="48.880770" lon="2.261893">
        <ele>38.980791</ele>
        <time>2024-09-21T20:39:56.036Z</time>
      </trkpt>
      <trkpt lat="48.880052" lon="2.261591">
        <ele>39.073454</ele>
        <time>2024-09-21T20:40:08.421Z</time>
      </trkpt>
      <trkpt lat="48.880073" lon="2.261424">
        <ele>39.087362</ele>
        <time>2024-09-21T20:40:10.376Z</time>
      </trkpt>
      <trkpt lat="48.880344" lon="2.259126">
        <ele>39.124860</ele>
        <time>2024-09-21T20:40:31.895Z</time>
      </trkpt>
      <trkpt lat="48.880416" lon="2.258734">
        <ele>39.101391</ele>
        <time>2024-09-21T20:40:35.941Z</time>
      </trkpt>
      <trkpt lat="48.880419" lon="2.258555">
        <ele>39.091066</ele>
        <time>2024-09-21T20:40:37.989Z</time>
      </trkpt>
      <trkpt lat="48.880417" lon="2.258356">
        <ele>39.079590</ele>
        <time>2024-09-21T20:40:39.560Z</time>
      </trkpt>
      <trkpt lat="48.880316" lon="2.258298">
        <ele>39.070124</ele>
        <time>2024-09-21T20:40:41.580Z</time>
      </trkpt>
      <trkpt lat="48.880189" lon="2.258231">
        <ele>39.058338</ele>
        <time>2024-09-21T20:40:43.789Z</time>
      </trkpt>
      <trkpt lat="48.879928" lon="2.258141">
        <ele>39.034872</ele>
        <time>2024-09-21T20:40:47.559Z</time>
      </trkpt>
      <trkpt lat="48.877318" lon="2.256790">
        <ele>38.528301</ele>
        <time>2024-09-21T20:41:26.219Z</time>
      </trkpt>
      <trkpt lat="48.876979" lon="2.256619">
        <ele>38.461683</ele>
        <time>2024-09-21T20:41:31.575Z</time>
      </trkpt>
      <trkpt lat="48.876826" lon="2.256493">
        <ele>38.429229</ele>
        <time>2024-09-21T20:41:34.053Z</time>
      </trkpt>
      <trkpt lat="48.876760" lon="2.256469">
        <ele>38.416571</ele>
        <time>2024-09-21T20:41:35.051Z</time>
      </trkpt>
      <trkpt lat="48.876038" lon="2.256146">
        <ele>38.229805</ele>
        <time>2024-09-21T20:41:45.674Z</time>
      </trkpt>
      <trkpt lat="48.875779" lon="2.256018">
        <ele>38.151711</ele>
        <time>2024-09-21T20:41:49.331Z</time>
      </trkpt>
      <trkpt lat="48.875668" lon="2.255964">
        <ele>38.118292</ele>
        <time>2024-09-21T20:41:50.969Z</time>
      </trkpt>
      <trkpt lat="48.875600" lon="2.255929">
        <ele>38.097706</ele>
        <time>2024-09-21T20:41:51.936Z</time>
      </trkpt>
      <trkpt lat="48.874449" lon="2.255328">
        <ele>37.677496</ele>
        <time>2024-09-21T20:42:08.708Z</time>
      </trkpt>
      <trkpt lat="48.874340" lon="2.255216">
        <ele>37.612357</ele>
        <time>2024-09-21T20:42:10.426Z</time>
      </trkpt>
      <trkpt lat="48.874251" lon="2.255124">
        <ele>37.559070</ele>
        <time>2024-09-21T20:42:11.815Z</time>
      </trkpt>
      <trkpt lat="48.874214" lon="2.255027">
        <ele>37.522553</ele>
        <time>2024-09-21T20:42:12.811Z</time>
      </trkpt>
      <trkpt lat="48.874213" lon="2.254883">
        <ele>37.475656</ele>
        <time>2024-09-21T20:42:14.053Z</time>
      </trkpt>
      <trkpt lat="48.874212" lon="2.254666">
        <ele>37.404986</ele>
        <time>2024-09-21T20:42:15.935Z</time>
      </trkpt>
      <trkpt lat="48.874809" lon="2.252280">
        <ele>36.045814</ele>
        <time>2024-09-21T20:42:37.990Z</time>
      </trkpt>
      <trkpt lat="48.874925" lon="2.251799">
        <ele>35.648773</ele>
        <time>2024-09-21T20:42:41.866Z</time>
      </trkpt>
      <trkpt lat="48.875038" lon="2.251347">
        <ele>35.274025</ele>
        <time>2024-09-21T20:42:45.441Z</time>
      </trkpt>
      <trkpt lat="48.875089" lon="2.251138">
        <ele>35.101263</ele>
        <time>2024-09-21T20:42:47.146Z</time>
      </trkpt>
      <trkpt lat="48.875409" lon="2.249847">
        <ele>33.628387</ele>
        <time>2024-09-21T20:42:57.292Z</time>
      </trkpt>
      <trkpt lat="48.875418" lon="2.249804">
        <ele>33.575873</ele>
        <time>2024-09-21T20:42:57.624Z</time>
      </trkpt>
      <trkpt lat="48.875455" lon="2.249641">
        <ele>33.375204</ele>
        <time>2024-09-21T20:42:58.923Z</time>
      </trkpt>
      <trkpt lat="48.875486" lon="2.249507">
        <ele>33.209898</ele>
        <time>2024-09-21T20:42:59.952Z</time>
      </trkpt>
      <trkpt lat="48.875539" lon="2.249250">
        <ele>32.896460</ele>
        <time>2024-09-21T20:43:01.865Z</time>
      </trkpt>
      <trkpt lat="48.875846" lon="2.248018">
        <ele>31.596781</ele>
        <time>2024-09-21T20:43:11.439Z</time>
      </trkpt>
      <trkpt lat="48.875882" lon="2.247867">
        <ele>31.559858</ele>
        <time>2024-09-21T20:43:12.663Z</time>
      </trkpt>
      <trkpt lat="48.876067" lon="2.247012">
        <ele>31.352946</ele>
        <time>2024-09-21T20:43:20.577Z</time>
      </trkpt>
      <trkpt lat="48.876127" lon="2.246887">
        <ele>31.317372</ele>
        <time>2024-09-21T20:43:22.123Z</time>
      </trkpt>
      <trkpt lat="48.876167" lon="2.246660">
        <ele>31.263348</ele>
        <time>2024-09-21T20:43:24.621Z</time>
      </trkpt>
      <trkpt lat="48.876186" lon="2.246567">
        <ele>31.240962</ele>
        <time>2024-09-21T20:43:25.671Z</time>
      </trkpt>
      <trkpt lat="48.876230" lon="2.246423">
        <ele>31.204461</ele>
        <time>2024-09-21T20:43:27.391Z</time>
      </trkpt>
      <trkpt lat="48.876303" lon="2.246249">
        <ele>31.157017</ele>
        <time>2024-09-21T20:43:29.737Z</time>
      </trkpt>
      <trkpt lat="48.876309" lon="2.246233">
        <ele>31.152783</ele>
        <time>2024-09-21T20:43:29.956Z</time>
      </trkpt>
      <trkpt lat="48.876333" lon="2.246184">
        <ele>31.138738</ele>
        <time>2024-09-21T20:43:30.685Z</time>
      </trkpt>
      <trkpt lat="48.876339" lon="2.246168">
        <ele>31.134504</ele>
        <time>2024-09-21T20:43:30.881Z</time>
      </trkpt>
      <trkpt lat="48.876935" lon="2.244759">
        <ele>31.000057</ele>
        <time>2024-09-21T20:43:48.023Z</time>
      </trkpt>
      <trkpt lat="48.877342" lon="2.244067">
        <ele>30.980334</ele>
        <time>2024-09-21T20:43:55.595Z</time>
      </trkpt>
      <trkpt lat="48.877432" lon="2.243933">
        <ele>30.976265</ele>
        <time>2024-09-21T20:43:57.339Z</time>
      </trkpt>
      <trkpt lat="48.877831" lon="2.243386">
        <ele>31.075972</ele>
        <time>2024-09-21T20:44:09.964Z</time>
      </trkpt>
      <trkpt lat="48.877972" lon="2.243192">
        <ele>31.153743</ele>
        <time>2024-09-21T20:44:14.020Z</time>
      </trkpt>
      <trkpt lat="48.878259" lon="2.242803">
        <ele>31.310986</ele>
        <time>2024-09-21T20:44:20.312Z</time>
      </trkpt>
      <trkpt lat="48.878293" lon="2.242767">
        <ele>31.327931</ele>
        <time>2024-09-21T20:44:21.106Z</time>
      </trkpt>
      <trkpt lat="48.878445" lon="2.242564">
        <ele>31.410671</ele>
        <time>2024-09-21T20:44:23.801Z</time>
      </trkpt>
      <trkpt lat="48.878485" lon="2.242511">
        <ele>31.432371</ele>
        <time>2024-09-21T20:44:24.459Z</time>
      </trkpt>
      <trkpt lat="48.878554" lon="2.242426">
        <ele>31.468690</ele>
        <time>2024-09-21T20:44:26.041Z</time>
      </trkpt>
      <trkpt lat="48.878859" lon="2.241921">
        <ele>31.653108</ele>
        <time>2024-09-21T20:44:32.904Z</time>
      </trkpt>
      <trkpt lat="48.878891" lon="2.241864">
        <ele>31.673266</ele>
        <time>2024-09-21T20:44:33.674Z</time>
      </trkpt>
      <trkpt lat="48.878917" lon="2.241820">
        <ele>31.689176</ele>
        <time>2024-09-21T20:44:34.136Z</time>
      </trkpt>
      <trkpt lat="48.879147" lon="2.241344">
        <ele>32.260646</ele>
        <time>2024-09-21T20:44:41.999Z</time>
      </trkpt>
      <trkpt lat="48.879499" lon="2.240613">
        <ele>33.197994</ele>
        <time>2024-09-21T20:44:57.633Z</time>
      </trkpt>
      <trkpt lat="48.879533" lon="2.240544">
        <ele>33.287197</ele>
        <time>2024-09-21T20:44:59.028Z</time>
      </trkpt>
      <trkpt lat="48.879564" lon="2.240479">
        <ele>33.370267</ele>
        <time>2024-09-21T20:45:00.001Z</time>
      </trkpt>
      <trkpt lat="48.879511" lon="2.240411">
        <ele>33.479361</ele>
        <time>2024-09-21T20:45:01.552Z</time>
      </trkpt>
      <trkpt lat="48.879501" lon="2.240398">
        <ele>33.500058</ele>
        <time>2024-09-21T20:45:01.841Z</time>
      </trkpt>
      <trkpt lat="48.879380" lon="2.240243">
        <ele>33.748957</ele>
        <time>2024-09-21T20:45:09.075Z</time>
      </trkpt>
      <trkpt lat="48.879345" lon="2.240202">
        <ele>33.818463</ele>
        <time>2024-09-21T20:45:11.042Z</time>
      </trkpt>
      <trkpt lat="48.879350" lon="2.240170">
        <ele>33.852491</ele>
        <time>2024-09-21T20:45:11.893Z</time>
      </trkpt>
      <trkpt lat="48.879400" lon="2.239145">
        <ele>34.771553</ele>
        <time>2024-09-21T20:45:24.003Z</time>
      </trkpt>
      <trkpt lat="48.879431" lon="2.238625">
        <ele>35.108303</ele>
        <time>2024-09-21T20:45:30.394Z</time>
      </trkpt>
      <trkpt lat="48.879559" lon="2.236881">
        <ele>36.240082</ele>
        <time>2024-09-21T20:45:52.036Z</time>
      </trkpt>
      <trkpt lat="48.879572" lon="2.236640">
        <ele>36.472301</ele>
        <time>2024-09-21T20:45:54.720Z</time>
      </trkpt>
      <trkpt lat="48.879595" lon="2.236507">
        <ele>36.629027</ele>
        <time>2024-09-21T20:45:56.377Z</time>
      </trkpt>
      <trkpt lat="48.879614" lon="2.236372">
        <ele>36.786364</ele>
        <time>2024-09-21T20:45:58.076Z</time>
      </trkpt>
      <trkpt lat="48.879717" lon="2.235463">
        <ele>37.837571</ele>
        <time>2024-09-21T20:46:10.770Z</time>
      </trkpt>
      <trkpt lat="48.879758" lon="2.234586">
        <ele>38.839566</ele>
        <time>2024-09-21T20:46:23.943Z</time>
      </trkpt>
      <trkpt lat="48.879759" lon="2.234544">
        <ele>38.887462</ele>
        <time>2024-09-21T20:46:24.599Z</time>
      </trkpt>
      <trkpt lat="48.879761" lon="2.234503">
        <ele>38.934316</ele>
        <time>2024-09-21T20:46:25.261Z</time>
      </trkpt>
      <trkpt lat="48.879766" lon="2.234387">
        <ele>39.066799</ele>
        <time>2024-09-21T20:46:27.082Z</time>
      </trkpt>
      <trkpt lat="48.879787" lon="2.233838">
        <ele>40.067278</ele>
        <time>2024-09-21T20:46:35.796Z</time>
      </trkpt>
      <trkpt lat="48.879813" lon="2.233350">
        <ele>41.370086</ele>
        <time>2024-09-21T20:46:43.555Z</time>
      </trkpt>
      <trkpt lat="48.879846" lon="2.232524">
        <ele>43.572099</ele>
        <time>2024-09-21T20:47:00.678Z</time>
      </trkpt>
      <trkpt lat="48.879883" lon="2.231612">
        <ele>46.003516</ele>
        <time>2024-09-21T20:47:22.486Z</time>
      </trkpt>
      <trkpt lat="48.879906" lon="2.231610">
        <ele>46.096731</ele>
        <time>2024-09-21T20:47:23.318Z</time>
      </trkpt>
      <trkpt lat="48.879948" lon="2.231580">
        <ele>46.284489</ele>
        <time>2024-09-21T20:47:24.995Z</time>
      </trkpt>
      <trkpt lat="48.879979" lon="2.231481">
        <ele>46.576262</ele>
        <time>2024-09-21T20:47:27.610Z</time>
      </trkpt>
      <trkpt lat="48.879966" lon="2.231409">
        <ele>46.795700</ele>
        <time>2024-09-21T20:47:29.412Z</time>
      </trkpt>
      <trkpt lat="48.879958" lon="2.231254">
        <ele>47.312070</ele>
        <time>2024-09-21T20:47:32.699Z</time>
      </trkpt>
      <trkpt lat="48.879947" lon="2.230946">
        <ele>48.336508</ele>
        <time>2024-09-21T20:47:39.846Z</time>
      </trkpt>
      <trkpt lat="48.879936" lon="2.230656">
        <ele>49.301258</ele>
        <time>2024-09-21T20:47:46.043Z</time>
      </trkpt>
      <trkpt lat="48.879965" lon="2.230484">
        <ele>49.890981</ele>
        <time>2024-09-21T20:47:50.129Z</time>
      </trkpt>
      <trkpt lat="48.880231" lon="2.229884">
        <ele>52.294211</ele>
        <time>2024-09-21T20:48:06.210Z</time>
      </trkpt>
      <trkpt lat="48.879810" lon="2.229176">
        <ele>55.464315</ele>
        <time>2024-09-21T20:48:28.999Z</time>
      </trkpt>
      <trkpt lat="48.879711" lon="2.229017">
        <ele>56.213423</ele>
        <time>2024-09-21T20:48:34.253Z</time>
      </trkpt>
      <trkpt lat="48.879697" lon="2.228994">
        <ele>56.322979</ele>
        <time>2024-09-21T20:48:35.053Z</time>
      </trkpt>
      <trkpt lat="48.879565" lon="2.228781">
        <ele>57.346084</ele>
        <time>2024-09-21T20:48:42.167Z</time>
      </trkpt>
      <trkpt lat="48.879495" lon="2.228632">
        <ele>57.986206</ele>
        <time>2024-09-21T20:48:46.118Z</time>
      </trkpt>
      <trkpt lat="48.879223" lon="2.227834">
        <ele>61.128253</ele>
        <time>2024-09-21T20:49:06.761Z</time>
      </trkpt>
      <trkpt lat="48.878998" lon="2.226635">
        <ele>65.498348</ele>
        <time>2024-09-21T20:49:36.581Z</time>
      </trkpt>
      <trkpt lat="48.878932" lon="2.226266">
        <ele>66.935326</ele>
        <time>2024-09-21T20:49:46.674Z</time>
      </trkpt>
      <trkpt lat="48.878223" lon="2.223852">
        <ele>76.564991</ele>
        <time>2024-09-21T20:50:53.087Z</time>
      </trkpt>
      <trkpt lat="48.878126" lon="2.223566">
        <ele>77.480759</ele>
        <time>2024-09-21T20:51:00.394Z</time>
      </trkpt>
      <trkpt lat="48.877023" lon="2.221883">
        <ele>84.224958</ele>
        <time>2024-09-21T20:51:47.965Z</time>
      </trkpt>
      <trkpt lat="48.876968" lon="2.221805">
        <ele>84.543668</ele>
        <time>2024-09-21T20:51:50.145Z</time>
      </trkpt>
      <trkpt lat="48.877037" lon="2.221694">
        <ele>84.969337</ele>
        <time>2024-09-21T20:51:52.958Z</time>
      </trkpt>
      <trkpt lat="48.877422" lon="2.221128">
        <ele>87.238685</ele>
        <time>2024-09-21T20:52:08.694Z</time>
      </trkpt>
      <trkpt lat="48.877642" lon="2.220802">
        <ele>88.540443</ele>
        <time>2024-09-21T20:52:18.338Z</time>
      </trkpt>
      <trkpt lat="48.877070" lon="2.220101">
        <ele>91.694465</ele>
        <time>2024-09-21T20:52:44.049Z</time>
      </trkpt>
      <trkpt lat="48.876964" lon="2.219998">
        <ele>92.261764</ele>
        <time>2024-09-21T20:52:48.428Z</time>
      </trkpt>
      <trkpt lat="48.876791" lon="2.219701">
        <ele>93.438453</ele>
        <time>2024-09-21T20:52:57.599Z</time>
      </trkpt>
      <trkpt lat="48.876502" lon="2.218900">
        <ele>96.148154</ele>
        <time>2024-09-21T20:53:16.471Z</time>
      </trkpt>
      <trkpt lat="48.876390" lon="2.218572">
        <ele>97.244279</ele>
        <time>2024-09-21T20:53:24.235Z</time>
      </trkpt>
      <trkpt lat="48.876318" lon="2.218496">
        <ele>97.639547</ele>
        <time>2024-09-21T20:53:27.163Z</time>
      </trkpt>
      <trkpt lat="48.876199" lon="2.218507">
        <ele>98.177185</ele>
        <time>2024-09-21T20:53:30.837Z</time>
      </trkpt>
      <trkpt lat="48.875966" lon="2.218859">
        <ele>99.517887</ele>
        <time>2024-09-21T20:53:41.870Z</time>
      </trkpt>
      <trkpt lat="48.875658" lon="2.219218">
        <ele>100.803388</ele>
        <time>2024-09-21T20:53:54.585Z</time>
      </trkpt>
      <trkpt lat="48.875544" lon="2.219305">
        <ele>101.225897</ele>
        <time>2024-09-21T20:53:58.922Z</time>
      </trkpt>
      <trkpt lat="48.875458" lon="2.219332">
        <ele>101.516772</ele>
        <time>2024-09-21T20:54:01.717Z</time>
      </trkpt>
      <trkpt lat="48.875307" lon="2.219327">
        <ele>102.017062</ele>
        <time>2024-09-21T20:54:05.863Z</time>
      </trkpt>
      <trkpt lat="48.875362" lon="2.219079">
        <ele>102.587233</ele>
        <time>2024-09-21T20:54:11.272Z</time>
      </trkpt>
      <trkpt lat="48.875389" lon="2.218931">
        <ele>102.921833</ele>
        <time>2024-09-21T20:54:13.997Z</time>
      </trkpt>
      <trkpt lat="48.875517" lon="2.218260">
        <ele>104.443887</ele>
        <time>2024-09-21T20:54:23.900Z</time>
      </trkpt>
      <trkpt lat="48.875600" lon="2.218035">
        <ele>105.005897</ele>
        <time>2024-09-21T20:54:27.853Z</time>
      </trkpt>
      <trkpt lat="48.875566" lon="2.218006">
        <ele>105.095734</ele>
        <time>2024-09-21T20:54:28.731Z</time>
      </trkpt>
      <trkpt lat="48.875544" lon="2.218007">
        <ele>105.109100</ele>
        <time>2024-09-21T20:54:29.269Z</time>
      </trkpt>
      <trkpt lat="48.875519" lon="2.218010">
        <ele>105.124329</ele>
        <time>2024-09-21T20:54:29.840Z</time>
      </trkpt>
      <trkpt lat="48.875453" lon="2.218028">
        <ele>105.165048</ele>
        <time>2024-09-21T20:54:31.029Z</time>
      </trkpt>
      <trkpt lat="48.875410" lon="2.217920">
        <ele>105.215472</ele>
        <time>2024-09-21T20:54:33.056Z</time>
      </trkpt>
      <trkpt lat="48.874896" lon="2.217808">
        <ele>105.530798</ele>
        <time>2024-09-21T20:54:45.604Z</time>
      </trkpt>
      <trkpt lat="48.874916" lon="2.217755">
        <ele>105.555204</ele>
        <time>2024-09-21T20:54:46.649Z</time>
      </trkpt>
      <trkpt lat="48.874600" lon="2.217678">
        <ele>105.749550</ele>
        <time>2024-09-21T20:54:53.094Z</time>
      </trkpt>
      <trkpt lat="48.874086" lon="2.217603">
        <ele>106.063122</ele>
        <time>2024-09-21T20:55:00.504Z</time>
      </trkpt>
      <trkpt lat="48.874001" lon="2.217591">
        <ele>106.114962</ele>
        <time>2024-09-21T20:55:01.491Z</time>
      </trkpt>
      <trkpt lat="48.873276" lon="2.217557">
        <ele>104.122137</ele>
        <time>2024-09-21T20:55:08.938Z</time>
      </trkpt>
      <trkpt lat="48.873178" lon="2.217569">
        <ele>103.795730</ele>
        <time>2024-09-21T20:55:09.900Z</time>
      </trkpt>
      <trkpt lat="48.873017" lon="2.217649">
        <ele>103.233397</ele>
        <time>2024-09-21T20:55:11.531Z</time>
      </trkpt>
      <trkpt lat="48.872823" lon="2.217858">
        <ele>102.444027</ele>
        <time>2024-09-21T20:55:13.872Z</time>
      </trkpt>
      <trkpt lat="48.872270" lon="2.218692">
        <ele>99.875912</ele>
        <time>2024-09-21T20:55:21.531Z</time>
      </trkpt>
      <trkpt lat="48.872119" lon="2.218911">
        <ele>99.218462</ele>
        <time>2024-09-21T20:55:23.605Z</time>
      </trkpt>
      <trkpt lat="48.871990" lon="2.218977">
        <ele>98.789664</ele>
        <time>2024-09-21T20:55:24.917Z</time>
      </trkpt>
      <trkpt lat="48.871864" lon="2.218971">
        <ele>98.392516</ele>
        <time>2024-09-21T20:55:26.149Z</time>
      </trkpt>
      <trkpt lat="48.871709" lon="2.218889">
        <ele>97.875482</ele>
        <time>2024-09-21T20:55:27.762Z</time>
      </trkpt>
      <trkpt lat="48.870578" lon="2.218219">
        <ele>94.426230</ele>
        <time>2024-09-21T20:55:40.281Z</time>
      </trkpt>
      <trkpt lat="48.870556" lon="2.218209">
        <ele>94.409236</ele>
        <time>2024-09-21T20:55:40.528Z</time>
      </trkpt>
      <trkpt lat="48.870470" lon="2.218144">
        <ele>94.338161</ele>
        <time>2024-09-21T20:55:41.720Z</time>
      </trkpt>
      <trkpt lat="48.870022" lon="2.217597">
        <ele>93.912930</ele>
        <time>2024-09-21T20:55:48.750Z</time>
      </trkpt>
      <trkpt lat="48.869905" lon="2.217518">
        <ele>93.818188</ele>
        <time>2024-09-21T20:55:50.435Z</time>
      </trkpt>
      <trkpt lat="48.869791" lon="2.217472">
        <ele>93.730901</ele>
        <time>2024-09-21T20:55:52.156Z</time>
      </trkpt>
      <trkpt lat="48.869710" lon="2.217458">
        <ele>93.670571</ele>
        <time>2024-09-21T20:55:53.262Z</time>
      </trkpt>
      <trkpt lat="48.869598" lon="2.217442">
        <ele>93.587320</ele>
        <time>2024-09-21T20:55:54.738Z</time>
      </trkpt>
      <trkpt lat="48.869565" lon="2.217442">
        <ele>93.562898</ele>
        <time>2024-09-21T20:55:55.264Z</time>
      </trkpt>
      <trkpt lat="48.869444" lon="2.217445">
        <ele>93.473340</ele>
        <time>2024-09-21T20:55:57.887Z</time>
      </trkpt>
      <trkpt lat="48.869379" lon="2.217442">
        <ele>93.425214</ele>
        <time>2024-09-21T20:55:58.924Z</time>
      </trkpt>
      <trkpt lat="48.869299" lon="2.217497">
        <ele>93.360238</ele>
        <time>2024-09-21T20:56:00.084Z</time>
      </trkpt>
      <trkpt lat="48.869087" lon="2.217499">
        <ele>93.215451</ele>
        <time>2024-09-21T20:56:03.729Z</time>
      </trkpt>
      <trkpt lat="48.868765" lon="2.217491">
        <ele>93.397004</ele>
        <time>2024-09-21T20:56:09.234Z</time>
      </trkpt>
      <trkpt lat="48.868652" lon="2.217480">
        <ele>93.460838</ele>
        <time>2024-09-21T20:56:11.364Z</time>
      </trkpt>
      <trkpt lat="48.868511" lon="2.217485">
        <ele>93.540349</ele>
        <time>2024-09-21T20:56:13.816Z</time>
      </trkpt>
      <trkpt lat="48.868364" lon="2.217488">
        <ele>93.623228</ele>
        <time>2024-09-21T20:56:16.698Z</time>
      </trkpt>
      <trkpt lat="48.868198" lon="2.217472">
        <ele>93.716999</ele>
        <time>2024-09-21T20:56:19.262Z</time>
      </trkpt>
      <trkpt lat="48.867640" lon="2.217086">
        <ele>94.062609</ele>
        <time>2024-09-21T20:56:30.412Z</time>
      </trkpt>
      <trkpt lat="48.867164" lon="2.216763">
        <ele>94.038671</ele>
        <time>2024-09-21T20:56:39.302Z</time>
      </trkpt>
      <trkpt lat="48.867121" lon="2.216733">
        <ele>94.001258</ele>
        <time>2024-09-21T20:56:40.036Z</time>
      </trkpt>
      <trkpt lat="48.867066" lon="2.216692">
        <ele>93.952817</ele>
        <time>2024-09-21T20:56:40.942Z</time>
      </trkpt>
      <trkpt lat="48.866731" lon="2.216338">
        <ele>93.630192</ele>
        <time>2024-09-21T20:56:46.340Z</time>
      </trkpt>
      <trkpt lat="48.866567" lon="2.216144">
        <ele>93.465866</ele>
        <time>2024-09-21T20:56:48.902Z</time>
      </trkpt>
      <trkpt lat="48.866102" lon="2.215576">
        <ele>92.994154</ele>
        <time>2024-09-21T20:56:55.884Z</time>
      </trkpt>
      <trkpt lat="48.866022" lon="2.215478">
        <ele>92.912907</ele>
        <time>2024-09-21T20:56:57.025Z</time>
      </trkpt>
      <trkpt lat="48.865916" lon="2.215346">
        <ele>92.804551</ele>
        <time>2024-09-21T20:56:58.570Z</time>
      </trkpt>
      <trkpt lat="48.865817" lon="2.215229">
        <ele>92.668019</ele>
        <time>2024-09-21T20:56:59.945Z</time>
      </trkpt>
      <trkpt lat="48.865719" lon="2.215113">
        <ele>92.531761</ele>
        <time>2024-09-21T20:57:01.280Z</time>
      </trkpt>
      <trkpt lat="48.865288" lon="2.214584">
        <ele>91.924057</ele>
        <time>2024-09-21T20:57:07.675Z</time>
      </trkpt>
      <trkpt lat="48.864627" lon="2.213782">
        <ele>90.996253</ele>
        <time>2024-09-21T20:57:18.285Z</time>
      </trkpt>
      <trkpt lat="48.864517" lon="2.213642">
        <ele>90.838867</ele>
        <time>2024-09-21T20:57:20.129Z</time>
      </trkpt>
      <trkpt lat="48.864414" lon="2.213520">
        <ele>90.776134</ele>
        <time>2024-09-21T20:57:22.077Z</time>
      </trkpt>
      <trkpt lat="48.863829" lon="2.212817">
        <ele>90.453024</ele>
        <time>2024-09-21T20:57:32.345Z</time>
      </trkpt>
      <trkpt lat="48.863783" lon="2.212755">
        <ele>90.426386</ele>
        <time>2024-09-21T20:57:33.245Z</time>
      </trkpt>
      <trkpt lat="48.863703" lon="2.212645">
        <ele>90.379646</ele>
        <time>2024-09-21T20:57:34.593Z</time>
      </trkpt>
      <trkpt lat="48.863464" lon="2.212361">
        <ele>90.248205</ele>
        <time>2024-09-21T20:57:38.790Z</time>
      </trkpt>
      <trkpt lat="48.863430" lon="2.212321">
        <ele>90.229577</ele>
        <time>2024-09-21T20:57:39.309Z</time>
      </trkpt>
      <trkpt lat="48.863326" lon="2.212201">
        <ele>90.173003</ele>
        <time>2024-09-21T20:57:41.128Z</time>
      </trkpt>
      <trkpt lat="48.863176" lon="2.212337">
        <ele>90.097327</ele>
        <time>2024-09-21T20:57:43.660Z</time>
      </trkpt>
      <trkpt lat="48.863074" lon="2.212344">
        <ele>90.053087</ele>
        <time>2024-09-21T20:57:45.028Z</time>
      </trkpt>
      <trkpt lat="48.863015" lon="2.212349">
        <ele>89.982850</ele>
        <time>2024-09-21T20:57:45.861Z</time>
      </trkpt>
      <trkpt lat="48.862024" lon="2.212430">
        <ele>88.675751</ele>
        <time>2024-09-21T20:57:58.098Z</time>
      </trkpt>
      <trkpt lat="48.861809" lon="2.212390">
        <ele>88.390469</ele>
        <time>2024-09-21T20:58:00.567Z</time>
      </trkpt>
      <trkpt lat="48.861663" lon="2.212359">
        <ele>88.196310</ele>
        <time>2024-09-21T20:58:02.181Z</time>
      </trkpt>
      <trkpt lat="48.861624" lon="2.212417">
        <ele>88.124449</ele>
        <time>2024-09-21T20:58:02.768Z</time>
      </trkpt>
      <trkpt lat="48.861587" lon="2.212470">
        <ele>88.057489</ele>
        <time>2024-09-21T20:58:03.317Z</time>
      </trkpt>
      <trkpt lat="48.861512" lon="2.212578">
        <ele>87.921421</ele>
        <time>2024-09-21T20:58:04.444Z</time>
      </trkpt>
      <trkpt lat="48.861331" lon="2.212795">
        <ele>87.647144</ele>
        <time>2024-09-21T20:58:06.847Z</time>
      </trkpt>
      <trkpt lat="48.860970" lon="2.212975">
        <ele>87.381172</ele>
        <time>2024-09-21T20:58:10.881Z</time>
      </trkpt>
      <trkpt lat="48.860862" lon="2.213023">
        <ele>87.302399</ele>
        <time>2024-09-21T20:58:12.178Z</time>
      </trkpt>
      <trkpt lat="48.860077" lon="2.213405">
        <ele>86.725374</ele>
        <time>2024-09-21T20:58:23.277Z</time>
      </trkpt>
      <trkpt lat="48.859860" lon="2.213492">
        <ele>86.568265</ele>
        <time>2024-09-21T20:58:26.354Z</time>
      </trkpt>
      <trkpt lat="48.859668" lon="2.213484">
        <ele>86.433802</ele>
        <time>2024-09-21T20:58:29.897Z</time>
      </trkpt>
      <trkpt lat="48.859539" lon="2.213538">
        <ele>86.658612</ele>
        <time>2024-09-21T20:58:31.853Z</time>
      </trkpt>
      <trkpt lat="48.859501" lon="2.213401">
        <ele>86.858920</ele>
        <time>2024-09-21T20:58:34.161Z</time>
      </trkpt>
      <trkpt lat="48.859397" lon="2.213061">
        <ele>87.364076</ele>
        <time>2024-09-21T20:58:38.543Z</time>
      </trkpt>
      <trkpt lat="48.859349" lon="2.212904">
        <ele>87.597320</ele>
        <time>2024-09-21T20:58:41.440Z</time>
      </trkpt>
      <trkpt lat="48.859268" lon="2.212627">
        <ele>88.005714</ele>
        <time>2024-09-21T20:58:45.657Z</time>
      </trkpt>
      <trkpt lat="48.859225" lon="2.212494">
        <ele>88.205367</ele>
        <time>2024-09-21T20:58:47.806Z</time>
      </trkpt>
      <trkpt lat="48.859170" lon="2.212354">
        <ele>88.425053</ele>
        <time>2024-09-21T20:58:50.908Z</time>
      </trkpt>
      <trkpt lat="48.859042" lon="2.211893">
        <ele>89.099190</ele>
        <time>2024-09-21T20:58:59.348Z</time>
      </trkpt>
      <trkpt lat="48.859006" lon="2.211732">
        <ele>89.328286</ele>
        <time>2024-09-21T20:59:02.453Z</time>
      </trkpt>
      <trkpt lat="48.858978" lon="2.211612">
        <ele>89.499825</ele>
        <time>2024-09-21T20:59:04.843Z</time>
      </trkpt>
      <trkpt lat="48.858943" lon="2.211562">
        <ele>89.598186</ele>
        <time>2024-09-21T20:59:06.154Z</time>
      </trkpt>
      <trkpt lat="48.858897" lon="2.211496">
        <ele>89.727724</ele>
        <time>2024-09-21T20:59:08.284Z</time>
      </trkpt>
      <trkpt lat="48.858814" lon="2.211381">
        <ele>89.957712</ele>
        <time>2024-09-21T20:59:11.514Z</time>
      </trkpt>
      <trkpt lat="48.858589" lon="2.211198">
        <ele>90.511441</ele>
        <time>2024-09-21T20:59:18.540Z</time>
      </trkpt>
      <trkpt lat="48.858098" lon="2.210915">
        <ele>91.675937</ele>
        <time>2024-09-21T20:59:30.439Z</time>
      </trkpt>
      <trkpt lat="48.858062" lon="2.210714">
        <ele>91.979870</ele>
        <time>2024-09-21T20:59:33.647Z</time>
      </trkpt>
      <trkpt lat="48.857949" lon="2.210519">
        <ele>92.358999</ele>
        <time>2024-09-21T20:59:37.211Z</time>
      </trkpt>
      <trkpt lat="48.857747" lon="2.210338">
        <ele>92.879000</ele>
        <time>2024-09-21T20:59:42.692Z</time>
      </trkpt>
      <trkpt lat="48.856958" lon="2.209773">
        <ele>94.805456</ele>
        <time>2024-09-21T21:00:02.446Z</time>
      </trkpt>
      <trkpt lat="48.856851" lon="2.209678">
        <ele>95.077321</ele>
        <time>2024-09-21T21:00:05.489Z</time>
      </trkpt>
      <trkpt lat="48.855519" lon="2.208007">
        <ele>99.193015</ele>
        <time>2024-09-21T21:00:46.471Z</time>
      </trkpt>
      <trkpt lat="48.854475" lon="2.206703">
        <ele>103.327942</ele>
        <time>2024-09-21T21:01:22.952Z</time>
      </trkpt>
      <trkpt lat="48.854298" lon="2.206574">
        <ele>104.143393</ele>
        <time>2024-09-21T21:01:28.655Z</time>
      </trkpt>
      <trkpt lat="48.852899" lon="2.205842">
        <ele>111.191974</ele>
        <time>2024-09-21T21:02:19.019Z</time>
      </trkpt>
      <trkpt lat="48.852830" lon="2.205820">
        <ele>111.527838</ele>
        <time>2024-09-21T21:02:21.745Z</time>
      </trkpt>
      <trkpt lat="48.852160" lon="2.205630">
        <ele>115.431175</ele>
        <time>2024-09-21T21:02:48.197Z</time>
      </trkpt>
      <trkpt lat="48.852083" lon="2.205602">
        <ele>115.901312</ele>
        <time>2024-09-21T21:02:51.311Z</time>
      </trkpt>
      <trkpt lat="48.851961" lon="2.205509">
        <ele>116.711782</ele>
        <time>2024-09-21T21:02:56.644Z</time>
      </trkpt>
      <trkpt lat="48.851830" lon="2.205478">
        <ele>117.499042</ele>
        <time>2024-09-21T21:03:01.852Z</time>
      </trkpt>
      <trkpt lat="48.851717" lon="2.205346">
        <ele>118.345360</ele>
        <time>2024-09-21T21:03:07.570Z</time>
      </trkpt>
      <trkpt lat="48.851256" lon="2.205101">
        <ele>121.245364</ele>
        <time>2024-09-21T21:03:27.169Z</time>
      </trkpt>
      <trkpt lat="48.851035" lon="2.204928">
        <ele>122.721541</ele>
        <time>2024-09-21T21:03:37.084Z</time>
      </trkpt>
      <trkpt lat="48.850943" lon="2.204811">
        <ele>123.305645</ele>
        <time>2024-09-21T21:03:41.695Z</time>
      </trkpt>
      <trkpt lat="48.850752" lon="2.204383">
        <ele>124.922692</ele>
        <time>2024-09-21T21:03:54.083Z</time>
      </trkpt>
      <trkpt lat="48.850643" lon="2.204245">
        <ele>125.596849</ele>
        <time>2024-09-21T21:03:58.885Z</time>
      </trkpt>
      <trkpt lat="48.850360" lon="2.203743">
        <ele>127.663843</ele>
        <time>2024-09-21T21:04:13.896Z</time>
      </trkpt>
      <trkpt lat="48.850099" lon="2.203088">
        <ele>130.058231</ele>
        <time>2024-09-21T21:04:30.470Z</time>
      </trkpt>
      <trkpt lat="48.850001" lon="2.202875">
        <ele>130.870926</ele>
        <time>2024-09-21T21:04:35.566Z</time>
      </trkpt>
      <trkpt lat="48.849754" lon="2.202300">
        <ele>131.932612</ele>
        <time>2024-09-21T21:04:48.649Z</time>
      </trkpt>
      <trkpt lat="48.849436" lon="2.201621">
        <ele>132.854008</ele>
        <time>2024-09-21T21:05:02.053Z</time>
      </trkpt>
      <trkpt lat="48.849297" lon="2.201406">
        <ele>133.187233</ele>
        <time>2024-09-21T21:05:06.349Z</time>
      </trkpt>
      <trkpt lat="48.849009" lon="2.201078">
        <ele>133.791906</ele>
        <time>2024-09-21T21:05:13.101Z</time>
      </trkpt>
      <trkpt lat="48.848948" lon="2.200985">
        <ele>133.937079</ele>
        <time>2024-09-21T21:05:14.524Z</time>
      </trkpt>
      <trkpt lat="48.848114" lon="2.199449">
        <ele>132.552792</ele>
        <time>2024-09-21T21:05:30.760Z</time>
      </trkpt>
      <trkpt lat="48.847941" lon="2.199019">
        <ele>131.986131</ele>
        <time>2024-09-21T21:05:34.175Z</time>
      </trkpt>
      <trkpt lat="48.847832" lon="2.198742">
        <ele>131.623256</ele>
        <time>2024-09-21T21:05:36.310Z</time>
      </trkpt>
      <trkpt lat="48.847519" lon="2.198093">
        <ele>130.427350</ele>
        <time>2024-09-21T21:05:41.660Z</time>
      </trkpt>
      <trkpt lat="48.847483" lon="2.198021">
        <ele>130.273658</ele>
        <time>2024-09-21T21:05:42.260Z</time>
      </trkpt>
      <trkpt lat="48.847363" lon="2.197853">
        <ele>129.852237</ele>
        <time>2024-09-21T21:05:43.894Z</time>
      </trkpt>
      <trkpt lat="48.847351" lon="2.197679">
        <ele>129.554876</ele>
        <time>2024-09-21T21:05:45.084Z</time>
      </trkpt>
      <trkpt lat="48.847215" lon="2.197234">
        <ele>128.720939</ele>
        <time>2024-09-21T21:05:48.396Z</time>
      </trkpt>
      <trkpt lat="48.847201" lon="2.197183">
        <ele>128.627017</ele>
        <time>2024-09-21T21:05:48.791Z</time>
      </trkpt>
      <trkpt lat="48.847143" lon="2.196943">
        <ele>128.192460</ele>
        <time>2024-09-21T21:05:50.623Z</time>
      </trkpt>
      <trkpt lat="48.847110" lon="2.196815">
        <ele>127.958802</ele>
        <time>2024-09-21T21:05:51.580Z</time>
      </trkpt>
      <trkpt lat="48.847005" lon="2.196397">
        <ele>127.198339</ele>
        <time>2024-09-21T21:05:54.877Z</time>
      </trkpt>
      <trkpt lat="48.846978" lon="2.196254">
        <ele>126.945480</ele>
        <time>2024-09-21T21:05:55.944Z</time>
      </trkpt>
      <trkpt lat="48.846962" lon="2.196179">
        <ele>126.811473</ele>
        <time>2024-09-21T21:05:56.524Z</time>
      </trkpt>
      <trkpt lat="48.846885" lon="2.195418">
        <ele>126.038047</ele>
        <time>2024-09-21T21:06:02.273Z</time>
      </trkpt>
      <trkpt lat="48.846880" lon="2.195218">
        <ele>125.857670</ele>
        <time>2024-09-21T21:06:03.738Z</time>
      </trkpt>
      <trkpt lat="48.846886" lon="2.195093">
        <ele>125.744717</ele>
        <time>2024-09-21T21:06:04.654Z</time>
      </trkpt>
      <trkpt lat="48.846901" lon="2.194899">
        <ele>125.568675</ele>
        <time>2024-09-21T21:06:06.071Z</time>
      </trkpt>
      <trkpt lat="48.846933" lon="2.194678">
        <ele>125.364739</ele>
        <time>2024-09-21T21:06:07.744Z</time>
      </trkpt>
      <trkpt lat="48.846966" lon="2.194450">
        <ele>125.154347</ele>
        <time>2024-09-21T21:06:09.477Z</time>
      </trkpt>
      <trkpt lat="48.846967" lon="2.194226">
        <ele>124.952466</ele>
        <time>2024-09-21T21:06:11.161Z</time>
      </trkpt>
      <trkpt lat="48.846951" lon="2.193995">
        <ele>124.743132</ele>
        <time>2024-09-21T21:06:13.038Z</time>
      </trkpt>
      <trkpt lat="48.846886" lon="2.193748">
        <ele>124.503389</ele>
        <time>2024-09-21T21:06:15.163Z</time>
      </trkpt>
      <trkpt lat="48.846826" lon="2.193516">
        <ele>124.278736</ele>
        <time>2024-09-21T21:06:17.490Z</time>
      </trkpt>
      <trkpt lat="48.846633" lon="2.192773">
        <ele>124.411545</ele>
        <time>2024-09-21T21:06:24.615Z</time>
      </trkpt>
      <trkpt lat="48.846476" lon="2.192193">
        <ele>124.623572</ele>
        <time>2024-09-21T21:06:30.739Z</time>
      </trkpt>
      <trkpt lat="48.846019" lon="2.190045">
        <ele>126.131430</ele>
        <time>2024-09-21T21:06:59.942Z</time>
      </trkpt>
      <trkpt lat="48.845867" lon="2.189268">
        <ele>127.124511</ele>
        <time>2024-09-21T21:07:14.961Z</time>
      </trkpt>
      <trkpt lat="48.845772" lon="2.188909">
        <ele>127.598554</ele>
        <time>2024-09-21T21:07:21.157Z</time>
      </trkpt>
      <trkpt lat="48.845656" lon="2.188443">
        <ele>128.208937</ele>
        <time>2024-09-21T21:07:28.281Z</time>
      </trkpt>
      <trkpt lat="48.845666" lon="2.188360">
        <ele>128.312312</ele>
        <time>2024-09-21T21:07:29.359Z</time>
      </trkpt>
      <trkpt lat="48.845788" lon="2.188098">
        <ele>128.344154</ele>
        <time>2024-09-21T21:07:33.149Z</time>
      </trkpt>
      <trkpt lat="48.845876" lon="2.187818">
        <ele>128.183776</ele>
        <time>2024-09-21T21:07:36.612Z</time>
      </trkpt>
      <trkpt lat="48.845874" lon="2.187624">
        <ele>128.083493</ele>
        <time>2024-09-21T21:07:38.301Z</time>
      </trkpt>
      <trkpt lat="48.845845" lon="2.187531">
        <ele>128.030302</ele>
        <time>2024-09-21T21:07:39.257Z</time>
      </trkpt>
      <trkpt lat="48.845728" lon="2.187390">
        <ele>127.913020</ele>
        <time>2024-09-21T21:07:41.391Z</time>
      </trkpt>
      <trkpt lat="48.845013" lon="2.186727">
        <ele>127.255161</ele>
        <time>2024-09-21T21:07:51.352Z</time>
      </trkpt>
      <trkpt lat="48.844924" lon="2.186796">
        <ele>127.176689</ele>
        <time>2024-09-21T21:07:52.430Z</time>
      </trkpt>
      <trkpt lat="48.844837" lon="2.186931">
        <ele>127.079027</ele>
        <time>2024-09-21T21:07:53.846Z</time>
      </trkpt>
      <trkpt lat="48.844809" lon="2.186967">
        <ele>127.050220</ele>
        <time>2024-09-21T21:07:54.252Z</time>
      </trkpt>
      <trkpt lat="48.844696" lon="2.186940">
        <ele>126.718682</ele>
        <time>2024-09-21T21:07:55.441Z</time>
      </trkpt>
      <trkpt lat="48.844612" lon="2.186820">
        <ele>126.348783</ele>
        <time>2024-09-21T21:07:56.663Z</time>
      </trkpt>
      <trkpt lat="48.844580" lon="2.186641">
        <ele>125.957145</ele>
        <time>2024-09-21T21:07:57.981Z</time>
      </trkpt>
      <trkpt lat="48.844292" lon="2.185730">
        <ele>123.823223</ele>
        <time>2024-09-21T21:08:04.534Z</time>
      </trkpt>
      <trkpt lat="48.844217" lon="2.185588">
        <ele>123.438784</ele>
        <time>2024-09-21T21:08:05.735Z</time>
      </trkpt>
      <trkpt lat="48.844129" lon="2.185429">
        <ele>123.000130</ele>
        <time>2024-09-21T21:08:07.067Z</time>
      </trkpt>
      <trkpt lat="48.844023" lon="2.185257">
        <ele>122.502590</ele>
        <time>2024-09-21T21:08:08.606Z</time>
      </trkpt>
      <trkpt lat="48.843680" lon="2.184951">
        <ele>121.239631</ele>
        <time>2024-09-21T21:08:12.577Z</time>
      </trkpt>
      <trkpt lat="48.843507" lon="2.185379">
        <ele>120.514140</ele>
        <time>2024-09-21T21:08:15.892Z</time>
      </trkpt>
      <trkpt lat="48.842937" lon="2.186498">
        <ele>118.470270</ele>
        <time>2024-09-21T21:08:25.787Z</time>
      </trkpt>
      <trkpt lat="48.842695" lon="2.186430">
        <ele>117.930137</ele>
        <time>2024-09-21T21:08:28.638Z</time>
      </trkpt>
      <trkpt lat="48.842290" lon="2.186316">
        <ele>117.309782</ele>
        <time>2024-09-21T21:08:33.535Z</time>
      </trkpt>
      <trkpt lat="48.840937" lon="2.185942">
        <ele>117.199469</ele>
        <time>2024-09-21T21:08:56.433Z</time>
      </trkpt>
      <trkpt lat="48.840137" lon="2.185719">
        <ele>116.353799</ele>
        <time>2024-09-21T21:09:07.073Z</time>
      </trkpt>
      <trkpt lat="48.840119" lon="2.185714">
        <ele>116.325081</ele>
        <time>2024-09-21T21:09:07.273Z</time>
      </trkpt>
      <trkpt lat="48.839979" lon="2.185739">
        <ele>116.103849</ele>
        <time>2024-09-21T21:09:08.911Z</time>
      </trkpt>
      <trkpt lat="48.839852" lon="2.185745">
        <ele>115.904436</ele>
        <time>2024-09-21T21:09:10.371Z</time>
      </trkpt>
      <trkpt lat="48.838731" lon="2.186442">
        <ele>114.049317</ele>
        <time>2024-09-21T21:09:23.434Z</time>
      </trkpt>
      <trkpt lat="48.838613" lon="2.186500">
        <ele>113.880162</ele>
        <time>2024-09-21T21:09:24.729Z</time>
      </trkpt>
      <trkpt lat="48.838533" lon="2.186525">
        <ele>113.768765</ele>
        <time>2024-09-21T21:09:25.608Z</time>
      </trkpt>
      <trkpt lat="48.838442" lon="2.186571">
        <ele>113.637959</ele>
        <time>2024-09-21T21:09:26.608Z</time>
      </trkpt>
      <trkpt lat="48.838442" lon="2.186653">
        <ele>113.564347</ele>
        <time>2024-09-21T21:09:27.181Z</time>
      </trkpt>
      <trkpt lat="48.838330" lon="2.186584">
        <ele>113.399508</ele>
        <time>2024-09-21T21:09:28.436Z</time>
      </trkpt>
      <trkpt lat="48.838278" lon="2.186547">
        <ele>113.321192</ele>
        <time>2024-09-21T21:09:29.047Z</time>
      </trkpt>
      <trkpt lat="48.838082" lon="2.186156">
        <ele>112.879978</ele>
        <time>2024-09-21T21:09:32.618Z</time>
      </trkpt>
      <trkpt lat="48.838035" lon="2.186018">
        <ele>112.740491</ele>
        <time>2024-09-21T21:09:33.824Z</time>
      </trkpt>
      <trkpt lat="48.837381" lon="2.184769">
        <ele>112.617662</ele>
        <time>2024-09-21T21:09:49.540Z</time>
      </trkpt>
      <trkpt lat="48.837271" lon="2.184649">
        <ele>112.841299</ele>
        <time>2024-09-21T21:09:52.199Z</time>
      </trkpt>
      <trkpt lat="48.837175" lon="2.184630">
        <ele>113.001176</ele>
        <time>2024-09-21T21:09:53.974Z</time>
      </trkpt>
      <trkpt lat="48.837108" lon="2.184658">
        <ele>113.115932</ele>
        <time>2024-09-21T21:09:55.354Z</time>
      </trkpt>
      <trkpt lat="48.836831" lon="2.184793">
        <ele>113.596339</ele>
        <time>2024-09-21T21:10:01.897Z</time>
      </trkpt>
      <trkpt lat="48.836655" lon="2.184884">
        <ele>113.903363</ele>
        <time>2024-09-21T21:10:06.552Z</time>
      </trkpt>
      <trkpt lat="48.836567" lon="2.184933">
        <ele>114.058142</ele>
        <time>2024-09-21T21:10:08.788Z</time>
      </trkpt>
      <trkpt lat="48.836259" lon="2.185088">
        <ele>114.593962</ele>
        <time>2024-09-21T21:10:17.078Z</time>
      </trkpt>
      <trkpt lat="48.835689" lon="2.185126">
        <ele>116.319948</ele>
        <time>2024-09-21T21:10:32.480Z</time>
      </trkpt>
      <trkpt lat="48.835229" lon="2.185161">
        <ele>117.976183</ele>
        <time>2024-09-21T21:10:46.220Z</time>
      </trkpt>
      <trkpt lat="48.834779" lon="2.185220">
        <ele>119.600400</ele>
        <time>2024-09-21T21:10:59.081Z</time>
      </trkpt>
      <trkpt lat="48.833933" lon="2.185307">
        <ele>123.240379</ele>
        <time>2024-09-21T21:11:25.814Z</time>
      </trkpt>
      <trkpt lat="48.833849" lon="2.184678">
        <ele>125.444169</ele>
        <time>2024-09-21T21:11:42.585Z</time>
      </trkpt>
      <trkpt lat="48.833748" lon="2.184160">
        <ele>127.299212</ele>
        <time>2024-09-21T21:11:57.548Z</time>
      </trkpt>
      <trkpt lat="48.833573" lon="2.183354">
        <ele>130.213445</ele>
        <time>2024-09-21T21:12:22.214Z</time>
      </trkpt>
      <trkpt lat="48.833401" lon="2.182840">
        <ele>132.125763</ele>
        <time>2024-09-21T21:12:38.987Z</time>
      </trkpt>
      <trkpt lat="48.833185" lon="2.182471">
        <ele>133.743511</ele>
        <time>2024-09-21T21:12:53.806Z</time>
      </trkpt>
      <trkpt lat="48.832749" lon="2.181895">
        <ele>136.619233</ele>
        <time>2024-09-21T21:13:18.507Z</time>
      </trkpt>
      <trkpt lat="48.832118" lon="2.181190">
        <ele>139.784057</ele>
        <time>2024-09-21T21:13:46.628Z</time>
      </trkpt>
      <trkpt lat="48.831872" lon="2.180855">
        <ele>140.000505</ele>
        <time>2024-09-21T21:13:55.313Z</time>
      </trkpt>
      <trkpt lat="48.831731" lon="2.180565">
        <ele>140.155992</ele>
        <time>2024-09-21T21:14:00.655Z</time>
      </trkpt>
      <trkpt lat="48.831421" lon="2.179790">
        <ele>140.547101</ele>
        <time>2024-09-21T21:14:12.120Z</time>
      </trkpt>
      <trkpt lat="48.831409" lon="2.179769">
        <ele>140.559094</ele>
        <time>2024-09-21T21:14:14.061Z</time>
      </trkpt>
      <trkpt lat="48.831367" lon="2.179697">
        <ele>140.600584</ele>
        <time>2024-09-21T21:14:20.885Z</time>
      </trkpt>
      <trkpt lat="48.831024" lon="2.178849">
        <ele>140.902466</ele>
        <time>2024-09-21T21:14:29.001Z</time>
      </trkpt>
      <trkpt lat="48.830964" lon="2.178706">
        <ele>140.923438</ele>
        <time>2024-09-21T21:14:30.585Z</time>
      </trkpt>
      <trkpt lat="48.830726" lon="2.178135">
        <ele>141.007020</ele>
        <time>2024-09-21T21:14:36.779Z</time>
      </trkpt>
      <trkpt lat="48.830710" lon="2.178092">
        <ele>141.013129</ele>
        <time>2024-09-21T21:14:37.278Z</time>
      </trkpt>
      <trkpt lat="48.830547" lon="2.177678">
        <ele>141.072788</ele>
        <time>2024-09-21T21:14:41.908Z</time>
      </trkpt>
      <trkpt lat="48.830509" lon="2.177582">
        <ele>141.086642</ele>
        <time>2024-09-21T21:14:43.041Z</time>
      </trkpt>
      <trkpt lat="48.830467" lon="2.177607">
        <ele>141.095116</ele>
        <time>2024-09-21T21:14:43.664Z</time>
      </trkpt>
      <trkpt lat="48.830407" lon="2.177472">
        <ele>141.115261</ele>
        <time>2024-09-21T21:14:45.378Z</time>
      </trkpt>
      <trkpt lat="48.830310" lon="2.177530">
        <ele>141.134845</ele>
        <time>2024-09-21T21:14:52.578Z</time>
      </trkpt>
      <trkpt lat="48.830179" lon="2.177043">
        <ele>141.364248</ele>
        <time>2024-09-21T21:14:59.262Z</time>
      </trkpt>
      <trkpt lat="48.830107" lon="2.176637">
        <ele>142.212092</ele>
        <time>2024-09-21T21:15:05.115Z</time>
      </trkpt>
      <trkpt lat="48.830055" lon="2.174515">
        <ele>146.493859</ele>
        <time>2024-09-21T21:15:44.591Z</time>
      </trkpt>
      <trkpt lat="48.829964" lon="2.174368">
        <ele>147.007035</ele>
        <time>2024-09-21T21:15:49.036Z</time>
      </trkpt>
      <trkpt lat="48.829860" lon="2.174333">
        <ele>147.504834</ele>
        <time>2024-09-21T21:15:52.656Z</time>
      </trkpt>
      <trkpt lat="48.829603" lon="2.174399">
        <ele>148.722893</ele>
        <time>2024-09-21T21:16:01.954Z</time>
      </trkpt>
      <trkpt lat="48.828387" lon="2.174875">
        <ele>154.591172</ele>
        <time>2024-09-21T21:16:45.250Z</time>
      </trkpt>
      <trkpt lat="48.828274" lon="2.174919">
        <ele>155.125334</ele>
        <time>2024-09-21T21:16:49.431Z</time>
      </trkpt>
      <trkpt lat="48.827866" lon="2.175078">
        <ele>156.424902</ele>
        <time>2024-09-21T21:17:03.158Z</time>
      </trkpt>
      <trkpt lat="48.827736" lon="2.175126">
        <ele>156.837670</ele>
        <time>2024-09-21T21:17:07.112Z</time>
      </trkpt>
      <trkpt lat="48.827380" lon="2.174839">
        <ele>158.081143</ele>
        <time>2024-09-21T21:17:18.597Z</time>
      </trkpt>
      <trkpt lat="48.826957" lon="2.174505">
        <ele>159.552018</ele>
        <time>2024-09-21T21:17:30.758Z</time>
      </trkpt>
      <trkpt lat="48.826861" lon="2.174427">
        <ele>159.887917</ele>
        <time>2024-09-21T21:17:33.177Z</time>
      </trkpt>
      <trkpt lat="48.824590" lon="2.172589">
        <ele>163.141523</ele>
        <time>2024-09-21T21:18:23.385Z</time>
      </trkpt>
      <trkpt lat="48.824378" lon="2.172313">
        <ele>163.293422</ele>
        <time>2024-09-21T21:18:27.751Z</time>
      </trkpt>
      <trkpt lat="48.824220" lon="2.172033">
        <ele>163.425503</ele>
        <time>2024-09-21T21:18:31.624Z</time>
      </trkpt>
      <trkpt lat="48.823986" lon="2.171470">
        <ele>163.663971</ele>
        <time>2024-09-21T21:18:38.284Z</time>
      </trkpt>
      <trkpt lat="48.823943" lon="2.171206">
        <ele>163.761378</ele>
        <time>2024-09-21T21:18:41.165Z</time>
      </trkpt>
      <trkpt lat="48.823352" lon="2.167034">
        <ele>164.646203</ele>
        <time>2024-09-21T21:19:25.804Z</time>
      </trkpt>
      <trkpt lat="48.823246" lon="2.165876">
        <ele>164.966115</ele>
        <time>2024-09-21T21:19:38.001Z</time>
      </trkpt>
      <trkpt lat="48.823158" lon="2.164836">
        <ele>166.101077</ele>
        <time>2024-09-21T21:19:51.258Z</time>
      </trkpt>
      <trkpt lat="48.823156" lon="2.164343">
        <ele>166.746005</ele>
        <time>2024-09-21T21:19:58.387Z</time>
      </trkpt>
      <trkpt lat="48.823469" lon="2.163017">
        <ele>168.588714</ele>
        <time>2024-09-21T21:20:21.548Z</time>
      </trkpt>
      <trkpt lat="48.823691" lon="2.162179">
        <ele>170.370674</ele>
        <time>2024-09-21T21:20:38.330Z</time>
      </trkpt>
      <trkpt lat="48.823709" lon="2.162111">
        <ele>170.515828</ele>
        <time>2024-09-21T21:20:39.788Z</time>
      </trkpt>
      <trkpt lat="48.823692" lon="2.161804">
        <ele>171.126001</ele>
        <time>2024-09-21T21:20:45.683Z</time>
      </trkpt>
      <trkpt lat="48.823607" lon="2.161461">
        <ele>171.851856</ele>
        <time>2024-09-21T21:20:52.646Z</time>
      </trkpt>
      <trkpt lat="48.823445" lon="2.160809">
        <ele>173.232070</ele>
        <time>2024-09-21T21:21:05.210Z</time>
      </trkpt>
      <trkpt lat="48.823172" lon="2.160097">
        <ele>174.270621</ele>
        <time>2024-09-21T21:21:18.419Z</time>
      </trkpt>
      <trkpt lat="48.822887" lon="2.159467">
        <ele>174.728784</ele>
        <time>2024-09-21T21:21:28.614Z</time>
      </trkpt>
      <trkpt lat="48.822476" lon="2.158823">
        <ele>175.266376</ele>
        <time>2024-09-21T21:21:38.875Z</time>
      </trkpt>
      <trkpt lat="48.822356" lon="2.158464">
        <ele>175.507703</ele>
        <time>2024-09-21T21:21:42.862Z</time>
      </trkpt>
      <trkpt lat="48.822229" lon="2.157966">
        <ele>175.411833</ele>
        <time>2024-09-21T21:21:47.558Z</time>
      </trkpt>
      <trkpt lat="48.822178" lon="2.157596">
        <ele>175.106521</ele>
        <time>2024-09-21T21:21:50.625Z</time>
      </trkpt>
      <trkpt lat="48.822148" lon="2.157353">
        <ele>174.906840</ele>
        <time>2024-09-21T21:21:52.533Z</time>
      </trkpt>
      <trkpt lat="48.822116" lon="2.157099">
        <ele>174.697972</ele>
        <time>2024-09-21T21:21:54.516Z</time>
      </trkpt>
      <trkpt lat="48.821918" lon="2.155238">
        <ele>173.158744</ele>
        <time>2024-09-21T21:22:08.658Z</time>
      </trkpt>
      <trkpt lat="48.821757" lon="2.153721">
        <ele>171.840724</ele>
        <time>2024-09-21T21:22:20.132Z</time>
      </trkpt>
      <trkpt lat="48.821720" lon="2.153529">
        <ele>171.669124</ele>
        <time>2024-09-21T21:22:21.679Z</time>
      </trkpt>
      <trkpt lat="48.821571" lon="2.153088">
        <ele>171.243951</ele>
        <time>2024-09-21T21:22:25.691Z</time>
      </trkpt>
      <trkpt lat="48.821214" lon="2.152400">
        <ele>171.409426</ele>
        <time>2024-09-21T21:22:33.616Z</time>
      </trkpt>
      <trkpt lat="48.820980" lon="2.152097">
        <ele>171.612548</ele>
        <time>2024-09-21T21:22:38.387Z</time>
      </trkpt>
      <trkpt lat="48.820616" lon="2.151821">
        <ele>171.881291</ele>
        <time>2024-09-21T21:22:45.478Z</time>
      </trkpt>
      <trkpt lat="48.820076" lon="2.151368">
        <ele>172.288789</ele>
        <time>2024-09-21T21:22:58.879Z</time>
      </trkpt>
      <trkpt lat="48.819725" lon="2.151041">
        <ele>172.688485</ele>
        <time>2024-09-21T21:23:08.788Z</time>
      </trkpt>
      <trkpt lat="48.819579" lon="2.150941">
        <ele>172.843999</ele>
        <time>2024-09-21T21:23:12.681Z</time>
      </trkpt>
      <trkpt lat="48.819163" lon="2.150879">
        <ele>173.249869</ele>
        <time>2024-09-21T21:23:22.012Z</time>
      </trkpt>
      <trkpt lat="48.819121" lon="2.150828">
        <ele>173.302082</ele>
        <time>2024-09-21T21:23:23.106Z</time>
      </trkpt>
      <trkpt lat="48.819123" lon="2.150685">
        <ele>173.393528</ele>
        <time>2024-09-21T21:23:25.041Z</time>
      </trkpt>
      <trkpt lat="48.819156" lon="2.150560">
        <ele>173.479629</ele>
        <time>2024-09-21T21:23:26.772Z</time>
      </trkpt>
      <trkpt lat="48.819182" lon="2.150375">
        <ele>173.600570</ele>
        <time>2024-09-21T21:23:29.022Z</time>
      </trkpt>
      <trkpt lat="48.819185" lon="2.150250">
        <ele>173.680539</ele>
        <time>2024-09-21T21:23:30.422Z</time>
      </trkpt>
      <trkpt lat="48.819098" lon="2.150106">
        <ele>173.805487</ele>
        <time>2024-09-21T21:23:32.517Z</time>
      </trkpt>
      <trkpt lat="48.818983" lon="2.150094">
        <ele>173.917413</ele>
        <time>2024-09-21T21:23:34.102Z</time>
      </trkpt>
      <trkpt lat="48.818993" lon="2.149963">
        <ele>174.001727</ele>
        <time>2024-09-21T21:23:35.168Z</time>
      </trkpt>
      <trkpt lat="48.819012" lon="2.149750">
        <ele>173.661418</ele>
        <time>2024-09-21T21:23:36.811Z</time>
      </trkpt>
      <trkpt lat="48.819039" lon="2.149475">
        <ele>173.019712</ele>
        <time>2024-09-21T21:23:38.787Z</time>
      </trkpt>
      <trkpt lat="48.819089" lon="2.148934">
        <ele>171.758865</ele>
        <time>2024-09-21T21:23:42.479Z</time>
      </trkpt>
      <trkpt lat="48.819067" lon="2.148461">
        <ele>170.664480</ele>
        <time>2024-09-21T21:23:45.513Z</time>
      </trkpt>
      <trkpt lat="48.818975" lon="2.148093">
        <ele>169.755990</ele>
        <time>2024-09-21T21:23:47.976Z</time>
      </trkpt>
      <trkpt lat="48.818881" lon="2.147854">
        <ele>169.113471</ele>
        <time>2024-09-21T21:23:49.698Z</time>
      </trkpt>
      <trkpt lat="48.818676" lon="2.147526">
        <ele>168.069724</ele>
        <time>2024-09-21T21:23:52.493Z</time>
      </trkpt>
      <trkpt lat="48.818432" lon="2.147311">
        <ele>167.002242</ele>
        <time>2024-09-21T21:23:55.203Z</time>
      </trkpt>
      <trkpt lat="48.818316" lon="2.147237">
        <ele>166.507835</ele>
        <time>2024-09-21T21:23:56.412Z</time>
      </trkpt>
      <trkpt lat="48.818115" lon="2.147185">
        <ele>165.706621</ele>
        <time>2024-09-21T21:23:58.409Z</time>
      </trkpt>
      <trkpt lat="48.818011" lon="2.147191">
        <ele>165.297654</ele>
        <time>2024-09-21T21:23:59.412Z</time>
      </trkpt>
      <trkpt lat="48.817826" lon="2.147277">
        <ele>164.537396</ele>
        <time>2024-09-21T21:24:01.351Z</time>
      </trkpt>
      <trkpt lat="48.817677" lon="2.147433">
        <ele>163.826245</ele>
        <time>2024-09-21T21:24:03.132Z</time>
      </trkpt>
      <trkpt lat="48.817381" lon="2.148110">
        <ele>161.723545</ele>
        <time>2024-09-21T21:24:08.498Z</time>
      </trkpt>
      <trkpt lat="48.817317" lon="2.148207">
        <ele>161.368242</ele>
        <time>2024-09-21T21:24:09.390Z</time>
      </trkpt>
      <trkpt lat="48.817125" lon="2.148351">
        <ele>160.482289</ele>
        <time>2024-09-21T21:24:11.542Z</time>
      </trkpt>
      <trkpt lat="48.816900" lon="2.148388">
        <ele>159.302654</ele>
        <time>2024-09-21T21:24:13.731Z</time>
      </trkpt>
      <trkpt lat="48.816805" lon="2.148366">
        <ele>158.801757</ele>
        <time>2024-09-21T21:24:14.707Z</time>
      </trkpt>
      <trkpt lat="48.816520" lon="2.148209">
        <ele>157.221524</ele>
        <time>2024-09-21T21:24:17.645Z</time>
      </trkpt>
      <trkpt lat="48.816446" lon="2.148132">
        <ele>156.753957</ele>
        <time>2024-09-21T21:24:18.533Z</time>
      </trkpt>
      <trkpt lat="48.816333" lon="2.147932">
        <ele>155.849459</ele>
        <time>2024-09-21T21:24:20.157Z</time>
      </trkpt>
      <trkpt lat="48.815857" lon="2.146627">
        <ele>150.641727</ele>
        <time>2024-09-21T21:24:29.137Z</time>
      </trkpt>
      <trkpt lat="48.815672" lon="2.146108">
        <ele>148.299252</ele>
        <time>2024-09-21T21:24:32.607Z</time>
      </trkpt>
      <trkpt lat="48.815529" lon="2.145683">
        <ele>146.404872</ele>
        <time>2024-09-21T21:24:35.411Z</time>
      </trkpt>
      <trkpt lat="48.815333" lon="2.145158">
        <ele>144.009416</ele>
        <time>2024-09-21T21:24:39.005Z</time>
      </trkpt>
      <trkpt lat="48.814586" lon="2.143041">
        <ele>136.689555</ele>
        <time>2024-09-21T21:24:54.184Z</time>
      </trkpt>
      <trkpt lat="48.814011" lon="2.141451">
        <ele>132.796460</ele>
        <time>2024-09-21T21:25:06.464Z</time>
      </trkpt>
      <trkpt lat="48.813890" lon="2.141097">
        <ele>132.233798</ele>
        <time>2024-09-21T21:25:09.266Z</time>
      </trkpt>
      <trkpt lat="48.813826" lon="2.140909">
        <ele>131.935239</ele>
        <time>2024-09-21T21:25:10.755Z</time>
      </trkpt>
      <trkpt lat="48.813391" lon="2.139711">
        <ele>130.005287</ele>
        <time>2024-09-21T21:25:20.753Z</time>
      </trkpt>
      <trkpt lat="48.813357" lon="2.139532">
        <ele>129.754971</ele>
        <time>2024-09-21T21:25:22.145Z</time>
      </trkpt>
      <trkpt lat="48.813600" lon="2.136652">
        <ele>127.491772</ele>
        <time>2024-09-21T21:25:45.126Z</time>
      </trkpt>
      <trkpt lat="48.813617" lon="2.136486">
        <ele>127.379131</ele>
        <time>2024-09-21T21:25:46.559Z</time>
      </trkpt>
      <trkpt lat="48.813684" lon="2.136307">
        <ele>127.241078</ele>
        <time>2024-09-21T21:25:48.249Z</time>
      </trkpt>
      <trkpt lat="48.813653" lon="2.136083">
        <ele>127.087605</ele>
        <time>2024-09-21T21:25:50.048Z</time>
      </trkpt>
      <trkpt lat="48.813653" lon="2.136001">
        <ele>127.032624</ele>
        <time>2024-09-21T21:25:50.882Z</time>
      </trkpt>
      <trkpt lat="48.812954" lon="2.135892">
        <ele>126.317153</ele>
        <time>2024-09-21T21:25:59.371Z</time>
      </trkpt>
      <trkpt lat="48.812873" lon="2.135842">
        <ele>126.228124</ele>
        <time>2024-09-21T21:26:00.910Z</time>
      </trkpt>
      <trkpt lat="48.812526" lon="2.135635">
        <ele>125.848522</ele>
        <time>2024-09-21T21:26:07.354Z</time>
      </trkpt>
      <trkpt lat="48.812467" lon="2.135599">
        <ele>125.784317</ele>
        <time>2024-09-21T21:26:08.115Z</time>
      </trkpt>
      <trkpt lat="48.812424" lon="2.135573">
        <ele>125.741818</ele>
        <time>2024-09-21T21:26:08.632Z</time>
      </trkpt>
      <trkpt lat="48.812232" lon="2.135454">
        <ele>125.551399</ele>
        <time>2024-09-21T21:26:12.324Z</time>
      </trkpt>
      <trkpt lat="48.811941" lon="2.135273">
        <ele>125.262647</ele>
        <time>2024-09-21T21:26:17.760Z</time>
      </trkpt>
      <trkpt lat="48.811834" lon="2.135207">
        <ele>125.156600</ele>
        <time>2024-09-21T21:26:19.091Z</time>
      </trkpt>
      <trkpt lat="48.811704" lon="2.135127">
        <ele>125.027801</ele>
        <time>2024-09-21T21:26:20.730Z</time>
      </trkpt>
      <trkpt lat="48.811533" lon="2.135020">
        <ele>124.857975</ele>
        <time>2024-09-21T21:26:22.984Z</time>
      </trkpt>
      <trkpt lat="48.811456" lon="2.134973">
        <ele>124.781773</ele>
        <time>2024-09-21T21:26:23.892Z</time>
      </trkpt>
      <trkpt lat="48.811276" lon="2.134864">
        <ele>124.603834</ele>
        <time>2024-09-21T21:26:26.210Z</time>
      </trkpt>
      <trkpt lat="48.811207" lon="2.134823">
        <ele>124.535798</ele>
        <time>2024-09-21T21:26:27.079Z</time>
      </trkpt>
      <trkpt lat="48.810856" lon="2.134609">
        <ele>124.188490</ele>
        <time>2024-09-21T21:26:34.390Z</time>
      </trkpt>
      <trkpt lat="48.810800" lon="2.134575">
        <ele>124.138889</ele>
        <time>2024-09-21T21:26:35.193Z</time>
      </trkpt>
      <trkpt lat="48.810751" lon="2.134545">
        <ele>124.151582</ele>
        <time>2024-09-21T21:26:35.946Z</time>
      </trkpt>
      <trkpt lat="48.810164" lon="2.134178">
        <ele>124.304095</ele>
        <time>2024-09-21T21:26:48.365Z</time>
      </trkpt>
      <trkpt lat="48.810135" lon="2.134162">
        <ele>124.311508</ele>
        <time>2024-09-21T21:26:49.029Z</time>
      </trkpt>
      <trkpt lat="48.810018" lon="2.134094">
        <ele>124.341606</ele>
        <time>2024-09-21T21:26:50.772Z</time>
      </trkpt>
      <trkpt lat="48.809923" lon="2.134040">
        <ele>124.365977</ele>
        <time>2024-09-21T21:26:52.683Z</time>
      </trkpt>
      <trkpt lat="48.809820" lon="2.133977">
        <ele>124.392655</ele>
        <time>2024-09-21T21:26:54.241Z</time>
      </trkpt>
      <trkpt lat="48.809775" lon="2.133950">
        <ele>124.404279</ele>
        <time>2024-09-21T21:26:54.955Z</time>
      </trkpt>
      <trkpt lat="48.809747" lon="2.133933">
        <ele>124.411524</ele>
        <time>2024-09-21T21:26:55.322Z</time>
      </trkpt>
      <trkpt lat="48.809691" lon="2.133899">
        <ele>124.426014</ele>
        <time>2024-09-21T21:26:56.065Z</time>
      </trkpt>
      <trkpt lat="48.809625" lon="2.133858">
        <ele>124.443146</ele>
        <time>2024-09-21T21:26:57.241Z</time>
      </trkpt>
      <trkpt lat="48.809596" lon="2.133841">
        <ele>124.450614</ele>
        <time>2024-09-21T21:26:57.776Z</time>
      </trkpt>
      <trkpt lat="48.809443" lon="2.133750">
        <ele>124.490092</ele>
        <time>2024-09-21T21:27:01.254Z</time>
      </trkpt>
      <trkpt lat="48.809225" lon="2.133619">
        <ele>124.546419</ele>
        <time>2024-09-21T21:27:06.838Z</time>
      </trkpt>
      <trkpt lat="48.809107" lon="2.133549">
        <ele>124.613081</ele>
        <time>2024-09-21T21:27:10.209Z</time>
      </trkpt>
      <trkpt lat="48.809064" lon="2.133524">
        <ele>124.681074</ele>
        <time>2024-09-21T21:27:11.049Z</time>
      </trkpt>
      <trkpt lat="48.809014" lon="2.133490">
        <ele>124.761973</ele>
        <time>2024-09-21T21:27:12.309Z</time>
      </trkpt>
      <trkpt lat="48.808919" lon="2.133430">
        <ele>124.913909</ele>
        <time>2024-09-21T21:27:14.977Z</time>
      </trkpt>
      <trkpt lat="48.808829" lon="2.133379">
        <ele>125.055763</ele>
        <time>2024-09-21T21:27:17.077Z</time>
      </trkpt>
      <trkpt lat="48.808777" lon="2.133348">
        <ele>125.138257</ele>
        <time>2024-09-21T21:27:18.352Z</time>
      </trkpt>
      <trkpt lat="48.808763" lon="2.133341">
        <ele>125.160022</ele>
        <time>2024-09-21T21:27:18.674Z</time>
      </trkpt>
      <trkpt lat="48.808398" lon="2.133131">
        <ele>125.736404</ele>
        <time>2024-09-21T21:27:28.551Z</time>
      </trkpt>
      <trkpt lat="48.808228" lon="2.133029">
        <ele>126.006328</ele>
        <time>2024-09-21T21:27:33.591Z</time>
      </trkpt>
      <trkpt lat="48.808035" lon="2.132913">
        <ele>126.312842</ele>
        <time>2024-09-21T21:27:37.883Z</time>
      </trkpt>
      <trkpt lat="48.807721" lon="2.132723">
        <ele>126.811981</ele>
        <time>2024-09-21T21:27:45.713Z</time>
      </trkpt>
      <trkpt lat="48.807676" lon="2.132695">
        <ele>126.883795</ele>
        <time>2024-09-21T21:27:47.020Z</time>
      </trkpt>
      <trkpt lat="48.807617" lon="2.132660">
        <ele>126.977332</ele>
        <time>2024-09-21T21:27:49.038Z</time>
      </trkpt>
      <trkpt lat="48.807555" lon="2.132623">
        <ele>127.075703</ele>
        <time>2024-09-21T21:27:50.578Z</time>
      </trkpt>
      <trkpt lat="48.807471" lon="2.132572">
        <ele>127.209293</ele>
        <time>2024-09-21T21:27:53.017Z</time>
      </trkpt>
      <trkpt lat="48.807370" lon="2.132511">
        <ele>127.415406</ele>
        <time>2024-09-21T21:27:56.304Z</time>
      </trkpt>
      <trkpt lat="48.807226" lon="2.132424">
        <ele>127.716755</ele>
        <time>2024-09-21T21:27:59.986Z</time>
      </trkpt>
      <trkpt lat="48.807156" lon="2.132382">
        <ele>127.863106</ele>
        <time>2024-09-21T21:28:01.769Z</time>
      </trkpt>
      <trkpt lat="48.807108" lon="2.132350">
        <ele>127.965038</ele>
        <time>2024-09-21T21:28:03.149Z</time>
      </trkpt>
      <trkpt lat="48.807007" lon="2.132284">
        <ele>128.178841</ele>
        <time>2024-09-21T21:28:06.631Z</time>
      </trkpt>
      <trkpt lat="48.806742" lon="2.132122">
        <ele>128.734308</ele>
        <time>2024-09-21T21:28:13.188Z</time>
      </trkpt>
      <trkpt lat="48.806600" lon="2.132037">
        <ele>129.031099</ele>
        <time>2024-09-21T21:28:17.025Z</time>
      </trkpt>
      <trkpt lat="48.806459" lon="2.131952">
        <ele>129.326081</ele>
        <time>2024-09-21T21:28:19.795Z</time>
      </trkpt>
      <trkpt lat="48.806190" lon="2.131784">
        <ele>129.891651</ele>
        <time>2024-09-21T21:28:25.768Z</time>
      </trkpt>
      <trkpt lat="48.806093" lon="2.131724">
        <ele>130.095311</ele>
        <time>2024-09-21T21:28:27.785Z</time>
      </trkpt>
      <trkpt lat="48.806047" lon="2.131696">
        <ele>130.191674</ele>
        <time>2024-09-21T21:28:29.078Z</time>
      </trkpt>
      <trkpt lat="48.806006" lon="2.131671">
        <ele>130.277584</ele>
        <time>2024-09-21T21:28:30.065Z</time>
      </trkpt>
      <trkpt lat="48.805689" lon="2.131480">
        <ele>130.870830</ele>
        <time>2024-09-21T21:28:36.631Z</time>
      </trkpt>
      <trkpt lat="48.805330" lon="2.131263">
        <ele>131.380782</ele>
        <time>2024-09-21T21:28:45.878Z</time>
      </trkpt>
      <trkpt lat="48.805301" lon="2.131241">
        <ele>131.423566</ele>
        <time>2024-09-21T21:28:46.479Z</time>
      </trkpt>
      <trkpt lat="48.805258" lon="2.131215">
        <ele>131.484649</ele>
        <time>2024-09-21T21:28:47.399Z</time>
      </trkpt>
      <trkpt lat="48.805186" lon="2.131182">
        <ele>131.583905</ele>
        <time>2024-09-21T21:28:49.141Z</time>
      </trkpt>
      <trkpt lat="48.805139" lon="2.131090">
        <ele>131.685109</ele>
        <time>2024-09-21T21:28:51.180Z</time>
      </trkpt>
      <trkpt lat="48.805106" lon="2.131077">
        <ele>131.730103</ele>
        <time>2024-09-21T21:28:52.237Z</time>
      </trkpt>
      <trkpt lat="48.805094" lon="2.130965">
        <ele>131.828734</ele>
        <time>2024-09-21T21:29:01.618Z</time>
      </trkpt>
      <trkpt lat="48.805079" lon="2.130830">
        <ele>131.947736</ele>
        <time>2024-09-21T21:29:03.361Z</time>
      </trkpt>
      <trkpt lat="48.804958" lon="2.130850">
        <ele>132.108368</ele>
        <time>2024-09-21T21:29:06.083Z</time>
      </trkpt>
      <trkpt lat="48.804879" lon="2.130860">
        <ele>132.212989</ele>
        <time>2024-09-21T21:29:08.040Z</time>
      </trkpt>
      <trkpt lat="48.804796" lon="2.130868">
        <ele>132.322748</ele>
        <time>2024-09-21T21:29:10.017Z</time>
      </trkpt>
      <trkpt lat="48.804797" lon="2.130896">
        <ele>132.347122</ele>
        <time>2024-09-21T21:29:10.246Z</time>
      </trkpt>
      <trkpt lat="48.804800" lon="2.130991">
        <ele>132.429792</ele>
        <time>2024-09-21T21:29:11.115Z</time>
      </trkpt>
      <trkpt lat="48.804698" lon="2.131013">
        <ele>132.565758</ele>
        <time>2024-09-21T21:29:12.780Z</time>
      </trkpt>
      <trkpt lat="48.804663" lon="2.131008">
        <ele>132.612153</ele>
        <time>2024-09-21T21:29:13.323Z</time>
      </trkpt>
      <trkpt lat="48.804262" lon="2.130866">
        <ele>133.077881</ele>
        <time>2024-09-21T21:29:19.145Z</time>
      </trkpt>
      <trkpt lat="48.804164" lon="2.130792">
        <ele>133.031030</ele>
        <time>2024-09-21T21:29:20.662Z</time>
      </trkpt>
      <trkpt lat="48.804075" lon="2.130805">
        <ele>132.992756</ele>
        <time>2024-09-21T21:29:22.076Z</time>
      </trkpt>
      <trkpt lat="48.803949" lon="2.130737">
        <ele>132.935515</ele>
        <time>2024-09-21T21:29:24.189Z</time>
      </trkpt>
      <trkpt lat="48.803306" lon="2.130353">
        <ele>132.639746</ele>
        <time>2024-09-21T21:29:34.933Z</time>
      </trkpt>
      <trkpt lat="48.802642" lon="2.129946">
        <ele>132.333225</ele>
        <time>2024-09-21T21:29:43.673Z</time>
      </trkpt>
      <trkpt lat="48.802587" lon="2.129912">
        <ele>132.254873</ele>
        <time>2024-09-21T21:29:44.331Z</time>
      </trkpt>
      <trkpt lat="48.802573" lon="2.129842">
        <ele>132.177319</ele>
        <time>2024-09-21T21:29:44.861Z</time>
      </trkpt>
      <trkpt lat="48.802520" lon="2.129807">
        <ele>132.084293</ele>
        <time>2024-09-21T21:29:45.508Z</time>
      </trkpt>
      <trkpt lat="48.802471" lon="2.129776">
        <ele>131.998853</ele>
        <time>2024-09-21T21:29:46.115Z</time>
      </trkpt>
      <trkpt lat="48.802375" lon="2.129716">
        <ele>131.831758</ele>
        <time>2024-09-21T21:29:47.317Z</time>
      </trkpt>
      <trkpt lat="48.802245" lon="2.129635">
        <ele>131.605584</ele>
        <time>2024-09-21T21:29:48.865Z</time>
      </trkpt>
      <trkpt lat="48.802069" lon="2.129529">
        <ele>131.300831</ele>
        <time>2024-09-21T21:29:51.002Z</time>
      </trkpt>
      <trkpt lat="48.802035" lon="2.129506">
        <ele>131.240920</ele>
        <time>2024-09-21T21:29:51.434Z</time>
      </trkpt>
      <trkpt lat="48.801955" lon="2.129455">
        <ele>131.101267</ele>
        <time>2024-09-21T21:29:52.376Z</time>
      </trkpt>
      <trkpt lat="48.801858" lon="2.129415">
        <ele>130.939486</ele>
        <time>2024-09-21T21:29:53.474Z</time>
      </trkpt>
      <trkpt lat="48.801156" lon="2.128972">
        <ele>129.715876</ele>
        <time>2024-09-21T21:30:01.941Z</time>
      </trkpt>
      <trkpt lat="48.800824" lon="2.128775">
        <ele>129.428869</ele>
        <time>2024-09-21T21:30:05.999Z</time>
      </trkpt>
      <trkpt lat="48.800584" lon="2.128591">
        <ele>129.424180</ele>
        <time>2024-09-21T21:30:09.370Z</time>
      </trkpt>
      <trkpt lat="48.800465" lon="2.128520">
        <ele>129.421950</ele>
        <time>2024-09-21T21:30:11.363Z</time>
      </trkpt>
      <trkpt lat="48.800269" lon="2.128395">
        <ele>129.418242</ele>
        <time>2024-09-21T21:30:14.391Z</time>
      </trkpt>
      <trkpt lat="48.799952" lon="2.128226">
        <ele>129.412382</ele>
        <time>2024-09-21T21:30:19.934Z</time>
      </trkpt>
      <trkpt lat="48.799848" lon="2.128146">
        <ele>129.410349</ele>
        <time>2024-09-21T21:30:22.161Z</time>
      </trkpt>
      <trkpt lat="48.799783" lon="2.128097">
        <ele>129.409083</ele>
        <time>2024-09-21T21:30:23.547Z</time>
      </trkpt>
      <trkpt lat="48.799684" lon="2.128038">
        <ele>129.407228</ele>
        <time>2024-09-21T21:30:25.239Z</time>
      </trkpt>
      <trkpt lat="48.799612" lon="2.128003">
        <ele>129.405910</ele>
        <time>2024-09-21T21:30:26.555Z</time>
      </trkpt>
      <trkpt lat="48.799509" lon="2.127937">
        <ele>129.403960</ele>
        <time>2024-09-21T21:30:28.860Z</time>
      </trkpt>
      <trkpt lat="48.799333" lon="2.127822">
        <ele>129.401342</ele>
        <time>2024-09-21T21:30:32.137Z</time>
      </trkpt>
      <trkpt lat="48.799204" lon="2.127771">
        <ele>129.475195</ele>
        <time>2024-09-21T21:30:34.536Z</time>
      </trkpt>
      <trkpt lat="48.799115" lon="2.127744">
        <ele>129.525478</ele>
        <time>2024-09-21T21:30:36.300Z</time>
      </trkpt>
      <trkpt lat="48.799107" lon="2.127739">
        <ele>129.530272</ele>
        <time>2024-09-21T21:30:36.486Z</time>
      </trkpt>
      <trkpt lat="48.798798" lon="2.127533">
        <ele>129.717246</ele>
        <time>2024-09-21T21:30:42.013Z</time>
      </trkpt>
      <trkpt lat="48.798781" lon="2.127522">
        <ele>129.727484</ele>
        <time>2024-09-21T21:30:42.366Z</time>
      </trkpt>
      <trkpt lat="48.798095" lon="2.127050">
        <ele>130.144761</ele>
        <time>2024-09-21T21:30:54.472Z</time>
      </trkpt>
      <trkpt lat="48.797518" lon="2.126663">
        <ele>130.492575</ele>
        <time>2024-09-21T21:31:05.954Z</time>
      </trkpt>
      <trkpt lat="48.797270" lon="2.126493">
        <ele>130.640740</ele>
        <time>2024-09-21T21:31:10.668Z</time>
      </trkpt>
      <trkpt lat="48.796974" lon="2.126293">
        <ele>130.817156</ele>
        <time>2024-09-21T21:31:16.144Z</time>
      </trkpt>
      <trkpt lat="48.796679" lon="2.126089">
        <ele>130.993664</ele>
        <time>2024-09-21T21:31:21.032Z</time>
      </trkpt>
      <trkpt lat="48.796404" lon="2.125914">
        <ele>131.156026</ele>
        <time>2024-09-21T21:31:25.534Z</time>
      </trkpt>
      <trkpt lat="48.795825" lon="2.125523">
        <ele>131.725630</ele>
        <time>2024-09-21T21:31:36.823Z</time>
      </trkpt>
      <trkpt lat="48.795205" lon="2.125097">
        <ele>132.764140</ele>
        <time>2024-09-21T21:31:51.369Z</time>
      </trkpt>
      <trkpt lat="48.794595" lon="2.124681">
        <ele>133.784609</ele>
        <time>2024-09-21T21:32:05.444Z</time>
      </trkpt>
      <trkpt lat="48.793982" lon="2.124269">
        <ele>135.394942</ele>
        <time>2024-09-21T21:32:20.729Z</time>
      </trkpt>
      <trkpt lat="48.793735" lon="2.125122">
        <ele>137.133061</ele>
        <time>2024-09-21T21:32:36.907Z</time>
      </trkpt>
      <trkpt lat="48.793467" lon="2.126031">
        <ele>138.990790</ele>
        <time>2024-09-21T21:32:54.769Z</time>
      </trkpt>
      <trkpt lat="48.793315" lon="2.126552">
        <ele>140.898303</ele>
        <time>2024-09-21T21:33:04.837Z</time>
      </trkpt>
      <trkpt lat="48.792980" lon="2.127696">
        <ele>145.583498</ele>
        <time>2024-09-21T21:33:36.381Z</time>
      </trkpt>
      <trkpt lat="48.792927" lon="2.127772">
        <ele>145.997679</ele>
        <time>2024-09-21T21:33:39.619Z</time>
      </trkpt>
      <trkpt lat="48.792802" lon="2.128218">
        <ele>147.811563</ele>
        <time>2024-09-21T21:33:53.140Z</time>
      </trkpt>
      <trkpt lat="48.792811" lon="2.128350">
        <ele>148.308199</ele>
        <time>2024-09-21T21:33:57.471Z</time>
      </trkpt>
      <trkpt lat="48.792819" lon="2.128388">
        <ele>148.457496</ele>
        <time>2024-09-21T21:33:58.489Z</time>
      </trkpt>
      <trkpt lat="48.792758" lon="2.128513">
        <ele>149.039664</ele>
        <time>2024-09-21T21:34:02.672Z</time>
      </trkpt>
      <trkpt lat="48.792699" lon="2.128539">
        <ele>149.388668</ele>
        <time>2024-09-21T21:34:05.304Z</time>
      </trkpt>
      <trkpt lat="48.792406" lon="2.128484">
        <ele>151.206048</ele>
        <time>2024-09-21T21:34:18.035Z</time>
      </trkpt>
      <trkpt lat="48.792273" lon="2.128354">
        <ele>152.181815</ele>
        <time>2024-09-21T21:34:24.615Z</time>
      </trkpt>
      <trkpt lat="48.792226" lon="2.128269">
        <ele>152.632769</ele>
        <time>2024-09-21T21:34:28.096Z</time>
      </trkpt>
      <trkpt lat="48.791916" lon="2.127100">
        <ele>157.753633</ele>
        <time>2024-09-21T21:34:58.999Z</time>
      </trkpt>
      <trkpt lat="48.791759" lon="2.126277">
        <ele>161.083644</ele>
        <time>2024-09-21T21:35:21.549Z</time>
      </trkpt>
      <trkpt lat="48.791674" lon="2.125696">
        <ele>162.984134</ele>
        <time>2024-09-21T21:35:36.261Z</time>
      </trkpt>
      <trkpt lat="48.791560" lon="2.125103">
        <ele>164.956727</ele>
        <time>2024-09-21T21:35:50.395Z</time>
      </trkpt>
      <trkpt lat="48.791445" lon="2.124761">
        <ele>166.182864</ele>
        <time>2024-09-21T21:35:58.716Z</time>
      </trkpt>
      <trkpt lat="48.791281" lon="2.124433">
        <ele>167.497764</ele>
        <time>2024-09-21T21:36:06.882Z</time>
      </trkpt>
      <trkpt lat="48.791153" lon="2.124264">
        <ele>168.320065</ele>
        <time>2024-09-21T21:36:12.058Z</time>
      </trkpt>
      <trkpt lat="48.791005" lon="2.124142">
        <ele>169.136400</ele>
        <time>2024-09-21T21:36:17.014Z</time>
      </trkpt>
      <trkpt lat="48.790807" lon="2.124072">
        <ele>169.665776</ele>
        <time>2024-09-21T21:36:23.235Z</time>
      </trkpt>
      <trkpt lat="48.790560" lon="2.124089">
        <ele>170.240933</ele>
        <time>2024-09-21T21:36:31.360Z</time>
      </trkpt>
      <trkpt lat="48.790292" lon="2.124251">
        <ele>170.911966</ele>
        <time>2024-09-21T21:36:41.252Z</time>
      </trkpt>
      <trkpt lat="48.789960" lon="2.124596">
        <ele>171.847906</ele>
        <time>2024-09-21T21:36:53.347Z</time>
      </trkpt>
      <trkpt lat="48.789606" lon="2.125008">
        <ele>172.885583</ele>
        <time>2024-09-21T21:37:02.113Z</time>
      </trkpt>
      <trkpt lat="48.789441" lon="2.125195">
        <ele>173.364592</ele>
        <time>2024-09-21T21:37:04.578Z</time>
      </trkpt>
      <trkpt lat="48.789224" lon="2.125469">
        <ele>172.571889</ele>
        <time>2024-09-21T21:37:07.598Z</time>
      </trkpt>
      <trkpt lat="48.789061" lon="2.125726">
        <ele>171.780757</ele>
        <time>2024-09-21T21:37:09.974Z</time>
      </trkpt>
      <trkpt lat="48.788983" lon="2.125869">
        <ele>171.369042</ele>
        <time>2024-09-21T21:37:11.208Z</time>
      </trkpt>
      <trkpt lat="48.788900" lon="2.126041">
        <ele>170.896222</ele>
        <time>2024-09-21T21:37:12.577Z</time>
      </trkpt>
      <trkpt lat="48.788787" lon="2.126362">
        <ele>170.089087</ele>
        <time>2024-09-21T21:37:14.931Z</time>
      </trkpt>
      <trkpt lat="48.788689" lon="2.126755">
        <ele>169.157183</ele>
        <time>2024-09-21T21:37:17.595Z</time>
      </trkpt>
      <trkpt lat="48.788612" lon="2.127298">
        <ele>167.925379</ele>
        <time>2024-09-21T21:37:21.127Z</time>
      </trkpt>
      <trkpt lat="48.788509" lon="2.128935">
        <ele>163.899489</ele>
        <time>2024-09-21T21:37:31.571Z</time>
      </trkpt>
      <trkpt lat="48.788485" lon="2.129379">
        <ele>162.790581</ele>
        <time>2024-09-21T21:37:34.517Z</time>
      </trkpt>
      <trkpt lat="48.788399" lon="2.130584">
        <ele>159.988759</ele>
        <time>2024-09-21T21:37:42.608Z</time>
      </trkpt>
      <trkpt lat="48.788336" lon="2.130966">
        <ele>159.270433</ele>
        <time>2024-09-21T21:37:45.310Z</time>
      </trkpt>
      <trkpt lat="48.788151" lon="2.131688">
        <ele>157.857295</ele>
        <time>2024-09-21T21:37:50.683Z</time>
      </trkpt>
      <trkpt lat="48.787867" lon="2.132657">
        <ele>155.922674</ele>
        <time>2024-09-21T21:37:57.959Z</time>
      </trkpt>
      <trkpt lat="48.787847" lon="2.132706">
        <ele>155.817527</ele>
        <time>2024-09-21T21:37:58.349Z</time>
      </trkpt>
      <trkpt lat="48.787714" lon="2.133081">
        <ele>155.126091</ele>
        <time>2024-09-21T21:38:01.283Z</time>
      </trkpt>
      <trkpt lat="48.787679" lon="2.133268">
        <ele>154.825734</ele>
        <time>2024-09-21T21:38:02.632Z</time>
      </trkpt>
      <trkpt lat="48.787602" lon="2.133245">
        <ele>154.641701</ele>
        <time>2024-09-21T21:38:03.454Z</time>
      </trkpt>
      <trkpt lat="48.787458" lon="2.133202">
        <ele>154.297537</ele>
        <time>2024-09-21T21:38:04.986Z</time>
      </trkpt>
      <trkpt lat="48.787123" lon="2.133120">
        <ele>153.501789</ele>
        <time>2024-09-21T21:38:08.579Z</time>
      </trkpt>
      <trkpt lat="48.787000" lon="2.133091">
        <ele>153.209886</ele>
        <time>2024-09-21T21:38:09.915Z</time>
      </trkpt>
      <trkpt lat="48.786859" lon="2.133034">
        <ele>152.867704</ele>
        <time>2024-09-21T21:38:11.507Z</time>
      </trkpt>
      <trkpt lat="48.786806" lon="2.132988">
        <ele>152.724529</ele>
        <time>2024-09-21T21:38:12.148Z</time>
      </trkpt>
      <trkpt lat="48.786294" lon="2.132841">
        <ele>151.502561</ele>
        <time>2024-09-21T21:38:17.964Z</time>
      </trkpt>
      <trkpt lat="48.786189" lon="2.132817">
        <ele>151.221182</ele>
        <time>2024-09-21T21:38:19.152Z</time>
      </trkpt>
      <trkpt lat="48.786123" lon="2.132801">
        <ele>151.024674</ele>
        <time>2024-09-21T21:38:19.893Z</time>
      </trkpt>
      <trkpt lat="48.785863" lon="2.132761">
        <ele>150.256326</ele>
        <time>2024-09-21T21:38:22.687Z</time>
      </trkpt>
      <trkpt lat="48.785586" lon="2.132798">
        <ele>149.438765</ele>
        <time>2024-09-21T21:38:25.622Z</time>
      </trkpt>
      <trkpt lat="48.785186" lon="2.132724">
        <ele>148.254012</ele>
        <time>2024-09-21T21:38:29.806Z</time>
      </trkpt>
      <trkpt lat="48.784573" lon="2.132582">
        <ele>146.430847</ele>
        <time>2024-09-21T21:38:36.034Z</time>
      </trkpt>
      <trkpt lat="48.784344" lon="2.132537">
        <ele>145.613674</ele>
        <time>2024-09-21T21:38:38.246Z</time>
      </trkpt>
      <trkpt lat="48.784236" lon="2.132482">
        <ele>145.142920</ele>
        <time>2024-09-21T21:38:39.374Z</time>
      </trkpt>
      <trkpt lat="48.783569" lon="2.132376">
        <ele>142.371540</ele>
        <time>2024-09-21T21:38:45.892Z</time>
      </trkpt>
      <trkpt lat="48.782882" lon="2.132241">
        <ele>139.508883</ele>
        <time>2024-09-21T21:38:52.541Z</time>
      </trkpt>
      <trkpt lat="48.782773" lon="2.132221">
        <ele>139.055172</ele>
        <time>2024-09-21T21:38:53.614Z</time>
      </trkpt>
      <trkpt lat="48.782668" lon="2.132204">
        <ele>138.622856</ele>
        <time>2024-09-21T21:38:55.090Z</time>
      </trkpt>
      <trkpt lat="48.781662" lon="2.131983">
        <ele>134.833280</ele>
        <time>2024-09-21T21:39:05.053Z</time>
      </trkpt>
      <trkpt lat="48.780884" lon="2.131511">
        <ele>131.684976</ele>
        <time>2024-09-21T21:39:13.504Z</time>
      </trkpt>
      <trkpt lat="48.780760" lon="2.131469">
        <ele>131.163663</ele>
        <time>2024-09-21T21:39:14.796Z</time>
      </trkpt>
      <trkpt lat="48.780413" lon="2.131540">
        <ele>129.726975</ele>
        <time>2024-09-21T21:39:18.235Z</time>
      </trkpt>
      <trkpt lat="48.780257" lon="2.131522">
        <ele>129.085030</ele>
        <time>2024-09-21T21:39:19.739Z</time>
      </trkpt>
      <trkpt lat="48.779255" lon="2.130800">
        <ele>124.531733</ele>
        <time>2024-09-21T21:39:30.419Z</time>
      </trkpt>
      <trkpt lat="48.779443" lon="2.130178">
        <ele>122.591372</ele>
        <time>2024-09-21T21:39:36.665Z</time>
      </trkpt>
      <trkpt lat="48.779432" lon="2.130032">
        <ele>122.174691</ele>
        <time>2024-09-21T21:39:38.028Z</time>
      </trkpt>
      <trkpt lat="48.779400" lon="2.129928">
        <ele>121.849235</ele>
        <time>2024-09-21T21:39:39.062Z</time>
      </trkpt>
      <trkpt lat="48.778929" lon="2.129421">
        <ele>119.364427</ele>
        <time>2024-09-21T21:39:47.069Z</time>
      </trkpt>
      <trkpt lat="48.778768" lon="2.129253">
        <ele>118.523668</ele>
        <time>2024-09-21T21:39:48.934Z</time>
      </trkpt>
      <trkpt lat="48.778293" lon="2.128683">
        <ele>116.064587</ele>
        <time>2024-09-21T21:39:54.778Z</time>
      </trkpt>
      <trkpt lat="48.777647" lon="2.128143">
        <ele>113.398614</ele>
        <time>2024-09-21T21:40:02.089Z</time>
      </trkpt>
      <trkpt lat="48.777191" lon="2.128002">
        <ele>111.716415</ele>
        <time>2024-09-21T21:40:06.738Z</time>
      </trkpt>
      <trkpt lat="48.776775" lon="2.127944">
        <ele>110.352629</ele>
        <time>2024-09-21T21:40:10.887Z</time>
      </trkpt>
      <trkpt lat="48.776708" lon="2.127963">
        <ele>110.390232</ele>
        <time>2024-09-21T21:40:11.571Z</time>
      </trkpt>
      <trkpt lat="48.776374" lon="2.127801">
        <ele>110.583675</ele>
        <time>2024-09-21T21:40:15.187Z</time>
      </trkpt>
      <trkpt lat="48.776218" lon="2.127606">
        <ele>110.695176</ele>
        <time>2024-09-21T21:40:17.444Z</time>
      </trkpt>
      <trkpt lat="48.776048" lon="2.127327">
        <ele>110.833322</ele>
        <time>2024-09-21T21:40:20.685Z</time>
      </trkpt>
      <trkpt lat="48.775894" lon="2.127021">
        <ele>110.973301</ele>
        <time>2024-09-21T21:40:24.924Z</time>
      </trkpt>
      <trkpt lat="48.775808" lon="2.126920">
        <ele>111.033295</ele>
        <time>2024-09-21T21:40:26.864Z</time>
      </trkpt>
      <trkpt lat="48.775600" lon="2.126871">
        <ele>111.149418</ele>
        <time>2024-09-21T21:40:32.127Z</time>
      </trkpt>
      <trkpt lat="48.775470" lon="2.126797">
        <ele>111.226016</ele>
        <time>2024-09-21T21:40:36.597Z</time>
      </trkpt>
      <trkpt lat="48.775417" lon="2.126763">
        <ele>111.257760</ele>
        <time>2024-09-21T21:40:38.461Z</time>
      </trkpt>
      <trkpt lat="48.775326" lon="2.126673">
        <ele>111.317685</ele>
        <time>2024-09-21T21:40:42.693Z</time>
      </trkpt>
      <trkpt lat="48.775147" lon="2.126587">
        <ele>112.551708</ele>
        <time>2024-09-21T21:40:50.922Z</time>
      </trkpt>
      <trkpt lat="48.774959" lon="2.126527">
        <ele>113.909130</ele>
        <time>2024-09-21T21:40:58.495Z</time>
      </trkpt>
      <trkpt lat="48.774902" lon="2.126510">
        <ele>114.319583</ele>
        <time>2024-09-21T21:41:01.268Z</time>
      </trkpt>
      <trkpt lat="48.774819" lon="2.126477">
        <ele>114.925837</ele>
        <time>2024-09-21T21:41:05.331Z</time>
      </trkpt>
      <trkpt lat="48.774353" lon="2.126319">
        <ele>118.299669</ele>
        <time>2024-09-21T21:41:26.135Z</time>
      </trkpt>
      <trkpt lat="48.774257" lon="2.126317">
        <ele>118.978044</ele>
        <time>2024-09-21T21:41:30.449Z</time>
      </trkpt>
      <trkpt lat="48.773805" lon="2.126192">
        <ele>122.224368</ele>
        <time>2024-09-21T21:41:52.800Z</time>
      </trkpt>
      <trkpt lat="48.773773" lon="2.126183">
        <ele>122.454323</ele>
        <time>2024-09-21T21:41:54.521Z</time>
      </trkpt>
      <trkpt lat="48.773700" lon="2.126310">
        <ele>123.239042</ele>
        <time>2024-09-21T21:41:59.763Z</time>
      </trkpt>
      <trkpt lat="48.773016" lon="2.127945">
        <ele>131.392350</ele>
        <time>2024-09-21T21:42:56.620Z</time>
      </trkpt>
      <trkpt lat="48.772959" lon="2.128216">
        <ele>132.577715</ele>
        <time>2024-09-21T21:43:02.287Z</time>
      </trkpt>
      <trkpt lat="48.772929" lon="2.128256">
        <ele>132.830225</ele>
        <time>2024-09-21T21:43:03.383Z</time>
      </trkpt>
      <trkpt lat="48.772912" lon="2.128280">
        <ele>132.977041</ele>
        <time>2024-09-21T21:43:04.035Z</time>
      </trkpt>
      <trkpt lat="48.772852" lon="2.128247">
        <ele>133.380559</ele>
        <time>2024-09-21T21:43:06.074Z</time>
      </trkpt>
      <trkpt lat="48.772835" lon="2.128181">
        <ele>133.675839</ele>
        <time>2024-09-21T21:43:07.493Z</time>
      </trkpt>
      <trkpt lat="48.773228" lon="2.126340">
        <ele>140.019492</ele>
        <time>2024-09-21T21:43:49.766Z</time>
      </trkpt>
      <trkpt lat="48.773229" lon="2.126058">
        <ele>140.875415</ele>
        <time>2024-09-21T21:43:56.490Z</time>
      </trkpt>
      <trkpt lat="48.773158" lon="2.125627">
        <ele>142.223810</ele>
        <time>2024-09-21T21:44:06.656Z</time>
      </trkpt>
      <trkpt lat="48.773084" lon="2.125470">
        <ele>142.809654</ele>
        <time>2024-09-21T21:44:10.843Z</time>
      </trkpt>
      <trkpt lat="48.772713" lon="2.125302">
        <ele>144.290907</ele>
        <time>2024-09-21T21:44:23.265Z</time>
      </trkpt>
      <trkpt lat="48.772641" lon="2.125226">
        <ele>144.559773</ele>
        <time>2024-09-21T21:44:25.994Z</time>
      </trkpt>
      <trkpt lat="48.772338" lon="2.124696">
        <ele>145.977246</ele>
        <time>2024-09-21T21:44:39.850Z</time>
      </trkpt>
      <trkpt lat="48.772200" lon="2.124543">
        <ele>146.501175</ele>
        <time>2024-09-21T21:44:44.725Z</time>
      </trkpt>
      <trkpt lat="48.771724" lon="2.124269">
        <ele>148.061802</ele>
        <time>2024-09-21T21:44:57.587Z</time>
      </trkpt>
      <trkpt lat="48.771473" lon="2.124129">
        <ele>148.881569</ele>
        <time>2024-09-21T21:45:03.503Z</time>
      </trkpt>
      <trkpt lat="48.771483" lon="2.124019">
        <ele>149.105909</ele>
        <time>2024-09-21T21:45:05.002Z</time>
      </trkpt>
      <trkpt lat="48.771428" lon="2.123945">
        <ele>149.265302</ele>
        <time>2024-09-21T21:45:06.489Z</time>
      </trkpt>
      <trkpt lat="48.771401" lon="2.123446">
        <ele>149.753622</ele>
        <time>2024-09-21T21:45:15.016Z</time>
      </trkpt>
      <trkpt lat="48.771389" lon="2.123275">
        <ele>149.921344</ele>
        <time>2024-09-21T21:45:17.963Z</time>
      </trkpt>
      <trkpt lat="48.771408" lon="2.123108">
        <ele>150.086631</ele>
        <time>2024-09-21T21:45:20.828Z</time>
      </trkpt>
      <trkpt lat="48.771760" lon="2.121878">
        <ele>151.394479</ele>
        <time>2024-09-21T21:45:43.836Z</time>
      </trkpt>
      <trkpt lat="48.771659" lon="2.121749">
        <ele>151.589848</ele>
        <time>2024-09-21T21:45:46.533Z</time>
      </trkpt>
      <trkpt lat="48.771219" lon="2.121449">
        <ele>152.313367</ele>
        <time>2024-09-21T21:45:56.340Z</time>
      </trkpt>
      <trkpt lat="48.771180" lon="2.121423">
        <ele>152.377797</ele>
        <time>2024-09-21T21:45:57.201Z</time>
      </trkpt>
      <trkpt lat="48.771109" lon="2.121370">
        <ele>152.497477</ele>
        <time>2024-09-21T21:45:59.242Z</time>
      </trkpt>
      <trkpt lat="48.771077" lon="2.121347">
        <ele>152.551032</ele>
        <time>2024-09-21T21:46:00.166Z</time>
      </trkpt>
      <trkpt lat="48.770937" lon="2.121244">
        <ele>152.786361</ele>
        <time>2024-09-21T21:46:04.192Z</time>
      </trkpt>
      <trkpt lat="48.770265" lon="2.120727">
        <ele>153.925948</ele>
        <time>2024-09-21T21:46:24.119Z</time>
      </trkpt>
      <trkpt lat="48.769135" lon="2.119844">
        <ele>155.965231</ele>
        <time>2024-09-21T21:46:51.068Z</time>
      </trkpt>
      <trkpt lat="48.769130" lon="2.119768">
        <ele>156.048414</ele>
        <time>2024-09-21T21:46:52.111Z</time>
      </trkpt>
      <trkpt lat="48.769068" lon="2.119637">
        <ele>156.224062</ele>
        <time>2024-09-21T21:46:54.501Z</time>
      </trkpt>
      <trkpt lat="48.769010" lon="2.119614">
        <ele>156.323123</ele>
        <time>2024-09-21T21:46:55.885Z</time>
      </trkpt>
      <trkpt lat="48.768978" lon="2.119660">
        <ele>156.395965</ele>
        <time>2024-09-21T21:46:56.818Z</time>
      </trkpt>
      <trkpt lat="48.768597" lon="2.119367">
        <ele>157.101799</ele>
        <time>2024-09-21T21:47:05.813Z</time>
      </trkpt>
      <trkpt lat="48.768358" lon="2.119181">
        <ele>157.545656</ele>
        <time>2024-09-21T21:47:11.706Z</time>
      </trkpt>
      <trkpt lat="48.768253" lon="2.119098">
        <ele>157.733480</ele>
        <time>2024-09-21T21:47:14.050Z</time>
      </trkpt>
      <trkpt lat="48.768013" lon="2.118890">
        <ele>158.170720</ele>
        <time>2024-09-21T21:47:20.202Z</time>
      </trkpt>
      <trkpt lat="48.768025" lon="2.118802">
        <ele>158.264418</ele>
        <time>2024-09-21T21:47:21.389Z</time>
      </trkpt>
      <trkpt lat="48.768003" lon="2.118727">
        <ele>158.350012</ele>
        <time>2024-09-21T21:47:22.541Z</time>
      </trkpt>
      <trkpt lat="48.767956" lon="2.118684">
        <ele>158.436835</ele>
        <time>2024-09-21T21:47:23.796Z</time>
      </trkpt>
      <trkpt lat="48.767899" lon="2.118691">
        <ele>158.527300</ele>
        <time>2024-09-21T21:47:25.137Z</time>
      </trkpt>
      <trkpt lat="48.767749" lon="2.118595">
        <ele>158.784837</ele>
        <time>2024-09-21T21:47:28.769Z</time>
      </trkpt>
      <trkpt lat="48.767587" lon="2.118442">
        <ele>159.086707</ele>
        <time>2024-09-21T21:47:32.978Z</time>
      </trkpt>
      <trkpt lat="48.767458" lon="2.118286">
        <ele>159.347670</ele>
        <time>2024-09-21T21:47:36.517Z</time>
      </trkpt>
      <trkpt lat="48.767418" lon="2.118238">
        <ele>159.428347</ele>
        <time>2024-09-21T21:47:37.504Z</time>
      </trkpt>
      <trkpt lat="48.767207" lon="2.117992">
        <ele>159.849306</ele>
        <time>2024-09-21T21:47:43.167Z</time>
      </trkpt>
      <trkpt lat="48.766886" lon="2.117620">
        <ele>160.445834</ele>
        <time>2024-09-21T21:47:51.252Z</time>
      </trkpt>
      <trkpt lat="48.766515" lon="2.117185">
        <ele>160.816670</ele>
        <time>2024-09-21T21:48:00.472Z</time>
      </trkpt>
      <trkpt lat="48.765882" lon="2.116432">
        <ele>161.452852</ele>
        <time>2024-09-21T21:48:15.262Z</time>
      </trkpt>
      <trkpt lat="48.765700" lon="2.116232">
        <ele>161.630588</ele>
        <time>2024-09-21T21:48:19.041Z</time>
      </trkpt>
      <trkpt lat="48.765618" lon="2.116129">
        <ele>161.714785</ele>
        <time>2024-09-21T21:48:20.822Z</time>
      </trkpt>
      <trkpt lat="48.765088" lon="2.115519">
        <ele>161.672288</ele>
        <time>2024-09-21T21:48:30.370Z</time>
      </trkpt>
      <trkpt lat="48.764984" lon="2.115396">
        <ele>161.633680</ele>
        <time>2024-09-21T21:48:32.158Z</time>
      </trkpt>
      <trkpt lat="48.764669" lon="2.115028">
        <ele>161.517283</ele>
        <time>2024-09-21T21:48:37.578Z</time>
      </trkpt>
      <trkpt lat="48.764643" lon="2.114994">
        <ele>161.507233</ele>
        <time>2024-09-21T21:48:38.048Z</time>
      </trkpt>
      <trkpt lat="48.764542" lon="2.114890">
        <ele>161.471496</ele>
        <time>2024-09-21T21:48:40.334Z</time>
      </trkpt>
      <trkpt lat="48.764401" lon="2.114926">
        <ele>161.429634</ele>
        <time>2024-09-21T21:48:43.061Z</time>
      </trkpt>
      <trkpt lat="48.764140" lon="2.115395">
        <ele>161.311183</ele>
        <time>2024-09-21T21:48:48.399Z</time>
      </trkpt>
      <trkpt lat="48.763915" lon="2.115848">
        <ele>161.049250</ele>
        <time>2024-09-21T21:48:53.227Z</time>
      </trkpt>
      <trkpt lat="48.763659" lon="2.116357">
        <ele>160.732684</ele>
        <time>2024-09-21T21:49:00.765Z</time>
      </trkpt>
      <trkpt lat="48.763286" lon="2.117147">
        <ele>160.252202</ele>
        <time>2024-09-21T21:49:12.036Z</time>
      </trkpt>
      <trkpt lat="48.763207" lon="2.117335">
        <ele>160.141963</ele>
        <time>2024-09-21T21:49:14.640Z</time>
      </trkpt>
      <trkpt lat="48.763078" lon="2.117675">
        <ele>159.947755</ele>
        <time>2024-09-21T21:49:19.239Z</time>
      </trkpt>
      <trkpt lat="48.762985" lon="2.117962">
        <ele>159.772453</ele>
        <time>2024-09-21T21:49:23.048Z</time>
      </trkpt>
      <trkpt lat="48.762730" lon="2.118788">
        <ele>159.272476</ele>
        <time>2024-09-21T21:49:33.821Z</time>
      </trkpt>
      <trkpt lat="48.762585" lon="2.119064">
        <ele>159.079011</ele>
        <time>2024-09-21T21:49:37.922Z</time>
      </trkpt>
      <trkpt lat="48.762441" lon="2.119509">
        <ele>158.807271</ele>
        <time>2024-09-21T21:49:43.565Z</time>
      </trkpt>
      <trkpt lat="48.762360" lon="2.119775">
        <ele>158.646653</ele>
        <time>2024-09-21T21:49:46.941Z</time>
      </trkpt>
      <trkpt lat="48.762294" lon="2.119965">
        <ele>158.528925</ele>
        <time>2024-09-21T21:49:49.414Z</time>
      </trkpt>
      <trkpt lat="48.762234" lon="2.120150">
        <ele>158.424757</ele>
        <time>2024-09-21T21:49:51.822Z</time>
      </trkpt>
      <trkpt lat="48.762103" lon="2.120576">
        <ele>158.226291</ele>
        <time>2024-09-21T21:49:57.362Z</time>
      </trkpt>
      <trkpt lat="48.762041" lon="2.120933">
        <ele>158.070421</ele>
        <time>2024-09-21T21:50:01.748Z</time>
      </trkpt>
      <trkpt lat="48.761842" lon="2.121558">
        <ele>157.777374</ele>
        <time>2024-09-21T21:50:10.101Z</time>
      </trkpt>
      <trkpt lat="48.761750" lon="2.121847">
        <ele>157.641874</ele>
        <time>2024-09-21T21:50:14.057Z</time>
      </trkpt>
      <trkpt lat="48.761725" lon="2.121926">
        <ele>157.604875</ele>
        <time>2024-09-21T21:50:15.138Z</time>
      </trkpt>
      <trkpt lat="48.761488" lon="2.122650">
        <ele>157.264623</ele>
        <time>2024-09-21T21:50:22.120Z</time>
      </trkpt>
      <trkpt lat="48.761330" lon="2.123141">
        <ele>157.040118</ele>
        <time>2024-09-21T21:50:26.834Z</time>
      </trkpt>
      <trkpt lat="48.761209" lon="2.123523">
        <ele>156.865974</ele>
        <time>2024-09-21T21:50:30.527Z</time>
      </trkpt>
      <trkpt lat="48.761085" lon="2.123926">
        <ele>156.683232</ele>
        <time>2024-09-21T21:50:34.495Z</time>
      </trkpt>
      <trkpt lat="48.761049" lon="2.124048">
        <ele>156.628309</ele>
        <time>2024-09-21T21:50:35.662Z</time>
      </trkpt>
      <trkpt lat="48.760926" lon="2.124398">
        <ele>156.465334</ele>
        <time>2024-09-21T21:50:39.104Z</time>
      </trkpt>
      <trkpt lat="48.760856" lon="2.124522">
        <ele>156.398252</ele>
        <time>2024-09-21T21:50:40.492Z</time>
      </trkpt>
      <trkpt lat="48.760753" lon="2.124564">
        <ele>156.331770</ele>
        <time>2024-09-21T21:50:41.868Z</time>
      </trkpt>
      <trkpt lat="48.760624" lon="2.124499">
        <ele>156.247041</ele>
        <time>2024-09-21T21:50:43.612Z</time>
      </trkpt>
      <trkpt lat="48.759325" lon="2.123569">
        <ele>154.513466</ele>
        <time>2024-09-21T21:51:00.954Z</time>
      </trkpt>
      <trkpt lat="48.758797" lon="2.123252">
        <ele>153.752102</ele>
        <time>2024-09-21T21:51:07.308Z</time>
      </trkpt>
      <trkpt lat="48.757677" lon="2.122429">
        <ele>151.573878</ele>
        <time>2024-09-21T21:51:21.169Z</time>
      </trkpt>
      <trkpt lat="48.757451" lon="2.122269">
        <ele>151.137350</ele>
        <time>2024-09-21T21:51:23.950Z</time>
      </trkpt>
      <trkpt lat="48.756062" lon="2.121255">
        <ele>148.762772</ele>
        <time>2024-09-21T21:51:41.589Z</time>
      </trkpt>
      <trkpt lat="48.755657" lon="2.120980">
        <ele>148.093491</ele>
        <time>2024-09-21T21:51:46.827Z</time>
      </trkpt>
      <trkpt lat="48.755353" lon="2.120815">
        <ele>147.773495</ele>
        <time>2024-09-21T21:51:50.629Z</time>
      </trkpt>
      <trkpt lat="48.754863" lon="2.120647">
        <ele>147.291028</ele>
        <time>2024-09-21T21:51:56.517Z</time>
      </trkpt>
      <trkpt lat="48.753285" lon="2.120392">
        <ele>146.497319</ele>
        <time>2024-09-21T21:52:16.905Z</time>
      </trkpt>
      <trkpt lat="48.752667" lon="2.120306">
        <ele>146.662524</ele>
        <time>2024-09-21T21:52:26.876Z</time>
      </trkpt>
      <trkpt lat="48.750659" lon="2.120026">
        <ele>148.772296</ele>
        <time>2024-09-21T21:53:06.482Z</time>
      </trkpt>
      <trkpt lat="48.750350" lon="2.119985">
        <ele>149.195141</ele>
        <time>2024-09-21T21:53:13.288Z</time>
      </trkpt>
      <trkpt lat="48.750159" lon="2.119991">
        <ele>149.524591</ele>
        <time>2024-09-21T21:53:17.545Z</time>
      </trkpt>
      <trkpt lat="48.750096" lon="2.119962">
        <ele>149.647646</ele>
        <time>2024-09-21T21:53:19.116Z</time>
      </trkpt>
      <trkpt lat="48.749966" lon="2.119980">
        <ele>149.891634</ele>
        <time>2024-09-21T21:53:22.109Z</time>
      </trkpt>
      <trkpt lat="48.749923" lon="2.120012">
        <ele>149.981157</ele>
        <time>2024-09-21T21:53:23.137Z</time>
      </trkpt>
      <trkpt lat="48.749722" lon="2.119886">
        <ele>150.387663</ele>
        <time>2024-09-21T21:53:28.207Z</time>
      </trkpt>
      <trkpt lat="48.749527" lon="2.119845">
        <ele>150.755614</ele>
        <time>2024-09-21T21:53:32.575Z</time>
      </trkpt>
      <trkpt lat="48.749311" lon="2.119765">
        <ele>151.171194</ele>
        <time>2024-09-21T21:53:38.949Z</time>
      </trkpt>
      <trkpt lat="48.749117" lon="2.119693">
        <ele>151.544490</ele>
        <time>2024-09-21T21:53:44.397Z</time>
      </trkpt>
      <trkpt lat="48.748628" lon="2.119379">
        <ele>152.537004</ele>
        <time>2024-09-21T21:53:59.073Z</time>
      </trkpt>
      <trkpt lat="48.748289" lon="2.119024">
        <ele>153.097406</ele>
        <time>2024-09-21T21:54:10.376Z</time>
      </trkpt>
      <trkpt lat="48.748043" lon="2.118706">
        <ele>153.514155</ele>
        <time>2024-09-21T21:54:19.030Z</time>
      </trkpt>
      <trkpt lat="48.747843" lon="2.118366">
        <ele>153.901503</ele>
        <time>2024-09-21T21:54:26.741Z</time>
      </trkpt>
      <trkpt lat="48.747634" lon="2.117866">
        <ele>154.404785</ele>
        <time>2024-09-21T21:54:36.412Z</time>
      </trkpt>
      <trkpt lat="48.747687" lon="2.117796">
        <ele>154.495399</ele>
        <time>2024-09-21T21:54:37.654Z</time>
      </trkpt>
      <trkpt lat="48.747711" lon="2.117653">
        <ele>154.620844</ele>
        <time>2024-09-21T21:54:39.370Z</time>
      </trkpt>
      <trkpt lat="48.747682" lon="2.117525">
        <ele>154.735906</ele>
        <time>2024-09-21T21:54:40.984Z</time>
      </trkpt>
      <trkpt lat="48.747617" lon="2.117442">
        <ele>154.845460</ele>
        <time>2024-09-21T21:54:42.457Z</time>
      </trkpt>
      <trkpt lat="48.747527" lon="2.117407">
        <ele>154.959450</ele>
        <time>2024-09-21T21:54:44.090Z</time>
      </trkpt>
      <trkpt lat="48.747469" lon="2.117284">
        <ele>155.038032</ele>
        <time>2024-09-21T21:54:45.860Z</time>
      </trkpt>
      <trkpt lat="48.747336" lon="2.117019">
        <ele>155.211097</ele>
        <time>2024-09-21T21:54:49.733Z</time>
      </trkpt>
      <trkpt lat="48.747226" lon="2.116921">
        <ele>155.311641</ele>
        <time>2024-09-21T21:54:51.956Z</time>
      </trkpt>
      <trkpt lat="48.747014" lon="2.116364">
        <ele>155.645858</ele>
        <time>2024-09-21T21:54:59.576Z</time>
      </trkpt>
      <trkpt lat="48.746886" lon="2.115926">
        <ele>155.894827</ele>
        <time>2024-09-21T21:55:05.237Z</time>
      </trkpt>
      <trkpt lat="48.746804" lon="2.115705">
        <ele>156.026608</ele>
        <time>2024-09-21T21:55:08.310Z</time>
      </trkpt>
      <trkpt lat="48.746762" lon="2.115594">
        <ele>156.093114</ele>
        <time>2024-09-21T21:55:09.989Z</time>
      </trkpt>
      <trkpt lat="48.746384" lon="2.114782">
        <ele>156.594026</ele>
        <time>2024-09-21T21:55:21.543Z</time>
      </trkpt>
      <trkpt lat="48.746174" lon="2.114447">
        <ele>156.818709</ele>
        <time>2024-09-21T21:55:27.056Z</time>
      </trkpt>
      <trkpt lat="48.746142" lon="2.114383">
        <ele>156.857752</ele>
        <time>2024-09-21T21:55:28.078Z</time>
      </trkpt>
      <trkpt lat="48.746136" lon="2.114249">
        <ele>156.923038</ele>
        <time>2024-09-21T21:55:29.871Z</time>
      </trkpt>
      <trkpt lat="48.746136" lon="2.114249">
        <ele>156.923038</ele>
        <time>2024-09-21T21:55:29.883Z</time>
      </trkpt>
      <trkpt lat="48.746136" lon="2.114249">
        <ele>156.923038</ele>
        <time>2024-09-21T21:55:29.883Z</time>
      </trkpt>
      <trkpt lat="48.746140" lon="2.114380">
        <ele>156.986784</ele>
        <time>2024-09-21T21:55:31.485Z</time>
      </trkpt>
      <trkpt lat="48.746120" lon="2.114260">
        <ele>157.046950</ele>
        <time>2024-09-21T21:55:32.998Z</time>
      </trkpt>
      <trkpt lat="48.746150" lon="2.114180">
        <ele>157.091686</ele>
        <time>2024-09-21T21:55:34.122Z</time>
      </trkpt>
      <trkpt lat="48.746150" lon="2.114030">
        <ele>157.164600</ele>
        <time>2024-09-21T21:55:35.956Z</time>
      </trkpt>
      <trkpt lat="48.746060" lon="2.113650">
        <ele>157.360869</ele>
        <time>2024-09-21T21:55:40.890Z</time>
      </trkpt>
      <trkpt lat="48.746060" lon="2.113120">
        <ele>157.618498</ele>
        <time>2024-09-21T21:55:47.367Z</time>
      </trkpt>
      <trkpt lat="48.746040" lon="2.113100">
        <ele>157.636159</ele>
        <time>2024-09-21T21:55:47.811Z</time>
      </trkpt>
      <trkpt lat="48.745900" lon="2.113090">
        <ele>157.726297</ele>
        <time>2024-09-21T21:55:50.408Z</time>
      </trkpt>
      <trkpt lat="48.745960" lon="2.112130">
        <ele>158.059831</ele>
        <time>2024-09-21T21:56:02.192Z</time>
      </trkpt>
      <trkpt lat="48.745962" lon="2.112140">
        <ele>158.063446</ele>
        <time>2024-09-21T21:56:02.313Z</time>
      </trkpt>
      <trkpt lat="48.746004" lon="2.111914">
        <ele>158.144660</ele>
        <time>2024-09-21T21:56:04.850Z</time>
      </trkpt>
      <trkpt lat="48.746026" lon="2.111818">
        <ele>158.179812</ele>
        <time>2024-09-21T21:56:05.862Z</time>
      </trkpt>
      <trkpt lat="48.746016" lon="2.111782">
        <ele>158.193324</ele>
        <time>2024-09-21T21:56:06.272Z</time>
      </trkpt>
      <trkpt lat="48.746069" lon="2.111648">
        <ele>158.247370</ele>
        <time>2024-09-21T21:56:07.886Z</time>
      </trkpt>
      <trkpt lat="48.746065" lon="2.111569">
        <ele>158.274775</ele>
        <time>2024-09-21T21:56:08.994Z</time>
      </trkpt>
      <trkpt lat="48.746097" lon="2.111037">
        <ele>158.459547</ele>
        <time>2024-09-21T21:56:14.909Z</time>
      </trkpt>
      <trkpt lat="48.746070" lon="2.108658">
        <ele>159.149510</ele>
        <time>2024-09-21T21:56:40.927Z</time>
      </trkpt>
      <trkpt lat="48.746044" lon="2.108082">
        <ele>159.308042</ele>
        <time>2024-09-21T21:56:47.274Z</time>
      </trkpt>
      <trkpt lat="48.745936" lon="2.107663">
        <ele>159.404907</ele>
        <time>2024-09-21T21:56:52.140Z</time>
      </trkpt>
      <trkpt lat="48.745723" lon="2.107287">
        <ele>159.460971</ele>
        <time>2024-09-21T21:56:57.404Z</time>
      </trkpt>
      <trkpt lat="48.745072" lon="2.106413">
        <ele>159.610099</ele>
        <time>2024-09-21T21:57:10.995Z</time>
      </trkpt>
      <trkpt lat="48.742879" lon="2.103468">
        <ele>159.579072</ele>
        <time>2024-09-21T21:57:54.197Z</time>
      </trkpt>
      <trkpt lat="48.741755" lon="2.101950">
        <ele>159.181789</ele>
        <time>2024-09-21T21:58:15.056Z</time>
      </trkpt>
      <trkpt lat="48.741510" lon="2.101529">
        <ele>158.981284</ele>
        <time>2024-09-21T21:58:20.105Z</time>
      </trkpt>
      <trkpt lat="48.741219" lon="2.100791">
        <ele>158.674228</ele>
        <time>2024-09-21T21:58:27.616Z</time>
      </trkpt>
      <trkpt lat="48.740877" lon="2.099546">
        <ele>158.152523</ele>
        <time>2024-09-21T21:58:38.857Z</time>
      </trkpt>
      <trkpt lat="48.740747" lon="2.098858">
        <ele>157.846061</ele>
        <time>2024-09-21T21:58:44.855Z</time>
      </trkpt>
      <trkpt lat="48.740681" lon="2.098333">
        <ele>157.617203</ele>
        <time>2024-09-21T21:58:49.378Z</time>
      </trkpt>
      <trkpt lat="48.740681" lon="2.098330">
        <ele>157.615918</ele>
        <time>2024-09-21T21:58:49.407Z</time>
      </trkpt>
      <trkpt lat="48.740677" lon="2.098158">
        <ele>157.542220</ele>
        <time>2024-09-21T21:58:50.859Z</time>
      </trkpt>
      <trkpt lat="48.740759" lon="2.097793">
        <ele>157.377103</ele>
        <time>2024-09-21T21:58:54.169Z</time>
      </trkpt>
      <trkpt lat="48.740756" lon="2.097756">
        <ele>157.361140</ele>
        <time>2024-09-21T21:58:54.496Z</time>
      </trkpt>
      <trkpt lat="48.740597" lon="2.097444">
        <ele>157.211601</ele>
        <time>2024-09-21T21:58:57.846Z</time>
      </trkpt>
      <trkpt lat="48.740558" lon="2.097275">
        <ele>157.178820</ele>
        <time>2024-09-21T21:58:59.460Z</time>
      </trkpt>
      <trkpt lat="48.740526" lon="2.097114">
        <ele>157.148035</ele>
        <time>2024-09-21T21:59:00.916Z</time>
      </trkpt>
      <trkpt lat="48.740564" lon="2.096936">
        <ele>157.113781</ele>
        <time>2024-09-21T21:59:02.553Z</time>
      </trkpt>
      <trkpt lat="48.740560" lon="2.096842">
        <ele>157.096536</ele>
        <time>2024-09-21T21:59:03.445Z</time>
      </trkpt>
      <trkpt lat="48.740521" lon="2.096698">
        <ele>157.068036</ele>
        <time>2024-09-21T21:59:04.856Z</time>
      </trkpt>
      <trkpt lat="48.740448" lon="2.096590">
        <ele>157.039722</ele>
        <time>2024-09-21T21:59:06.245Z</time>
      </trkpt>
      <trkpt lat="48.740348" lon="2.096523">
        <ele>157.009371</ele>
        <time>2024-09-21T21:59:07.743Z</time>
      </trkpt>
      <trkpt lat="48.740269" lon="2.096533">
        <ele>156.987362</ele>
        <time>2024-09-21T21:59:08.914Z</time>
      </trkpt>
      <trkpt lat="48.740124" lon="2.096452">
        <ele>156.944463</ele>
        <time>2024-09-21T21:59:11.091Z</time>
      </trkpt>
      <trkpt lat="48.739989" lon="2.096373">
        <ele>156.904291</ele>
        <time>2024-09-21T21:59:13.179Z</time>
      </trkpt>
      <trkpt lat="48.739702" lon="2.095912">
        <ele>156.788222</ele>
        <time>2024-09-21T21:59:19.427Z</time>
      </trkpt>
      <trkpt lat="48.739505" lon="2.095604">
        <ele>156.673521</ele>
        <time>2024-09-21T21:59:23.476Z</time>
      </trkpt>
      <trkpt lat="48.739142" lon="2.094965">
        <ele>156.191104</ele>
        <time>2024-09-21T21:59:31.001Z</time>
      </trkpt>
      <trkpt lat="48.739006" lon="2.094787">
        <ele>156.035280</ele>
        <time>2024-09-21T21:59:33.335Z</time>
      </trkpt>
      <trkpt lat="48.738829" lon="2.094614">
        <ele>155.852630</ele>
        <time>2024-09-21T21:59:35.950Z</time>
      </trkpt>
      <trkpt lat="48.738667" lon="2.094473">
        <ele>155.690618</ele>
        <time>2024-09-21T21:59:38.280Z</time>
      </trkpt>
      <trkpt lat="48.738316" lon="2.094161">
        <ele>155.337725</ele>
        <time>2024-09-21T21:59:43.106Z</time>
      </trkpt>
      <trkpt lat="48.738156" lon="2.094019">
        <ele>155.176926</ele>
        <time>2024-09-21T21:59:45.262Z</time>
      </trkpt>
      <trkpt lat="48.738135" lon="2.093999">
        <ele>155.133857</ele>
        <time>2024-09-21T21:59:45.544Z</time>
      </trkpt>
      <trkpt lat="48.738112" lon="2.093976">
        <ele>155.064040</ele>
        <time>2024-09-21T21:59:45.871Z</time>
      </trkpt>
      <trkpt lat="48.738097" lon="2.093963">
        <ele>155.020259</ele>
        <time>2024-09-21T21:59:46.069Z</time>
      </trkpt>
      <trkpt lat="48.738005" lon="2.093883">
        <ele>154.751510</ele>
        <time>2024-09-21T21:59:47.236Z</time>
      </trkpt>
      <trkpt lat="48.737851" lon="2.093752">
        <ele>154.304049</ele>
        <time>2024-09-21T21:59:49.189Z</time>
      </trkpt>
      <trkpt lat="48.737709" lon="2.093596">
        <ele>153.859693</ele>
        <time>2024-09-21T21:59:51.087Z</time>
      </trkpt>
      <trkpt lat="48.737328" lon="2.092888">
        <ele>152.332544</ele>
        <time>2024-09-21T21:59:57.612Z</time>
      </trkpt>
      <trkpt lat="48.737074" lon="2.092501">
        <ele>151.420076</ele>
        <time>2024-09-21T22:00:01.462Z</time>
      </trkpt>
      <trkpt lat="48.736798" lon="2.092064">
        <ele>150.052328</ele>
        <time>2024-09-21T22:00:05.453Z</time>
      </trkpt>
      <trkpt lat="48.736488" lon="2.091575">
        <ele>146.897073</ele>
        <time>2024-09-21T22:00:09.649Z</time>
      </trkpt>
      <trkpt lat="48.736437" lon="2.091458">
        <ele>146.244666</ele>
        <time>2024-09-21T22:00:10.520Z</time>
      </trkpt>
      <trkpt lat="48.736373" lon="2.091328">
        <ele>145.490014</ele>
        <time>2024-09-21T22:00:11.493Z</time>
      </trkpt>
      <trkpt lat="48.736283" lon="2.091240">
        <ele>144.734657</ele>
        <time>2024-09-21T22:00:12.451Z</time>
      </trkpt>
      <trkpt lat="48.736145" lon="2.091200">
        <ele>143.743658</ele>
        <time>2024-09-21T22:00:13.711Z</time>
      </trkpt>
      <trkpt lat="48.735837" lon="2.091160">
        <ele>141.563248</ele>
        <time>2024-09-21T22:00:16.436Z</time>
      </trkpt>
      <trkpt lat="48.735780" lon="2.091167">
        <ele>141.159886</ele>
        <time>2024-09-21T22:00:16.948Z</time>
      </trkpt>
      <trkpt lat="48.735577" lon="2.091254">
        <ele>139.671940</ele>
        <time>2024-09-21T22:00:18.793Z</time>
      </trkpt>
      <trkpt lat="48.734915" lon="2.091427">
        <ele>133.370026</ele>
        <time>2024-09-21T22:00:24.560Z</time>
      </trkpt>
      <trkpt lat="48.734420" lon="2.091483">
        <ele>128.036909</ele>
        <time>2024-09-21T22:00:28.758Z</time>
      </trkpt>
      <trkpt lat="48.734150" lon="2.091414">
        <ele>125.095082</ele>
        <time>2024-09-21T22:00:31.069Z</time>
      </trkpt>
      <trkpt lat="48.733963" lon="2.091250">
        <ele>122.774029</ele>
        <time>2024-09-21T22:00:32.915Z</time>
      </trkpt>
      <trkpt lat="48.733763" lon="2.091073">
        <ele>120.285925</ele>
        <time>2024-09-21T22:00:34.897Z</time>
      </trkpt>
      <trkpt lat="48.733648" lon="2.091029">
        <ele>119.011618</ele>
        <time>2024-09-21T22:00:35.918Z</time>
      </trkpt>
      <trkpt lat="48.733619" lon="2.091032">
        <ele>118.699315</ele>
        <time>2024-09-21T22:00:36.164Z</time>
      </trkpt>
      <trkpt lat="48.733477" lon="2.091111">
        <ele>117.659919</ele>
        <time>2024-09-21T22:00:37.467Z</time>
      </trkpt>
      <trkpt lat="48.733370" lon="2.091317">
        <ele>116.516330</ele>
        <time>2024-09-21T22:00:38.996Z</time>
      </trkpt>
      <trkpt lat="48.733348" lon="2.091502">
        <ele>115.696470</ele>
        <time>2024-09-21T22:00:40.071Z</time>
      </trkpt>
      <trkpt lat="48.733379" lon="2.091671">
        <ele>114.931428</ele>
        <time>2024-09-21T22:00:41.100Z</time>
      </trkpt>
      <trkpt lat="48.733440" lon="2.091819">
        <ele>114.170281</ele>
        <time>2024-09-21T22:00:42.125Z</time>
      </trkpt>
      <trkpt lat="48.733500" lon="2.092120">
        <ele>112.798873</ele>
        <time>2024-09-21T22:00:43.952Z</time>
      </trkpt>
      <trkpt lat="48.733430" lon="2.092614">
        <ele>110.595209</ele>
        <time>2024-09-21T22:00:46.966Z</time>
      </trkpt>
      <trkpt lat="48.733390" lon="2.092677">
        <ele>110.213822</ele>
        <time>2024-09-21T22:00:47.514Z</time>
      </trkpt>
      <trkpt lat="48.733259" lon="2.092538">
        <ele>109.156526</ele>
        <time>2024-09-21T22:00:48.985Z</time>
      </trkpt>
      <trkpt lat="48.732807" lon="2.092269">
        <ele>106.607051</ele>
        <time>2024-09-21T22:00:53.925Z</time>
      </trkpt>
      <trkpt lat="48.732421" lon="2.092065">
        <ele>106.261868</ele>
        <time>2024-09-21T22:00:58.614Z</time>
      </trkpt>
      <trkpt lat="48.731785" lon="2.091876">
        <ele>105.714595</ele>
        <time>2024-09-21T22:01:07.243Z</time>
      </trkpt>
      <trkpt lat="48.731759" lon="2.091869">
        <ele>105.692297</ele>
        <time>2024-09-21T22:01:07.641Z</time>
      </trkpt>
      <trkpt lat="48.731713" lon="2.091857">
        <ele>105.652883</ele>
        <time>2024-09-21T22:01:08.333Z</time>
      </trkpt>
      <trkpt lat="48.731552" lon="2.091832">
        <ele>105.516219</ele>
        <time>2024-09-21T22:01:10.794Z</time>
      </trkpt>
      <trkpt lat="48.731234" lon="2.091911">
        <ele>105.244111</ele>
        <time>2024-09-21T22:01:15.887Z</time>
      </trkpt>
      <trkpt lat="48.731011" lon="2.092568">
        <ele>105.330730</ele>
        <time>2024-09-21T22:01:24.648Z</time>
      </trkpt>
      <trkpt lat="48.730962" lon="2.092721">
        <ele>105.369879</ele>
        <time>2024-09-21T22:01:26.821Z</time>
      </trkpt>
      <trkpt lat="48.730519" lon="2.094016">
        <ele>105.705668</ele>
        <time>2024-09-21T22:01:43.788Z</time>
      </trkpt>
      <trkpt lat="48.730505" lon="2.094060">
        <ele>105.716913</ele>
        <time>2024-09-21T22:01:44.358Z</time>
      </trkpt>
      <trkpt lat="48.730070" lon="2.095403">
        <ele>105.076127</ele>
        <time>2024-09-21T22:01:56.823Z</time>
      </trkpt>
      <trkpt lat="48.729939" lon="2.096246">
        <ele>104.485366</ele>
        <time>2024-09-21T22:02:03.431Z</time>
      </trkpt>
      <trkpt lat="48.729864" lon="2.096501">
        <ele>104.294920</ele>
        <time>2024-09-21T22:02:05.514Z</time>
      </trkpt>
      <trkpt lat="48.728626" lon="2.099207">
        <ele>102.450186</ele>
        <time>2024-09-21T22:02:31.654Z</time>
      </trkpt>
      <trkpt lat="48.727593" lon="2.101820">
        <ele>104.976202</ele>
        <time>2024-09-21T22:03:13.505Z</time>
      </trkpt>
      <trkpt lat="48.727279" lon="2.103271">
        <ele>106.583293</ele>
        <time>2024-09-21T22:03:37.151Z</time>
      </trkpt>
      <trkpt lat="48.727155" lon="2.103574">
        <ele>106.958550</ele>
        <time>2024-09-21T22:03:41.993Z</time>
      </trkpt>
      <trkpt lat="48.727037" lon="2.103760">
        <ele>107.230132</ele>
        <time>2024-09-21T22:03:45.371Z</time>
      </trkpt>
      <trkpt lat="48.726814" lon="2.104005">
        <ele>107.392047</ele>
        <time>2024-09-21T22:03:50.222Z</time>
      </trkpt>
      <trkpt lat="48.726118" lon="2.104552">
        <ele>107.122180</ele>
        <time>2024-09-21T22:04:01.915Z</time>
      </trkpt>
      <trkpt lat="48.725576" lon="2.105383">
        <ele>106.856819</ele>
        <time>2024-09-21T22:04:11.507Z</time>
      </trkpt>
      <trkpt lat="48.724831" lon="2.106109">
        <ele>105.783655</ele>
        <time>2024-09-21T22:04:21.612Z</time>
      </trkpt>
      <trkpt lat="48.724376" lon="2.106482">
        <ele>105.099282</ele>
        <time>2024-09-21T22:04:27.625Z</time>
      </trkpt>
      <trkpt lat="48.723760" lon="2.107090">
        <ele>104.111475</ele>
        <time>2024-09-21T22:04:36.460Z</time>
      </trkpt>
      <trkpt lat="48.723292" lon="2.107665">
        <ele>103.275877</ele>
        <time>2024-09-21T22:04:43.638Z</time>
      </trkpt>
      <trkpt lat="48.722930" lon="2.108151">
        <ele>102.605136</ele>
        <time>2024-09-21T22:04:49.200Z</time>
      </trkpt>
      <trkpt lat="48.721582" lon="2.110194">
        <ele>100.219295</ele>
        <time>2024-09-21T22:05:10.986Z</time>
      </trkpt>
      <trkpt lat="48.721574" lon="2.110207">
        <ele>100.205142</ele>
        <time>2024-09-21T22:05:11.140Z</time>
      </trkpt>
      <trkpt lat="48.718951" lon="2.114178">
        <ele>99.649157</ele>
        <time>2024-09-21T22:06:04.747Z</time>
      </trkpt>
      <trkpt lat="48.718769" lon="2.114503">
        <ele>99.671421</ele>
        <time>2024-09-21T22:06:09.993Z</time>
      </trkpt>
      <trkpt lat="48.718589" lon="2.114909">
        <ele>99.615381</ele>
        <time>2024-09-21T22:06:16.334Z</time>
      </trkpt>
      <trkpt lat="48.718290" lon="2.115673">
        <ele>99.513612</ele>
        <time>2024-09-21T22:06:26.056Z</time>
      </trkpt>
      <trkpt lat="48.718120" lon="2.115954">
        <ele>99.469933</ele>
        <time>2024-09-21T22:06:29.902Z</time>
      </trkpt>
      <trkpt lat="48.717610" lon="2.116544">
        <ele>99.254203</ele>
        <time>2024-09-21T22:06:37.800Z</time>
      </trkpt>
      <trkpt lat="48.716937" lon="2.117477">
        <ele>96.700148</ele>
        <time>2024-09-21T22:06:47.346Z</time>
      </trkpt>
      <trkpt lat="48.716051" lon="2.118403">
        <ele>93.882360</ele>
        <time>2024-09-21T22:06:58.072Z</time>
      </trkpt>
      <trkpt lat="48.715680" lon="2.118347">
        <ele>93.156891</ele>
        <time>2024-09-21T22:07:01.876Z</time>
      </trkpt>
      <trkpt lat="48.715323" lon="2.118151">
        <ele>92.418064</ele>
        <time>2024-09-21T22:07:05.925Z</time>
      </trkpt>
      <trkpt lat="48.715022" lon="2.118043">
        <ele>91.816184</ele>
        <time>2024-09-21T22:07:09.431Z</time>
      </trkpt>
      <trkpt lat="48.714433" lon="2.118222">
        <ele>90.838503</ele>
        <time>2024-09-21T22:07:17.367Z</time>
      </trkpt>
      <trkpt lat="48.714002" lon="2.118406">
        <ele>90.884916</ele>
        <time>2024-09-21T22:07:24.502Z</time>
      </trkpt>
      <trkpt lat="48.713076" lon="2.119031">
        <ele>90.989988</ele>
        <time>2024-09-21T22:07:40.862Z</time>
      </trkpt>
      <trkpt lat="48.712796" lon="2.119267">
        <ele>90.996924</ele>
        <time>2024-09-21T22:07:45.825Z</time>
      </trkpt>
      <trkpt lat="48.712423" lon="2.119692">
        <ele>90.885012</ele>
        <time>2024-09-21T22:07:52.727Z</time>
      </trkpt>
      <trkpt lat="48.712265" lon="2.119813">
        <ele>90.842558</ele>
        <time>2024-09-21T22:07:55.265Z</time>
      </trkpt>
      <trkpt lat="48.712049" lon="2.119881">
        <ele>90.789652</ele>
        <time>2024-09-21T22:07:58.304Z</time>
      </trkpt>
      <trkpt lat="48.709998" lon="2.120201">
        <ele>90.745903</ele>
        <time>2024-09-21T22:08:25.589Z</time>
      </trkpt>
      <trkpt lat="48.709562" lon="2.120122">
        <ele>90.804977</ele>
        <time>2024-09-21T22:08:33.862Z</time>
      </trkpt>
      <trkpt lat="48.709434" lon="2.120131">
        <ele>90.822216</ele>
        <time>2024-09-21T22:08:36.531Z</time>
      </trkpt>
      <trkpt lat="48.709219" lon="2.120265">
        <ele>91.228305</ele>
        <time>2024-09-21T22:08:41.341Z</time>
      </trkpt>
      <trkpt lat="48.709156" lon="2.120204">
        <ele>91.375011</ele>
        <time>2024-09-21T22:08:42.983Z</time>
      </trkpt>
      <trkpt lat="48.709102" lon="2.120248">
        <ele>91.495323</ele>
        <time>2024-09-21T22:08:44.328Z</time>
      </trkpt>
      <trkpt lat="48.709089" lon="2.120309">
        <ele>91.578329</ele>
        <time>2024-09-21T22:08:45.190Z</time>
      </trkpt>
      <trkpt lat="48.708966" lon="2.120347">
        <ele>91.824660</ele>
        <time>2024-09-21T22:08:48.065Z</time>
      </trkpt>
      <trkpt lat="48.708127" lon="2.120851">
        <ele>93.595688</ele>
        <time>2024-09-21T22:09:10.208Z</time>
      </trkpt>
      <trkpt lat="48.708009" lon="2.120896">
        <ele>93.834462</ele>
        <time>2024-09-21T22:09:13.128Z</time>
      </trkpt>
      <trkpt lat="48.707768" lon="2.120925">
        <ele>94.308871</ele>
        <time>2024-09-21T22:09:19.136Z</time>
      </trkpt>
      <trkpt lat="48.707642" lon="2.120894">
        <ele>94.332803</ele>
        <time>2024-09-21T22:09:21.928Z</time>
      </trkpt>
      <trkpt lat="48.707100" lon="2.120733">
        <ele>94.212575</ele>
        <time>2024-09-21T22:09:33.067Z</time>
      </trkpt>
      <trkpt lat="48.706646" lon="2.120557">
        <ele>94.110565</ele>
        <time>2024-09-21T22:09:39.351Z</time>
      </trkpt>
      <trkpt lat="48.706219" lon="2.120529">
        <ele>94.017528</ele>
        <time>2024-09-21T22:09:44.538Z</time>
      </trkpt>
      <trkpt lat="48.706056" lon="2.120464">
        <ele>93.980838</ele>
        <time>2024-09-21T22:09:46.382Z</time>
      </trkpt>
      <trkpt lat="48.705940" lon="2.120366">
        <ele>93.797229</ele>
        <time>2024-09-21T22:09:47.811Z</time>
      </trkpt>
      <trkpt lat="48.705455" lon="2.119612">
        <ele>91.690773</ele>
        <time>2024-09-21T22:09:54.812Z</time>
      </trkpt>
      <trkpt lat="48.705398" lon="2.119519">
        <ele>91.436853</ele>
        <time>2024-09-21T22:09:55.680Z</time>
      </trkpt>
      <trkpt lat="48.705177" lon="2.119163">
        <ele>90.459045</ele>
        <time>2024-09-21T22:09:58.871Z</time>
      </trkpt>
      <trkpt lat="48.705006" lon="2.118709">
        <ele>89.413245</ele>
        <time>2024-09-21T22:10:02.299Z</time>
      </trkpt>
      <trkpt lat="48.704909" lon="2.118640">
        <ele>89.088397</ele>
        <time>2024-09-21T22:10:03.378Z</time>
      </trkpt>
      <trkpt lat="48.704813" lon="2.118664">
        <ele>88.793436</ele>
        <time>2024-09-21T22:10:04.336Z</time>
      </trkpt>
      <trkpt lat="48.704701" lon="2.117764">
        <ele>87.277930</ele>
        <time>2024-09-21T22:10:10.775Z</time>
      </trkpt>
      <trkpt lat="48.704606" lon="2.117013">
        <ele>86.060747</ele>
        <time>2024-09-21T22:10:16.079Z</time>
      </trkpt>
      <trkpt lat="48.704601" lon="2.116973">
        <ele>85.995944</ele>
        <time>2024-09-21T22:10:16.366Z</time>
      </trkpt>
      <trkpt lat="48.704496" lon="2.116056">
        <ele>84.514480</ele>
        <time>2024-09-21T22:10:23.172Z</time>
      </trkpt>
      <trkpt lat="48.704365" lon="2.114987">
        <ele>82.912684</ele>
        <time>2024-09-21T22:10:30.934Z</time>
      </trkpt>
      <trkpt lat="48.704348" lon="2.114854">
        <ele>82.717053</ele>
        <time>2024-09-21T22:10:31.878Z</time>
      </trkpt>
      <trkpt lat="48.704283" lon="2.114312">
        <ele>81.921545</ele>
        <time>2024-09-21T22:10:35.873Z</time>
      </trkpt>
      <trkpt lat="48.704205" lon="2.113627">
        <ele>80.917734</ele>
        <time>2024-09-21T22:10:40.853Z</time>
      </trkpt>
      <trkpt lat="48.704182" lon="2.113411">
        <ele>80.601778</ele>
        <time>2024-09-21T22:10:42.378Z</time>
      </trkpt>
      <trkpt lat="48.704135" lon="2.112942">
        <ele>79.896213</ele>
        <time>2024-09-21T22:10:45.721Z</time>
      </trkpt>
      <trkpt lat="48.704126" lon="2.112839">
        <ele>79.736564</ele>
        <time>2024-09-21T22:10:46.441Z</time>
      </trkpt>
      <trkpt lat="48.704103" lon="2.112659">
        <ele>79.454843</ele>
        <time>2024-09-21T22:10:47.717Z</time>
      </trkpt>
      <trkpt lat="48.704084" lon="2.112503">
        <ele>79.211088</ele>
        <time>2024-09-21T22:10:48.830Z</time>
      </trkpt>
      <trkpt lat="48.704012" lon="2.111853">
        <ele>78.198338</ele>
        <time>2024-09-21T22:10:53.442Z</time>
      </trkpt>
      <trkpt lat="48.703705" lon="2.109165">
        <ele>74.284528</ele>
        <time>2024-09-21T22:11:12.799Z</time>
      </trkpt>
      <trkpt lat="48.703598" lon="2.108103">
        <ele>72.858359</ele>
        <time>2024-09-21T22:11:20.691Z</time>
      </trkpt>
      <trkpt lat="48.703586" lon="2.107804">
        <ele>72.460695</ele>
        <time>2024-09-21T22:11:22.857Z</time>
      </trkpt>
      <trkpt lat="48.703574" lon="2.107496">
        <ele>72.300679</ele>
        <time>2024-09-21T22:11:25.257Z</time>
      </trkpt>
      <trkpt lat="48.703565" lon="2.107209">
        <ele>72.169639</ele>
        <time>2024-09-21T22:11:27.370Z</time>
      </trkpt>
      <trkpt lat="48.703557" lon="2.106848">
        <ele>72.004904</ele>
        <time>2024-09-21T22:11:30.244Z</time>
      </trkpt>
      <trkpt lat="48.703557" lon="2.106815">
        <ele>71.989854</ele>
        <time>2024-09-21T22:11:30.488Z</time>
      </trkpt>
      <trkpt lat="48.703566" lon="2.106451">
        <ele>71.823727</ele>
        <time>2024-09-21T22:11:33.416Z</time>
      </trkpt>
      <trkpt lat="48.703578" lon="2.105919">
        <ele>71.580955</ele>
        <time>2024-09-21T22:11:38.235Z</time>
      </trkpt>
      <trkpt lat="48.703519" lon="2.105302">
        <ele>71.296621</ele>
        <time>2024-09-21T22:11:44.950Z</time>
      </trkpt>
      <trkpt lat="48.703367" lon="2.104290">
        <ele>71.337061</ele>
        <time>2024-09-21T22:11:55.069Z</time>
      </trkpt>
      <trkpt lat="48.703348" lon="2.103679">
        <ele>71.450736</ele>
        <time>2024-09-21T22:12:01.355Z</time>
      </trkpt>
      <trkpt lat="48.703357" lon="2.103419">
        <ele>71.499121</ele>
        <time>2024-09-21T22:12:04.235Z</time>
      </trkpt>
      <trkpt lat="48.703440" lon="2.102914">
        <ele>71.595838</ele>
        <time>2024-09-21T22:12:09.945Z</time>
      </trkpt>
      <trkpt lat="48.703556" lon="2.102393">
        <ele>71.700724</ele>
        <time>2024-09-21T22:12:16.112Z</time>
      </trkpt>
      <trkpt lat="48.703613" lon="2.102136">
        <ele>71.793401</ele>
        <time>2024-09-21T22:12:18.923Z</time>
      </trkpt>
      <trkpt lat="48.703699" lon="2.101348">
        <ele>72.066417</ele>
        <time>2024-09-21T22:12:27.852Z</time>
      </trkpt>
      <trkpt lat="48.703724" lon="2.101243">
        <ele>72.104573</ele>
        <time>2024-09-21T22:12:29.020Z</time>
      </trkpt>
      <trkpt lat="48.703985" lon="2.100334">
        <ele>72.443424</ele>
        <time>2024-09-21T22:12:39.873Z</time>
      </trkpt>
      <trkpt lat="48.704104" lon="2.099921">
        <ele>72.597465</ele>
        <time>2024-09-21T22:12:44.980Z</time>
      </trkpt>
      <trkpt lat="48.704611" lon="2.098191">
        <ele>73.609833</ele>
        <time>2024-09-21T22:13:07.537Z</time>
      </trkpt>
      <trkpt lat="48.704619" lon="2.098139">
        <ele>73.638872</ele>
        <time>2024-09-21T22:13:08.168Z</time>
      </trkpt>
      <trkpt lat="48.704823" lon="2.096850">
        <ele>74.366320</ele>
        <time>2024-09-21T22:13:24.554Z</time>
      </trkpt>
      <trkpt lat="48.705024" lon="2.095502">
        <ele>75.137493</ele>
        <time>2024-09-21T22:13:41.239Z</time>
      </trkpt>
      <trkpt lat="48.705149" lon="2.094964">
        <ele>75.455769</ele>
        <time>2024-09-21T22:13:47.743Z</time>
      </trkpt>
      <trkpt lat="48.705564" lon="2.093780">
        <ele>75.877387</ele>
        <time>2024-09-21T22:14:04.085Z</time>
      </trkpt>
      <trkpt lat="48.705577" lon="2.093744">
        <ele>75.887268</ele>
        <time>2024-09-21T22:14:04.571Z</time>
      </trkpt>
      <trkpt lat="48.705695" lon="2.093415">
        <ele>75.977436</ele>
        <time>2024-09-21T22:14:08.773Z</time>
      </trkpt>
      <trkpt lat="48.705893" lon="2.092681">
        <ele>76.168380</ele>
        <time>2024-09-21T22:14:16.777Z</time>
      </trkpt>
      <trkpt lat="48.705935" lon="2.092359">
        <ele>76.247417</ele>
        <time>2024-09-21T22:14:19.870Z</time>
      </trkpt>
      <trkpt lat="48.705937" lon="2.092101">
        <ele>76.252847</ele>
        <time>2024-09-21T22:14:22.227Z</time>
      </trkpt>
      <trkpt lat="48.705924" lon="2.091861">
        <ele>76.172055</ele>
        <time>2024-09-21T22:14:24.335Z</time>
      </trkpt>
      <trkpt lat="48.705824" lon="2.091055">
        <ele>75.896898</ele>
        <time>2024-09-21T22:14:31.215Z</time>
      </trkpt>
      <trkpt lat="48.705800" lon="2.090737">
        <ele>75.789511</ele>
        <time>2024-09-21T22:14:33.935Z</time>
      </trkpt>
      <trkpt lat="48.705808" lon="2.090347">
        <ele>75.658599</ele>
        <time>2024-09-21T22:14:37.406Z</time>
      </trkpt>
      <trkpt lat="48.705991" lon="2.089285">
        <ele>75.427626</ele>
        <time>2024-09-21T22:14:46.592Z</time>
      </trkpt>
      <trkpt lat="48.706016" lon="2.089145">
        <ele>75.461360</ele>
        <time>2024-09-21T22:14:47.789Z</time>
      </trkpt>
      <trkpt lat="48.706454" lon="2.086829">
        <ele>76.036981</ele>
        <time>2024-09-21T22:15:14.967Z</time>
      </trkpt>
      <trkpt lat="48.706494" lon="2.086607">
        <ele>76.140421</ele>
        <time>2024-09-21T22:15:18.103Z</time>
      </trkpt>
      <trkpt lat="48.706516" lon="2.086484">
        <ele>76.197704</ele>
        <time>2024-09-21T22:15:19.881Z</time>
      </trkpt>
      <trkpt lat="48.706945" lon="2.084374">
        <ele>77.190127</ele>
        <time>2024-09-21T22:15:45.981Z</time>
      </trkpt>
      <trkpt lat="48.707278" lon="2.082638">
        <ele>76.973386</ele>
        <time>2024-09-21T22:16:03.275Z</time>
      </trkpt>
      <trkpt lat="48.707316" lon="2.082437">
        <ele>76.942099</ele>
        <time>2024-09-21T22:16:04.981Z</time>
      </trkpt>
      <trkpt lat="48.707462" lon="2.081639">
        <ele>76.828360</ele>
        <time>2024-09-21T22:16:11.794Z</time>
      </trkpt>
      <trkpt lat="48.707483" lon="2.081090">
        <ele>76.934600</ele>
        <time>2024-09-21T22:16:16.580Z</time>
      </trkpt>
      <trkpt lat="48.707430" lon="2.080490">
        <ele>77.051550</ele>
        <time>2024-09-21T22:16:22.466Z</time>
      </trkpt>
      <trkpt lat="48.707256" lon="2.079648">
        <ele>77.222007</ele>
        <time>2024-09-21T22:16:32.472Z</time>
      </trkpt>
      <trkpt lat="48.707221" lon="2.079489">
        <ele>77.254389</ele>
        <time>2024-09-21T22:16:34.534Z</time>
      </trkpt>
      <trkpt lat="48.707174" lon="2.079292">
        <ele>77.294859</ele>
        <time>2024-09-21T22:16:37.027Z</time>
      </trkpt>
      <trkpt lat="48.706766" lon="2.077586">
        <ele>78.853463</ele>
        <time>2024-09-21T22:17:00.108Z</time>
      </trkpt>
      <trkpt lat="48.706646" lon="2.077086">
        <ele>79.375422</ele>
        <time>2024-09-21T22:17:08.675Z</time>
      </trkpt>
      <trkpt lat="48.706537" lon="2.076472">
        <ele>79.999204</ele>
        <time>2024-09-21T22:17:18.462Z</time>
      </trkpt>
      <trkpt lat="48.706469" lon="2.075877">
        <ele>80.136129</ele>
        <time>2024-09-21T22:17:27.095Z</time>
      </trkpt>
      <trkpt lat="48.706482" lon="2.075447">
        <ele>80.220074</ele>
        <time>2024-09-21T22:17:33.088Z</time>
      </trkpt>
      <trkpt lat="48.706567" lon="2.074963">
        <ele>80.317747</ele>
        <time>2024-09-21T22:17:38.732Z</time>
      </trkpt>
      <trkpt lat="48.706578" lon="2.074766">
        <ele>80.356302</ele>
        <time>2024-09-21T22:17:40.425Z</time>
      </trkpt>
      <trkpt lat="48.706558" lon="2.074625">
        <ele>80.384427</ele>
        <time>2024-09-21T22:17:41.702Z</time>
      </trkpt>
      <trkpt lat="48.706594" lon="2.074568">
        <ele>80.399813</ele>
        <time>2024-09-21T22:17:42.507Z</time>
      </trkpt>
      <trkpt lat="48.706594" lon="2.074432">
        <ele>80.426335</ele>
        <time>2024-09-21T22:17:43.639Z</time>
      </trkpt>
      <trkpt lat="48.706521" lon="2.074354">
        <ele>80.452731</ele>
        <time>2024-09-21T22:17:44.631Z</time>
      </trkpt>
      <trkpt lat="48.706541" lon="2.074238">
        <ele>80.476112</ele>
        <time>2024-09-21T22:17:45.662Z</time>
      </trkpt>
      <trkpt lat="48.706561" lon="2.073827">
        <ele>80.540107</ele>
        <time>2024-09-21T22:17:48.800Z</time>
      </trkpt>
      <trkpt lat="48.706603" lon="2.073675">
        <ele>80.285086</ele>
        <time>2024-09-21T22:17:50.132Z</time>
      </trkpt>
      <trkpt lat="48.706645" lon="2.073464">
        <ele>79.944016</ele>
        <time>2024-09-21T22:17:51.885Z</time>
      </trkpt>
      <trkpt lat="48.706664" lon="2.073299">
        <ele>79.684807</ele>
        <time>2024-09-21T22:17:53.064Z</time>
      </trkpt>
      <trkpt lat="48.706643" lon="2.073064">
        <ele>79.317807</ele>
        <time>2024-09-21T22:17:54.804Z</time>
      </trkpt>
      <trkpt lat="48.706542" lon="2.072698">
        <ele>78.703863</ele>
        <time>2024-09-21T22:17:57.578Z</time>
      </trkpt>
      <trkpt lat="48.706333" lon="2.072316">
        <ele>77.935932</ele>
        <time>2024-09-21T22:18:00.947Z</time>
      </trkpt>
      <trkpt lat="48.706290" lon="2.072249">
        <ele>77.791294</ele>
        <time>2024-09-21T22:18:01.599Z</time>
      </trkpt>
      <trkpt lat="48.706222" lon="2.072127">
        <ele>77.544155</ele>
        <time>2024-09-21T22:18:02.675Z</time>
      </trkpt>
      <trkpt lat="48.706187" lon="2.072066">
        <ele>77.419059</ele>
        <time>2024-09-21T22:18:03.236Z</time>
      </trkpt>
      <trkpt lat="48.706163" lon="2.072019">
        <ele>77.327090</ele>
        <time>2024-09-21T22:18:03.647Z</time>
      </trkpt>
      <trkpt lat="48.706093" lon="2.071735">
        <ele>76.857917</ele>
        <time>2024-09-21T22:18:05.702Z</time>
      </trkpt>
      <trkpt lat="48.706096" lon="2.071690">
        <ele>76.787921</ele>
        <time>2024-09-21T22:18:06.007Z</time>
      </trkpt>
      <trkpt lat="48.706045" lon="2.071624">
        <ele>76.630640</ele>
        <time>2024-09-21T22:18:06.695Z</time>
      </trkpt>
      <trkpt lat="48.706011" lon="2.071641">
        <ele>76.546677</ele>
        <time>2024-09-21T22:18:07.076Z</time>
      </trkpt>
      <trkpt lat="48.705877" lon="2.071575">
        <ele>76.297609</ele>
        <time>2024-09-21T22:18:08.507Z</time>
      </trkpt>
      <trkpt lat="48.705739" lon="2.071395">
        <ele>76.159237</ele>
        <time>2024-09-21T22:18:10.383Z</time>
      </trkpt>
      <trkpt lat="48.705564" lon="2.071165">
        <ele>75.983194</ele>
        <time>2024-09-21T22:18:12.849Z</time>
      </trkpt>
      <trkpt lat="48.705316" lon="2.070823">
        <ele>75.728366</ele>
        <time>2024-09-21T22:18:16.595Z</time>
      </trkpt>
      <trkpt lat="48.705252" lon="2.070685">
        <ele>75.643777</ele>
        <time>2024-09-21T22:18:17.913Z</time>
      </trkpt>
      <trkpt lat="48.705238" lon="2.070655">
        <ele>75.625350</ele>
        <time>2024-09-21T22:18:18.206Z</time>
      </trkpt>
      <trkpt lat="48.705232" lon="2.070644">
        <ele>75.618193</ele>
        <time>2024-09-21T22:18:18.320Z</time>
      </trkpt>
      <trkpt lat="48.705175" lon="2.070521">
        <ele>75.542818</ele>
        <time>2024-09-21T22:18:19.633Z</time>
      </trkpt>
      <trkpt lat="48.704873" lon="2.069924">
        <ele>75.165573</ele>
        <time>2024-09-21T22:18:27.399Z</time>
      </trkpt>
      <trkpt lat="48.704718" lon="2.069835">
        <ele>75.039609</ele>
        <time>2024-09-21T22:18:30.901Z</time>
      </trkpt>
      <trkpt lat="48.704030" lon="2.069812">
        <ele>76.668824</ele>
        <time>2024-09-21T22:18:46.422Z</time>
      </trkpt>
      <trkpt lat="48.703832" lon="2.069769">
        <ele>77.238819</ele>
        <time>2024-09-21T22:18:51.438Z</time>
      </trkpt>
      <trkpt lat="48.703226" lon="2.069634">
        <ele>78.984265</ele>
        <time>2024-09-21T22:19:09.248Z</time>
      </trkpt>
      <trkpt lat="48.703095" lon="2.069607">
        <ele>79.361006</ele>
        <time>2024-09-21T22:19:12.902Z</time>
      </trkpt>
      <trkpt lat="48.702906" lon="2.069612">
        <ele>79.899671</ele>
        <time>2024-09-21T22:19:18.788Z</time>
      </trkpt>
      <trkpt lat="48.702788" lon="2.069613">
        <ele>80.306242</ele>
        <time>2024-09-21T22:19:22.246Z</time>
      </trkpt>
      <trkpt lat="48.702718" lon="2.069613">
        <ele>80.605400</ele>
        <time>2024-09-21T22:19:24.285Z</time>
      </trkpt>
      <trkpt lat="48.702566" lon="2.069608">
        <ele>81.255152</ele>
        <time>2024-09-21T22:19:29.155Z</time>
      </trkpt>
      <trkpt lat="48.702135" lon="2.069613">
        <ele>83.097162</ele>
        <time>2024-09-21T22:19:42.750Z</time>
      </trkpt>
      <trkpt lat="48.701994" lon="2.069615">
        <ele>83.699778</ele>
        <time>2024-09-21T22:19:47.090Z</time>
      </trkpt>
      <trkpt lat="48.701745" lon="2.069552">
        <ele>84.778658</ele>
        <time>2024-09-21T22:19:55.220Z</time>
      </trkpt>
      <trkpt lat="48.700999" lon="2.069114">
        <ele>88.209605</ele>
        <time>2024-09-21T22:20:21.842Z</time>
      </trkpt>
      <trkpt lat="48.700787" lon="2.068990">
        <ele>89.208334</ele>
        <time>2024-09-21T22:20:29.681Z</time>
      </trkpt>
      <trkpt lat="48.700326" lon="2.068763">
        <ele>91.338684</ele>
        <time>2024-09-21T22:20:45.971Z</time>
      </trkpt>
      <trkpt lat="48.700123" lon="2.068746">
        <ele>92.232208</ele>
        <time>2024-09-21T22:20:52.670Z</time>
      </trkpt>
      <trkpt lat="48.699704" lon="2.068781">
        <ele>94.076463</ele>
        <time>2024-09-21T22:21:06.421Z</time>
      </trkpt>
      <trkpt lat="48.699534" lon="2.068774">
        <ele>94.823870</ele>
        <time>2024-09-21T22:21:11.865Z</time>
      </trkpt>
      <trkpt lat="48.699388" lon="2.068726">
        <ele>95.480456</ele>
        <time>2024-09-21T22:21:16.449Z</time>
      </trkpt>
      <trkpt lat="48.699236" lon="2.068644">
        <ele>95.909925</ele>
        <time>2024-09-21T22:21:21.509Z</time>
      </trkpt>
      <trkpt lat="48.698667" lon="2.068115">
        <ele>97.211675</ele>
        <time>2024-09-21T22:21:39.247Z</time>
      </trkpt>
      <trkpt lat="48.698545" lon="2.067998">
        <ele>97.493220</ele>
        <time>2024-09-21T22:21:42.306Z</time>
      </trkpt>
      <trkpt lat="48.698506" lon="2.067962">
        <ele>97.582270</ele>
        <time>2024-09-21T22:21:43.285Z</time>
      </trkpt>
      <trkpt lat="48.697888" lon="2.067396">
        <ele>98.990399</ele>
        <time>2024-09-21T22:21:55.456Z</time>
      </trkpt>
      <trkpt lat="48.697522" lon="2.067107">
        <ele>99.803260</ele>
        <time>2024-09-21T22:22:02.547Z</time>
      </trkpt>
      <trkpt lat="48.696989" lon="2.066803">
        <ele>100.928701</ele>
        <time>2024-09-21T22:22:14.326Z</time>
      </trkpt>
      <trkpt lat="48.696777" lon="2.066744">
        <ele>101.354650</ele>
        <time>2024-09-21T22:22:19.532Z</time>
      </trkpt>
      <trkpt lat="48.696632" lon="2.066761">
        <ele>101.642046</ele>
        <time>2024-09-21T22:22:22.911Z</time>
      </trkpt>
      <trkpt lat="48.696457" lon="2.066828">
        <ele>101.998739</ele>
        <time>2024-09-21T22:22:27.493Z</time>
      </trkpt>
      <trkpt lat="48.695757" lon="2.067310">
        <ele>104.730771</ele>
        <time>2024-09-21T22:22:48.588Z</time>
      </trkpt>
      <trkpt lat="48.695595" lon="2.067344">
        <ele>105.563122</ele>
        <time>2024-09-21T22:22:53.613Z</time>
      </trkpt>
      <trkpt lat="48.695382" lon="2.067317">
        <ele>106.650946</ele>
        <time>2024-09-21T22:23:01.304Z</time>
      </trkpt>
      <trkpt lat="48.694631" lon="2.067053">
        <ele>110.574607</ele>
        <time>2024-09-21T22:23:32.049Z</time>
      </trkpt>
      <trkpt lat="48.694320" lon="2.067054">
        <ele>112.138101</ele>
        <time>2024-09-21T22:23:44.380Z</time>
      </trkpt>
      <trkpt lat="48.694083" lon="2.067079">
        <ele>113.255644</ele>
        <time>2024-09-21T22:23:53.223Z</time>
      </trkpt>
      <trkpt lat="48.693954" lon="2.067139">
        <ele>113.890413</ele>
        <time>2024-09-21T22:23:58.483Z</time>
      </trkpt>
      <trkpt lat="48.693492" lon="2.067474">
        <ele>116.299759</ele>
        <time>2024-09-21T22:24:16.701Z</time>
      </trkpt>
      <trkpt lat="48.693227" lon="2.067576">
        <ele>117.585920</ele>
        <time>2024-09-21T22:24:26.112Z</time>
      </trkpt>
      <trkpt lat="48.692716" lon="2.067543">
        <ele>119.991838</ele>
        <time>2024-09-21T22:24:41.831Z</time>
      </trkpt>
      <trkpt lat="48.692467" lon="2.067585">
        <ele>120.227874</ele>
        <time>2024-09-21T22:24:48.914Z</time>
      </trkpt>
      <trkpt lat="48.692181" lon="2.067557">
        <ele>120.001717</ele>
        <time>2024-09-21T22:24:55.382Z</time>
      </trkpt>
      <trkpt lat="48.692017" lon="2.067475">
        <ele>119.865436</ele>
        <time>2024-09-21T22:24:58.654Z</time>
      </trkpt>
      <trkpt lat="48.691826" lon="2.067298">
        <ele>119.688752</ele>
        <time>2024-09-21T22:25:02.132Z</time>
      </trkpt>
      <trkpt lat="48.690473" lon="2.065579">
        <ele>115.526882</ele>
        <time>2024-09-21T22:25:19.914Z</time>
      </trkpt>
      <trkpt lat="48.689864" lon="2.064468">
        <ele>111.564011</ele>
        <time>2024-09-21T22:25:28.932Z</time>
      </trkpt>
      <trkpt lat="48.689713" lon="2.064277">
        <ele>110.942582</ele>
        <time>2024-09-21T22:25:30.796Z</time>
      </trkpt>
      <trkpt lat="48.689523" lon="2.064166">
        <ele>110.326679</ele>
        <time>2024-09-21T22:25:32.729Z</time>
      </trkpt>
      <trkpt lat="48.689147" lon="2.064188">
        <ele>109.188632</ele>
        <time>2024-09-21T22:25:36.295Z</time>
      </trkpt>
      <trkpt lat="48.688867" lon="2.064292">
        <ele>108.316696</ele>
        <time>2024-09-21T22:25:39.116Z</time>
      </trkpt>
      <trkpt lat="48.688576" lon="2.064482">
        <ele>107.358301</ele>
        <time>2024-09-21T22:25:42.468Z</time>
      </trkpt>
      <trkpt lat="48.688471" lon="2.064554">
        <ele>107.009710</ele>
        <time>2024-09-21T22:25:43.845Z</time>
      </trkpt>
      <trkpt lat="48.688206" lon="2.064369">
        <ele>106.127206</ele>
        <time>2024-09-21T22:25:47.319Z</time>
      </trkpt>
      <trkpt lat="48.687979" lon="2.064222">
        <ele>106.520184</ele>
        <time>2024-09-21T22:25:51.479Z</time>
      </trkpt>
      <trkpt lat="48.687877" lon="2.064166">
        <ele>106.770548</ele>
        <time>2024-09-21T22:25:53.361Z</time>
      </trkpt>
      <trkpt lat="48.687460" lon="2.064107">
        <ele>107.737031</ele>
        <time>2024-09-21T22:26:03.057Z</time>
      </trkpt>
      <trkpt lat="48.686867" lon="2.064139">
        <ele>109.106341</ele>
        <time>2024-09-21T22:26:18.257Z</time>
      </trkpt>
      <trkpt lat="48.686622" lon="2.064121">
        <ele>109.672382</ele>
        <time>2024-09-21T22:26:25.653Z</time>
      </trkpt>
      <trkpt lat="48.686278" lon="2.064007">
        <ele>110.763011</ele>
        <time>2024-09-21T22:26:37.004Z</time>
      </trkpt>
      <trkpt lat="48.685511" lon="2.063555">
        <ele>114.380068</ele>
        <time>2024-09-21T22:27:05.308Z</time>
      </trkpt>
      <trkpt lat="48.685281" lon="2.063252">
        <ele>115.719737</ele>
        <time>2024-09-21T22:27:15.424Z</time>
      </trkpt>
      <trkpt lat="48.684979" lon="2.062960">
        <ele>117.294375</ele>
        <time>2024-09-21T22:27:26.673Z</time>
      </trkpt>
      <trkpt lat="48.684762" lon="2.062417">
        <ele>119.159444</ele>
        <time>2024-09-21T22:27:38.910Z</time>
      </trkpt>
      <trkpt lat="48.684606" lon="2.061908">
        <ele>120.823829</ele>
        <time>2024-09-21T22:27:50.786Z</time>
      </trkpt>
      <trkpt lat="48.684386" lon="2.061513">
        <ele>122.356571</ele>
        <time>2024-09-21T22:28:01.694Z</time>
      </trkpt>
      <trkpt lat="48.684015" lon="2.061040">
        <ele>124.535089</ele>
        <time>2024-09-21T22:28:17.987Z</time>
      </trkpt>
      <trkpt lat="48.683907" lon="2.060857">
        <ele>125.263099</ele>
        <time>2024-09-21T22:28:23.613Z</time>
      </trkpt>
      <trkpt lat="48.683893" lon="2.060768">
        <ele>125.534458</ele>
        <time>2024-09-21T22:28:25.763Z</time>
      </trkpt>
      <trkpt lat="48.683931" lon="2.060538">
        <ele>126.253857</ele>
        <time>2024-09-21T22:28:31.220Z</time>
      </trkpt>
      <trkpt lat="48.683925" lon="2.060173">
        <ele>127.571109</ele>
        <time>2024-09-21T22:28:39.740Z</time>
      </trkpt>
      <trkpt lat="48.683873" lon="2.059987">
        <ele>128.299843</ele>
        <time>2024-09-21T22:28:44.388Z</time>
      </trkpt>
      <trkpt lat="48.683765" lon="2.059774">
        <ele>129.268780</ele>
        <time>2024-09-21T22:28:50.734Z</time>
      </trkpt>
      <trkpt lat="48.683611" lon="2.059344">
        <ele>131.033690</ele>
        <time>2024-09-21T22:29:02.696Z</time>
      </trkpt>
      <trkpt lat="48.682605" lon="2.055908">
        <ele>144.939590</ele>
        <time>2024-09-21T22:30:36.513Z</time>
      </trkpt>
      <trkpt lat="48.682477" lon="2.055619">
        <ele>146.242964</ele>
        <time>2024-09-21T22:30:44.852Z</time>
      </trkpt>
      <trkpt lat="48.682330" lon="2.055277">
        <ele>147.647316</ele>
        <time>2024-09-21T22:30:54.850Z</time>
      </trkpt>
      <trkpt lat="48.681886" lon="2.054622">
        <ele>150.877867</ele>
        <time>2024-09-21T22:31:17.167Z</time>
      </trkpt>
      <trkpt lat="48.681646" lon="2.054333">
        <ele>152.475980</ele>
        <time>2024-09-21T22:31:27.991Z</time>
      </trkpt>
      <trkpt lat="48.680438" lon="2.053262">
        <ele>159.302118</ele>
        <time>2024-09-21T22:32:16.658Z</time>
      </trkpt>
      <trkpt lat="48.680147" lon="2.053016">
        <ele>160.844067</ele>
        <time>2024-09-21T22:32:28.028Z</time>
      </trkpt>
      <trkpt lat="48.679994" lon="2.052835">
        <ele>161.742334</ele>
        <time>2024-09-21T22:32:34.390Z</time>
      </trkpt>
      <trkpt lat="48.679894" lon="2.052652">
        <ele>162.468021</ele>
        <time>2024-09-21T22:32:39.546Z</time>
      </trkpt>
      <trkpt lat="48.679885" lon="2.052506">
        <ele>162.915984</ele>
        <time>2024-09-21T22:32:42.735Z</time>
      </trkpt>
      <trkpt lat="48.679900" lon="2.052395">
        <ele>163.262113</ele>
        <time>2024-09-21T22:32:44.980Z</time>
      </trkpt>
      <trkpt lat="48.680142" lon="2.051560">
        <ele>165.092516</ele>
        <time>2024-09-21T22:33:03.155Z</time>
      </trkpt>
      <trkpt lat="48.680320" lon="2.050999">
        <ele>166.143513</ele>
        <time>2024-09-21T22:33:14.250Z</time>
      </trkpt>
      <trkpt lat="48.680114" lon="2.050976">
        <ele>166.671776</ele>
        <time>2024-09-21T22:33:19.324Z</time>
      </trkpt>
      <trkpt lat="48.679679" lon="2.050795">
        <ele>167.825485</ele>
        <time>2024-09-21T22:33:29.317Z</time>
      </trkpt>
      <trkpt lat="48.679345" lon="2.050556">
        <ele>168.583802</ele>
        <time>2024-09-21T22:33:36.476Z</time>
      </trkpt>
      <trkpt lat="48.679085" lon="2.050334">
        <ele>168.796643</ele>
        <time>2024-09-21T22:33:41.514Z</time>
      </trkpt>
      <trkpt lat="48.678768" lon="2.050180">
        <ele>169.034040</ele>
        <time>2024-09-21T22:33:46.954Z</time>
      </trkpt>
      <trkpt lat="48.678605" lon="2.050102">
        <ele>169.155939</ele>
        <time>2024-09-21T22:33:49.849Z</time>
      </trkpt>
      <trkpt lat="48.678385" lon="2.050079">
        <ele>169.313194</ele>
        <time>2024-09-21T22:33:53.245Z</time>
      </trkpt>
      <trkpt lat="48.678423" lon="2.049898">
        <ele>169.402622</ele>
        <time>2024-09-21T22:33:55.502Z</time>
      </trkpt>
      <trkpt lat="48.679036" lon="2.047105">
        <ele>170.889115</ele>
        <time>2024-09-21T22:34:31.191Z</time>
      </trkpt>
      <trkpt lat="48.679277" lon="2.046062">
        <ele>171.236678</ele>
        <time>2024-09-21T22:34:43.699Z</time>
      </trkpt>
      <trkpt lat="48.679339" lon="2.045801">
        <ele>171.253489</ele>
        <time>2024-09-21T22:34:46.618Z</time>
      </trkpt>
      <trkpt lat="48.679614" lon="2.044660">
        <ele>171.327107</ele>
        <time>2024-09-21T22:34:58.826Z</time>
      </trkpt>
      <trkpt lat="48.680008" lon="2.042934">
        <ele>171.099504</ele>
        <time>2024-09-21T22:35:15.028Z</time>
      </trkpt>
      <trkpt lat="48.680071" lon="2.042600">
        <ele>171.012398</ele>
        <time>2024-09-21T22:35:18.139Z</time>
      </trkpt>
      <trkpt lat="48.680108" lon="2.042183">
        <ele>170.906888</ele>
        <time>2024-09-21T22:35:22.043Z</time>
      </trkpt>
      <trkpt lat="48.680204" lon="2.037652">
        <ele>169.667058</ele>
        <time>2024-09-21T22:36:02.799Z</time>
      </trkpt>
      <trkpt lat="48.679976" lon="2.034124">
        <ele>167.984777</ele>
        <time>2024-09-21T22:36:32.671Z</time>
      </trkpt>
      <trkpt lat="48.679987" lon="2.033634">
        <ele>167.703539</ele>
        <time>2024-09-21T22:36:36.591Z</time>
      </trkpt>
      <trkpt lat="48.680058" lon="2.032845">
        <ele>167.186955</ele>
        <time>2024-09-21T22:36:42.866Z</time>
      </trkpt>
      <trkpt lat="48.680460" lon="2.029917">
        <ele>165.473851</ele>
        <time>2024-09-21T22:37:06.327Z</time>
      </trkpt>
      <trkpt lat="48.680310" lon="2.029670">
        <ele>165.536122</ele>
        <time>2024-09-21T22:37:09.511Z</time>
      </trkpt>
      <trkpt lat="48.680182" lon="2.029519">
        <ele>165.581719</ele>
        <time>2024-09-21T22:37:12.146Z</time>
      </trkpt>
      <trkpt lat="48.680071" lon="2.029443">
        <ele>165.615953</ele>
        <time>2024-09-21T22:37:14.199Z</time>
      </trkpt>
      <trkpt lat="48.679858" lon="2.029366">
        <ele>165.677495</ele>
        <time>2024-09-21T22:37:17.971Z</time>
      </trkpt>
      <trkpt lat="48.679672" lon="2.029217">
        <ele>165.736629</ele>
        <time>2024-09-21T22:37:21.725Z</time>
      </trkpt>
      <trkpt lat="48.679631" lon="2.029089">
        <ele>165.763028</ele>
        <time>2024-09-21T22:37:23.473Z</time>
      </trkpt>
      <trkpt lat="48.679584" lon="2.029055">
        <ele>165.777666</ele>
        <time>2024-09-21T22:37:24.527Z</time>
      </trkpt>
      <trkpt lat="48.678760" lon="2.029457">
        <ele>166.712606</ele>
        <time>2024-09-21T22:37:42.351Z</time>
      </trkpt>
      <trkpt lat="48.678579" lon="2.029481">
        <ele>166.997606</ele>
        <time>2024-09-21T22:37:46.441Z</time>
      </trkpt>
      <trkpt lat="48.677918" lon="2.029072">
        <ele>168.117635</ele>
        <time>2024-09-21T22:38:02.458Z</time>
      </trkpt>
      <trkpt lat="48.677754" lon="2.028947">
        <ele>168.405624</ele>
        <time>2024-09-21T22:38:06.257Z</time>
      </trkpt>
      <trkpt lat="48.677600" lon="2.028881">
        <ele>168.656672</ele>
        <time>2024-09-21T22:38:09.515Z</time>
      </trkpt>
      <trkpt lat="48.677324" lon="2.028905">
        <ele>168.863529</ele>
        <time>2024-09-21T22:38:14.909Z</time>
      </trkpt>
      <trkpt lat="48.676821" lon="2.029088">
        <ele>169.213768</ele>
        <time>2024-09-21T22:38:24.413Z</time>
      </trkpt>
      <trkpt lat="48.675585" lon="2.029455">
        <ele>169.972515</ele>
        <time>2024-09-21T22:38:44.967Z</time>
      </trkpt>
      <trkpt lat="48.675394" lon="2.029423">
        <ele>170.024947</ele>
        <time>2024-09-21T22:38:47.871Z</time>
      </trkpt>
      <trkpt lat="48.675271" lon="2.029288">
        <ele>170.066395</ele>
        <time>2024-09-21T22:38:50.221Z</time>
      </trkpt>
      <trkpt lat="48.675206" lon="2.028756">
        <ele>170.163871</ele>
        <time>2024-09-21T22:38:55.733Z</time>
      </trkpt>
      <trkpt lat="48.675073" lon="2.028314">
        <ele>170.251385</ele>
        <time>2024-09-21T22:39:00.775Z</time>
      </trkpt>
      <trkpt lat="48.674887" lon="2.027994">
        <ele>170.328193</ele>
        <time>2024-09-21T22:39:05.271Z</time>
      </trkpt>
      <trkpt lat="48.674619" lon="2.027657">
        <ele>170.449875</ele>
        <time>2024-09-21T22:39:10.908Z</time>
      </trkpt>
      <trkpt lat="48.674370" lon="2.027436">
        <ele>170.618171</ele>
        <time>2024-09-21T22:39:15.658Z</time>
      </trkpt>
      <trkpt lat="48.673447" lon="2.026868">
        <ele>171.199132</ele>
        <time>2024-09-21T22:39:32.956Z</time>
      </trkpt>
      <trkpt lat="48.672595" lon="2.026486">
        <ele>171.752512</ele>
        <time>2024-09-21T22:39:48.955Z</time>
      </trkpt>
      <trkpt lat="48.672240" lon="2.026289">
        <ele>172.001907</ele>
        <time>2024-09-21T22:39:55.570Z</time>
      </trkpt>
      <trkpt lat="48.671305" lon="2.025638">
        <ele>172.665931</ele>
        <time>2024-09-21T22:40:13.057Z</time>
      </trkpt>
      <trkpt lat="48.670741" lon="2.025130">
        <ele>172.958531</ele>
        <time>2024-09-21T22:40:24.181Z</time>
      </trkpt>
      <trkpt lat="48.670552" lon="2.024885">
        <ele>173.069464</ele>
        <time>2024-09-21T22:40:28.326Z</time>
      </trkpt>
      <trkpt lat="48.670351" lon="2.024406">
        <ele>173.236572</ele>
        <time>2024-09-21T22:40:34.474Z</time>
      </trkpt>
      <trkpt lat="48.670296" lon="2.024034">
        <ele>173.348821</ele>
        <time>2024-09-21T22:40:38.646Z</time>
      </trkpt>
      <trkpt lat="48.670310" lon="2.023497">
        <ele>173.482318</ele>
        <time>2024-09-21T22:40:44.434Z</time>
      </trkpt>
      <trkpt lat="48.670351" lon="2.023167">
        <ele>173.546244</ele>
        <time>2024-09-21T22:40:48.024Z</time>
      </trkpt>
      <trkpt lat="48.670549" lon="2.022313">
        <ele>173.718555</ele>
        <time>2024-09-21T22:40:57.543Z</time>
      </trkpt>
      <trkpt lat="48.670336" lon="2.022322">
        <ele>173.779982</ele>
        <time>2024-09-21T22:41:00.950Z</time>
      </trkpt>
      <trkpt lat="48.667292" lon="2.022112">
        <ele>174.805256</ele>
        <time>2024-09-21T22:41:49.255Z</time>
      </trkpt>
      <trkpt lat="48.667271" lon="2.022120">
        <ele>174.817848</ele>
        <time>2024-09-21T22:41:49.567Z</time>
      </trkpt>
      <trkpt lat="48.667253" lon="2.022011">
        <ele>174.861000</ele>
        <time>2024-09-21T22:41:50.842Z</time>
      </trkpt>
      <trkpt lat="48.666705" lon="2.019785">
        <ele>175.691318</ele>
        <time>2024-09-21T22:42:19.222Z</time>
      </trkpt>
      <trkpt lat="48.666564" lon="2.019048">
        <ele>175.903748</ele>
        <time>2024-09-21T22:42:28.207Z</time>
      </trkpt>
      <trkpt lat="48.666484" lon="2.018260">
        <ele>176.124473</ele>
        <time>2024-09-21T22:42:36.987Z</time>
      </trkpt>
      <trkpt lat="48.666319" lon="2.013427">
        <ele>174.427372</ele>
        <time>2024-09-21T22:43:18.473Z</time>
      </trkpt>
      <trkpt lat="48.666260" lon="2.013110">
        <ele>174.265067</ele>
        <time>2024-09-21T22:43:21.016Z</time>
      </trkpt>
      <trkpt lat="48.666092" lon="2.012631">
        <ele>173.997789</ele>
        <time>2024-09-21T22:43:25.356Z</time>
      </trkpt>
      <trkpt lat="48.665966" lon="2.012421">
        <ele>173.886282</ele>
        <time>2024-09-21T22:43:27.716Z</time>
      </trkpt>
      <trkpt lat="48.665822" lon="2.012263">
        <ele>173.802828</ele>
        <time>2024-09-21T22:43:29.900Z</time>
      </trkpt>
      <trkpt lat="48.663955" lon="2.010874">
        <ele>172.846028</ele>
        <time>2024-09-21T22:43:58.533Z</time>
      </trkpt>
      <trkpt lat="48.663638" lon="2.010710">
        <ele>172.700390</ele>
        <time>2024-09-21T22:44:03.097Z</time>
      </trkpt>
      <trkpt lat="48.663074" lon="2.010630">
        <ele>172.454120</ele>
        <time>2024-09-21T22:44:10.569Z</time>
      </trkpt>
      <trkpt lat="48.662974" lon="2.010577">
        <ele>172.408059</ele>
        <time>2024-09-21T22:44:11.976Z</time>
      </trkpt>
      <trkpt lat="48.662926" lon="2.010544">
        <ele>172.385140</ele>
        <time>2024-09-21T22:44:12.691Z</time>
      </trkpt>
      <trkpt lat="48.663154" lon="2.009707">
        <ele>172.236078</ele>
        <time>2024-09-21T22:44:20.246Z</time>
      </trkpt>
      <trkpt lat="48.664637" lon="2.004250">
        <ele>171.958008</ele>
        <time>2024-09-21T22:45:18.078Z</time>
      </trkpt>
      <trkpt lat="48.665820" lon="1.999872">
        <ele>171.674650</ele>
        <time>2024-09-21T22:46:03.379Z</time>
      </trkpt>
      <trkpt lat="48.665830" lon="1.999834">
        <ele>171.670123</ele>
        <time>2024-09-21T22:46:03.759Z</time>
      </trkpt>
      <trkpt lat="48.666480" lon="1.997428">
        <ele>171.359533</ele>
        <time>2024-09-21T22:46:27.966Z</time>
      </trkpt>
      <trkpt lat="48.667816" lon="1.992476">
        <ele>170.261100</ele>
        <time>2024-09-21T22:47:16.763Z</time>
      </trkpt>
      <trkpt lat="48.668374" lon="1.990378">
        <ele>169.645890</ele>
        <time>2024-09-21T22:47:36.737Z</time>
      </trkpt>
      <trkpt lat="48.668637" lon="1.989403">
        <ele>169.517464</ele>
        <time>2024-09-21T22:47:46.132Z</time>
      </trkpt>
      <trkpt lat="48.668738" lon="1.989039">
        <ele>169.489409</ele>
        <time>2024-09-21T22:47:49.786Z</time>
      </trkpt>
      <trkpt lat="48.668818" lon="1.988894">
        <ele>169.475983</ele>
        <time>2024-09-21T22:47:51.581Z</time>
      </trkpt>
      <trkpt lat="48.668905" lon="1.988869">
        <ele>169.466455</ele>
        <time>2024-09-21T22:47:52.829Z</time>
      </trkpt>
      <trkpt lat="48.668957" lon="1.988790">
        <ele>169.458529</ele>
        <time>2024-09-21T22:47:53.878Z</time>
      </trkpt>
      <trkpt lat="48.668979" lon="1.988706">
        <ele>169.452108</ele>
        <time>2024-09-21T22:47:54.744Z</time>
      </trkpt>
      <trkpt lat="48.668973" lon="1.988614">
        <ele>169.445539</ele>
        <time>2024-09-21T22:47:55.641Z</time>
      </trkpt>
      <trkpt lat="48.668933" lon="1.988515">
        <ele>169.437292</ele>
        <time>2024-09-21T22:47:56.772Z</time>
      </trkpt>
      <trkpt lat="48.668846" lon="1.988457">
        <ele>169.427065</ele>
        <time>2024-09-21T22:47:58.139Z</time>
      </trkpt>
      <trkpt lat="48.668758" lon="1.988490">
        <ele>169.417310</ele>
        <time>2024-09-21T22:47:59.473Z</time>
      </trkpt>
      <trkpt lat="48.668707" lon="1.988575">
        <ele>169.409150</ele>
        <time>2024-09-21T22:48:00.614Z</time>
      </trkpt>
      <trkpt lat="48.668560" lon="1.988634">
        <ele>169.392787</ele>
        <time>2024-09-21T22:48:02.932Z</time>
      </trkpt>
      <trkpt lat="48.668233" lon="1.988594">
        <ele>169.542019</ele>
        <time>2024-09-21T22:48:08.146Z</time>
      </trkpt>
      <trkpt lat="48.667975" lon="1.988567">
        <ele>169.744072</ele>
        <time>2024-09-21T22:48:12.458Z</time>
      </trkpt>
      <trkpt lat="48.667197" lon="1.988476">
        <ele>170.353723</ele>
        <time>2024-09-21T22:48:25.984Z</time>
      </trkpt>
      <trkpt lat="48.664439" lon="1.987504">
        <ele>173.643904</ele>
        <time>2024-09-21T22:49:23.826Z</time>
      </trkpt>
      <trkpt lat="48.663856" lon="1.987441">
        <ele>174.158406</ele>
        <time>2024-09-21T22:49:34.910Z</time>
      </trkpt>
      <trkpt lat="48.662482" lon="1.987505">
        <ele>174.753538</ele>
        <time>2024-09-21T22:49:57.619Z</time>
      </trkpt>
      <trkpt lat="48.658394" lon="1.987713">
        <ele>174.327498</ele>
        <time>2024-09-21T22:50:55.296Z</time>
      </trkpt>
      <trkpt lat="48.657728" lon="1.987770">
        <ele>174.212992</ele>
        <time>2024-09-21T22:51:05.022Z</time>
      </trkpt>
      <trkpt lat="48.656665" lon="1.987914">
        <ele>173.954368</ele>
        <time>2024-09-21T22:51:20.295Z</time>
      </trkpt>
      <trkpt lat="48.654620" lon="1.984201">
        <ele>172.726264</ele>
        <time>2024-09-21T22:52:20.224Z</time>
      </trkpt>
      <trkpt lat="48.654466" lon="1.983923">
        <ele>172.628258</ele>
        <time>2024-09-21T22:52:24.788Z</time>
      </trkpt>
      <trkpt lat="48.653601" lon="1.982592">
        <ele>172.091509</ele>
        <time>2024-09-21T22:52:47.928Z</time>
      </trkpt>
      <trkpt lat="48.652637" lon="1.981605">
        <ele>171.505009</ele>
        <time>2024-09-21T22:53:09.401Z</time>
      </trkpt>
      <trkpt lat="48.650652" lon="1.980082">
        <ele>170.411453</ele>
        <time>2024-09-21T22:53:50.543Z</time>
      </trkpt>
      <trkpt lat="48.649646" lon="1.979209">
        <ele>169.848253</ele>
        <time>2024-09-21T22:54:12.298Z</time>
      </trkpt>
      <trkpt lat="48.647870" lon="1.976694">
        <ele>168.513340</ele>
        <time>2024-09-21T22:54:44.276Z</time>
      </trkpt>
      <trkpt lat="48.647723" lon="1.976387">
        <ele>168.368082</ele>
        <time>2024-09-21T22:54:47.561Z</time>
      </trkpt>
      <trkpt lat="48.646319" lon="1.972974">
        <ele>167.105218</ele>
        <time>2024-09-21T22:55:22.078Z</time>
      </trkpt>
      <trkpt lat="48.646204" lon="1.972593">
        <ele>167.006900</ele>
        <time>2024-09-21T22:55:26.026Z</time>
      </trkpt>
      <trkpt lat="48.646162" lon="1.972300">
        <ele>166.936528</ele>
        <time>2024-09-21T22:55:29.061Z</time>
      </trkpt>
      <trkpt lat="48.646147" lon="1.972000">
        <ele>167.009434</ele>
        <time>2024-09-21T22:55:32.159Z</time>
      </trkpt>
      <trkpt lat="48.646193" lon="1.971533">
        <ele>167.304696</ele>
        <time>2024-09-21T22:55:37.320Z</time>
      </trkpt>
      <trkpt lat="48.646690" lon="1.969908">
        <ele>168.424465</ele>
        <time>2024-09-21T22:55:59.686Z</time>
      </trkpt>
      <trkpt lat="48.646726" lon="1.969620">
        <ele>168.607976</ele>
        <time>2024-09-21T22:56:03.926Z</time>
      </trkpt>
      <trkpt lat="48.646707" lon="1.969329">
        <ele>168.920466</ele>
        <time>2024-09-21T22:56:08.310Z</time>
      </trkpt>
      <trkpt lat="48.646633" lon="1.969033">
        <ele>169.258672</ele>
        <time>2024-09-21T22:56:12.972Z</time>
      </trkpt>
      <trkpt lat="48.646177" lon="1.968076">
        <ele>170.519583</ele>
        <time>2024-09-21T22:56:30.079Z</time>
      </trkpt>
      <trkpt lat="48.645932" lon="1.967630">
        <ele>171.139422</ele>
        <time>2024-09-21T22:56:38.209Z</time>
      </trkpt>
      <trkpt lat="48.645917" lon="1.967482">
        <ele>171.299434</ele>
        <time>2024-09-21T22:56:40.327Z</time>
      </trkpt>
      <trkpt lat="48.645784" lon="1.967461">
        <ele>171.515721</ele>
        <time>2024-09-21T22:56:42.999Z</time>
      </trkpt>
      <trkpt lat="48.645401" lon="1.967092">
        <ele>171.906077</ele>
        <time>2024-09-21T22:56:52.014Z</time>
      </trkpt>
      <trkpt lat="48.645078" lon="1.966843">
        <ele>172.217391</ele>
        <time>2024-09-21T22:56:58.883Z</time>
      </trkpt>
      <trkpt lat="48.644804" lon="1.966768">
        <ele>172.456528</ele>
        <time>2024-09-21T22:57:03.978Z</time>
      </trkpt>
      <trkpt lat="48.644424" lon="1.966755">
        <ele>172.782967</ele>
        <time>2024-09-21T22:57:10.477Z</time>
      </trkpt>
      <trkpt lat="48.643746" lon="1.966775">
        <ele>173.137971</ele>
        <time>2024-09-21T22:57:21.538Z</time>
      </trkpt>
      <trkpt lat="48.642811" lon="1.966454">
        <ele>173.345440</ele>
        <time>2024-09-21T22:57:36.494Z</time>
      </trkpt>
      <trkpt lat="48.642621" lon="1.966384">
        <ele>173.387755</ele>
        <time>2024-09-21T22:57:39.399Z</time>
      </trkpt>
      <trkpt lat="48.642510" lon="1.966270">
        <ele>173.416783</ele>
        <time>2024-09-21T22:57:41.498Z</time>
      </trkpt>
      <trkpt lat="48.642388" lon="1.965190">
        <ele>173.319252</ele>
        <time>2024-09-21T22:57:52.316Z</time>
      </trkpt>
      <trkpt lat="48.642365" lon="1.964927">
        <ele>173.278699</ele>
        <time>2024-09-21T22:57:54.826Z</time>
      </trkpt>
      <trkpt lat="48.642401" lon="1.963855">
        <ele>173.114621</ele>
        <time>2024-09-21T22:58:04.722Z</time>
      </trkpt>
      <trkpt lat="48.642355" lon="1.963305">
        <ele>173.014953</ele>
        <time>2024-09-21T22:58:09.550Z</time>
      </trkpt>
      <trkpt lat="48.642149" lon="1.962205">
        <ele>172.274891</ele>
        <time>2024-09-21T22:58:19.182Z</time>
      </trkpt>
      <trkpt lat="48.642003" lon="1.961093">
        <ele>171.541031</ele>
        <time>2024-09-21T22:58:28.326Z</time>
      </trkpt>
      <trkpt lat="48.641918" lon="1.960809">
        <ele>171.339221</ele>
        <time>2024-09-21T22:58:30.773Z</time>
      </trkpt>
      <trkpt lat="48.641683" lon="1.960340">
        <ele>170.556283</ele>
        <time>2024-09-21T22:58:35.380Z</time>
      </trkpt>
      <trkpt lat="48.639870" lon="1.955995">
        <ele>161.052511</ele>
        <time>2024-09-21T22:59:11.134Z</time>
      </trkpt>
      <trkpt lat="48.639105" lon="1.954218">
        <ele>151.239853</ele>
        <time>2024-09-21T22:59:23.648Z</time>
      </trkpt>
      <trkpt lat="48.638978" lon="1.953683">
        <ele>148.485968</ele>
        <time>2024-09-21T22:59:26.914Z</time>
      </trkpt>
      <trkpt lat="48.638976" lon="1.953535">
        <ele>147.677094</ele>
        <time>2024-09-21T22:59:27.761Z</time>
      </trkpt>
      <trkpt lat="48.639039" lon="1.953247">
        <ele>146.019413</ele>
        <time>2024-09-21T22:59:29.491Z</time>
      </trkpt>
      <trkpt lat="48.639124" lon="1.953121">
        <ele>145.035518</ele>
        <time>2024-09-21T22:59:30.525Z</time>
      </trkpt>
      <trkpt lat="48.639323" lon="1.952937">
        <ele>143.107130</ele>
        <time>2024-09-21T22:59:32.548Z</time>
      </trkpt>
      <trkpt lat="48.639386" lon="1.952840">
        <ele>142.363949</ele>
        <time>2024-09-21T22:59:33.335Z</time>
      </trkpt>
      <trkpt lat="48.639462" lon="1.952609">
        <ele>140.953928</ele>
        <time>2024-09-21T22:59:34.818Z</time>
      </trkpt>
      <trkpt lat="48.639474" lon="1.952452">
        <ele>140.090334</ele>
        <time>2024-09-21T22:59:35.732Z</time>
      </trkpt>
      <trkpt lat="48.639511" lon="1.951964">
        <ele>137.406326</ele>
        <time>2024-09-21T22:59:38.595Z</time>
      </trkpt>
      <trkpt lat="48.639489" lon="1.951633">
        <ele>135.588561</ele>
        <time>2024-09-21T22:59:40.557Z</time>
      </trkpt>
      <trkpt lat="48.639438" lon="1.951424">
        <ele>134.392013</ele>
        <time>2024-09-21T22:59:41.883Z</time>
      </trkpt>
      <trkpt lat="48.639346" lon="1.951314">
        <ele>133.838098</ele>
        <time>2024-09-21T22:59:42.960Z</time>
      </trkpt>
      <trkpt lat="48.639243" lon="1.951268">
        <ele>133.330756</ele>
        <time>2024-09-21T22:59:43.938Z</time>
      </trkpt>
      <trkpt lat="48.639102" lon="1.951268">
        <ele>132.664639</ele>
        <time>2024-09-21T22:59:45.235Z</time>
      </trkpt>
      <trkpt lat="48.638884" lon="1.951387">
        <ele>131.569804</ele>
        <time>2024-09-21T22:59:47.387Z</time>
      </trkpt>
      <trkpt lat="48.638100" lon="1.951899">
        <ele>127.535837</ele>
        <time>2024-09-21T22:59:55.538Z</time>
      </trkpt>
      <trkpt lat="48.637961" lon="1.952396">
        <ele>125.899999</ele>
        <time>2024-09-21T22:59:59.182Z</time>
      </trkpt>
      <trkpt lat="48.637807" lon="1.952892">
        <ele>125.359904</ele>
        <time>2024-09-21T23:00:03.114Z</time>
      </trkpt>
      <trkpt lat="48.637638" lon="1.953322">
        <ele>124.866833</ele>
        <time>2024-09-21T23:00:06.947Z</time>
      </trkpt>
      <trkpt lat="48.637363" lon="1.954068">
        <ele>124.024958</ele>
        <time>2024-09-21T23:00:13.681Z</time>
      </trkpt>
      <trkpt lat="48.637217" lon="1.954247">
        <ele>123.744718</ele>
        <time>2024-09-21T23:00:16.009Z</time>
      </trkpt>
      <trkpt lat="48.637133" lon="1.954276">
        <ele>123.616222</ele>
        <time>2024-09-21T23:00:17.041Z</time>
      </trkpt>
      <trkpt lat="48.637065" lon="1.954300">
        <ele>123.512085</ele>
        <time>2024-09-21T23:00:17.873Z</time>
      </trkpt>
      <trkpt lat="48.636687" lon="1.954190">
        <ele>123.393917</ele>
        <time>2024-09-21T23:00:22.839Z</time>
      </trkpt>
      <trkpt lat="48.636432" lon="1.954106">
        <ele>123.592106</ele>
        <time>2024-09-21T23:00:26.500Z</time>
      </trkpt>
      <trkpt lat="48.636331" lon="1.954081">
        <ele>123.669827</ele>
        <time>2024-09-21T23:00:27.899Z</time>
      </trkpt>
      <trkpt lat="48.636176" lon="1.954023">
        <ele>123.791084</ele>
        <time>2024-09-21T23:00:30.457Z</time>
      </trkpt>
      <trkpt lat="48.635620" lon="1.953838">
        <ele>124.223412</ele>
        <time>2024-09-21T23:00:40.644Z</time>
      </trkpt>
      <trkpt lat="48.635155" lon="1.953344">
        <ele>124.824032</ele>
        <time>2024-09-21T23:00:53.893Z</time>
      </trkpt>
      <trkpt lat="48.634950" lon="1.953034">
        <ele>125.806169</ele>
        <time>2024-09-21T23:01:01.077Z</time>
      </trkpt>
      <trkpt lat="48.634918" lon="1.952917">
        <ele>126.089745</ele>
        <time>2024-09-21T23:01:03.290Z</time>
      </trkpt>
      <trkpt lat="48.634881" lon="1.952786">
        <ele>126.408792</ele>
        <time>2024-09-21T23:01:05.704Z</time>
      </trkpt>
      <trkpt lat="48.634722" lon="1.951496">
        <ele>129.347585</ele>
        <time>2024-09-21T23:01:31.180Z</time>
      </trkpt>
      <trkpt lat="48.634226" lon="1.949895">
        <ele>134.322967</ele>
        <time>2024-09-21T23:02:08.628Z</time>
      </trkpt>
      <trkpt lat="48.633632" lon="1.947976">
        <ele>141.101915</ele>
        <time>2024-09-21T23:02:57.595Z</time>
      </trkpt>
      <trkpt lat="48.633525" lon="1.947647">
        <ele>142.363386</ele>
        <time>2024-09-21T23:03:06.317Z</time>
      </trkpt>
      <trkpt lat="48.633356" lon="1.947370">
        <ele>143.660332</ele>
        <time>2024-09-21T23:03:15.298Z</time>
      </trkpt>
      <trkpt lat="48.632718" lon="1.946650">
        <ele>147.803491</ele>
        <time>2024-09-21T23:03:44.050Z</time>
      </trkpt>
      <trkpt lat="48.632584" lon="1.946384">
        <ele>148.938062</ele>
        <time>2024-09-21T23:03:52.027Z</time>
      </trkpt>
      <trkpt lat="48.632520" lon="1.946015">
        <ele>150.200199</ele>
        <time>2024-09-21T23:04:01.024Z</time>
      </trkpt>
      <trkpt lat="48.632531" lon="1.944985">
        <ele>153.608291</ele>
        <time>2024-09-21T23:04:25.152Z</time>
      </trkpt>
      <trkpt lat="48.632585" lon="1.944232">
        <ele>156.114134</ele>
        <time>2024-09-21T23:04:42.910Z</time>
      </trkpt>
      <trkpt lat="48.633015" lon="1.941797">
        <ele>162.922729</ele>
        <time>2024-09-21T23:05:36.507Z</time>
      </trkpt>
      <trkpt lat="48.633362" lon="1.939849">
        <ele>166.227149</ele>
        <time>2024-09-21T23:06:09.795Z</time>
      </trkpt>
      <trkpt lat="48.633610" lon="1.937770">
        <ele>167.990034</ele>
        <time>2024-09-21T23:06:35.888Z</time>
      </trkpt>
      <trkpt lat="48.633615" lon="1.935652">
        <ele>168.337823</ele>
        <time>2024-09-21T23:06:56.841Z</time>
      </trkpt>
      <trkpt lat="48.633609" lon="1.935119">
        <ele>168.279690</ele>
        <time>2024-09-21T23:07:01.697Z</time>
      </trkpt>
      <trkpt lat="48.633412" lon="1.934341">
        <ele>168.188833</ele>
        <time>2024-09-21T23:07:09.397Z</time>
      </trkpt>
      <trkpt lat="48.633011" lon="1.933795">
        <ele>168.099817</ele>
        <time>2024-09-21T23:07:16.998Z</time>
      </trkpt>
      <trkpt lat="48.632089" lon="1.932727">
        <ele>168.142736</ele>
        <time>2024-09-21T23:07:33.678Z</time>
      </trkpt>
      <trkpt lat="48.631299" lon="1.931966">
        <ele>168.249032</ele>
        <time>2024-09-21T23:07:48.732Z</time>
      </trkpt>
      <trkpt lat="48.629632" lon="1.930039">
        <ele>169.129912</ele>
        <time>2024-09-21T23:08:24.318Z</time>
      </trkpt>
      <trkpt lat="48.627607" lon="1.927890">
        <ele>169.325296</ele>
        <time>2024-09-21T23:09:01.242Z</time>
      </trkpt>
      <trkpt lat="48.625748" lon="1.925744">
        <ele>169.193040</ele>
        <time>2024-09-21T23:09:34.715Z</time>
      </trkpt>
      <trkpt lat="48.624334" lon="1.924244">
        <ele>169.417581</ele>
        <time>2024-09-21T23:10:01.462Z</time>
      </trkpt>
      <trkpt lat="48.620848" lon="1.920344">
        <ele>170.233065</ele>
        <time>2024-09-21T23:11:09.513Z</time>
      </trkpt>
      <trkpt lat="48.620192" lon="1.919468">
        <ele>170.292230</ele>
        <time>2024-09-21T23:11:22.710Z</time>
      </trkpt>
      <trkpt lat="48.618654" lon="1.916887">
        <ele>169.706580</ele>
        <time>2024-09-21T23:11:55.882Z</time>
      </trkpt>
      <trkpt lat="48.617831" lon="1.915418">
        <ele>166.952535</ele>
        <time>2024-09-21T23:12:10.073Z</time>
      </trkpt>
      <trkpt lat="48.617725" lon="1.915126">
        <ele>166.476077</ele>
        <time>2024-09-21T23:12:12.312Z</time>
      </trkpt>
      <trkpt lat="48.617702" lon="1.914371">
        <ele>164.779062</ele>
        <time>2024-09-21T23:12:17.270Z</time>
      </trkpt>
      <trkpt lat="48.617656" lon="1.914173">
        <ele>164.067897</ele>
        <time>2024-09-21T23:12:18.613Z</time>
      </trkpt>
      <trkpt lat="48.617555" lon="1.913977">
        <ele>163.225797</ele>
        <time>2024-09-21T23:12:20.203Z</time>
      </trkpt>
      <trkpt lat="48.617422" lon="1.913838">
        <ele>162.397174</ele>
        <time>2024-09-21T23:12:21.752Z</time>
      </trkpt>
      <trkpt lat="48.617377" lon="1.913820">
        <ele>162.158583</ele>
        <time>2024-09-21T23:12:22.191Z</time>
      </trkpt>
      <trkpt lat="48.617306" lon="1.913792">
        <ele>161.782485</ele>
        <time>2024-09-21T23:12:22.886Z</time>
      </trkpt>
      <trkpt lat="48.616867" lon="1.913796">
        <ele>159.532209</ele>
        <time>2024-09-21T23:12:26.977Z</time>
      </trkpt>
      <trkpt lat="48.616714" lon="1.913756">
        <ele>158.736331</ele>
        <time>2024-09-21T23:12:28.406Z</time>
      </trkpt>
      <trkpt lat="48.616581" lon="1.913669">
        <ele>157.993582</ele>
        <time>2024-09-21T23:12:29.721Z</time>
      </trkpt>
      <trkpt lat="48.616394" lon="1.913432">
        <ele>156.743076</ele>
        <time>2024-09-21T23:12:31.941Z</time>
      </trkpt>
      <trkpt lat="48.616100" lon="1.912923">
        <ele>153.962345</ele>
        <time>2024-09-21T23:12:35.962Z</time>
      </trkpt>
      <trkpt lat="48.615971" lon="1.912762">
        <ele>152.911653</ele>
        <time>2024-09-21T23:12:37.487Z</time>
      </trkpt>
      <trkpt lat="48.615719" lon="1.912619">
        <ele>151.220733</ele>
        <time>2024-09-21T23:12:39.927Z</time>
      </trkpt>
      <trkpt lat="48.615278" lon="1.912458">
        <ele>148.370614</ele>
        <time>2024-09-21T23:12:44.065Z</time>
      </trkpt>
      <trkpt lat="48.615067" lon="1.912289">
        <ele>146.870642</ele>
        <time>2024-09-21T23:12:46.247Z</time>
      </trkpt>
      <trkpt lat="48.614994" lon="1.912181">
        <ele>146.229123</ele>
        <time>2024-09-21T23:12:47.193Z</time>
      </trkpt>
      <trkpt lat="48.614920" lon="1.911957">
        <ele>145.222275</ele>
        <time>2024-09-21T23:12:48.707Z</time>
      </trkpt>
      <trkpt lat="48.614806" lon="1.911266">
        <ele>142.983854</ele>
        <time>2024-09-21T23:12:53.054Z</time>
      </trkpt>
      <trkpt lat="48.614697" lon="1.910988">
        <ele>141.967989</ele>
        <time>2024-09-21T23:12:55.045Z</time>
      </trkpt>
      <trkpt lat="48.614523" lon="1.910737">
        <ele>140.824906</ele>
        <time>2024-09-21T23:12:57.308Z</time>
      </trkpt>
      <trkpt lat="48.614198" lon="1.910437">
        <ele>139.014836</ele>
        <time>2024-09-21T23:13:00.959Z</time>
      </trkpt>
      <trkpt lat="48.612461" lon="1.909144">
        <ele>132.130221</ele>
        <time>2024-09-21T23:13:20.433Z</time>
      </trkpt>
      <trkpt lat="48.612588" lon="1.908788">
        <ele>131.282200</ele>
        <time>2024-09-21T23:13:23.202Z</time>
      </trkpt>
      <trkpt lat="48.612841" lon="1.908156">
        <ele>130.482398</ele>
        <time>2024-09-21T23:13:28.377Z</time>
      </trkpt>
      <trkpt lat="48.613064" lon="1.907816">
        <ele>130.040397</ele>
        <time>2024-09-21T23:13:31.879Z</time>
      </trkpt>
      <trkpt lat="48.612818" lon="1.907369">
        <ele>129.503639</ele>
        <time>2024-09-21T23:13:36.273Z</time>
      </trkpt>
      <trkpt lat="48.611173" lon="1.904384">
        <ele>128.706977</ele>
        <time>2024-09-21T23:14:12.252Z</time>
      </trkpt>
      <trkpt lat="48.608462" lon="1.901696">
        <ele>135.084494</ele>
        <time>2024-09-21T23:15:27.644Z</time>
      </trkpt>
      <trkpt lat="48.607775" lon="1.900996">
        <ele>137.233013</ele>
        <time>2024-09-21T23:15:48.905Z</time>
      </trkpt>
      <trkpt lat="48.606476" lon="1.899892">
        <ele>141.453576</ele>
        <time>2024-09-21T23:16:27.996Z</time>
      </trkpt>
      <trkpt lat="48.606243" lon="1.899693">
        <ele>142.295705</ele>
        <time>2024-09-21T23:16:34.866Z</time>
      </trkpt>
      <trkpt lat="48.605556" lon="1.899109">
        <ele>144.775914</ele>
        <time>2024-09-21T23:16:56.040Z</time>
      </trkpt>
      <trkpt lat="48.604174" lon="1.897932">
        <ele>150.238605</ele>
        <time>2024-09-21T23:17:42.622Z</time>
      </trkpt>
      <trkpt lat="48.603823" lon="1.897695">
        <ele>151.612627</ele>
        <time>2024-09-21T23:17:54.147Z</time>
      </trkpt>
      <trkpt lat="48.601785" lon="1.896912">
        <ele>158.628823</ele>
        <time>2024-09-21T23:18:53.906Z</time>
      </trkpt>
      <trkpt lat="48.601649" lon="1.896992">
        <ele>158.958750</ele>
        <time>2024-09-21T23:18:57.583Z</time>
      </trkpt>
      <trkpt lat="48.601284" lon="1.897481">
        <ele>160.032867</ele>
        <time>2024-09-21T23:19:09.871Z</time>
      </trkpt>
      <trkpt lat="48.600591" lon="1.898489">
        <ele>162.150863</ele>
        <time>2024-09-21T23:19:31.843Z</time>
      </trkpt>
      <trkpt lat="48.600097" lon="1.899151">
        <ele>163.008604</ele>
        <time>2024-09-21T23:19:45.596Z</time>
      </trkpt>
      <trkpt lat="48.596657" lon="1.902969">
        <ele>166.407691</ele>
        <time>2024-09-21T23:21:01.461Z</time>
      </trkpt>
      <trkpt lat="48.595329" lon="1.904437">
        <ele>166.783359</ele>
        <time>2024-09-21T23:21:27.825Z</time>
      </trkpt>
      <trkpt lat="48.593492" lon="1.906448">
        <ele>166.320580</ele>
        <time>2024-09-21T23:21:58.753Z</time>
      </trkpt>
      <trkpt lat="48.593415" lon="1.906487">
        <ele>166.295228</ele>
        <time>2024-09-21T23:21:59.895Z</time>
      </trkpt>
      <trkpt lat="48.593340" lon="1.906454">
        <ele>166.270843</ele>
        <time>2024-09-21T23:22:00.987Z</time>
      </trkpt>
      <trkpt lat="48.592658" lon="1.904655">
        <ele>166.009832</ele>
        <time>2024-09-21T23:22:21.029Z</time>
      </trkpt>
      <trkpt lat="48.592166" lon="1.903177">
        <ele>165.649359</ele>
        <time>2024-09-21T23:22:36.048Z</time>
      </trkpt>
      <trkpt lat="48.592040" lon="1.902893">
        <ele>165.525229</ele>
        <time>2024-09-21T23:22:39.005Z</time>
      </trkpt>
      <trkpt lat="48.591903" lon="1.902844">
        <ele>165.447969</ele>
        <time>2024-09-21T23:22:40.787Z</time>
      </trkpt>
      <trkpt lat="48.591681" lon="1.902927">
        <ele>165.322466</ele>
        <time>2024-09-21T23:22:43.686Z</time>
      </trkpt>
      <trkpt lat="48.591621" lon="1.902814">
        <ele>165.269868</ele>
        <time>2024-09-21T23:22:44.877Z</time>
      </trkpt>
      <trkpt lat="48.591033" lon="1.900462">
        <ele>164.626025</ele>
        <time>2024-09-21T23:23:06.511Z</time>
      </trkpt>
      <trkpt lat="48.590934" lon="1.900244">
        <ele>164.576219</ele>
        <time>2024-09-21T23:23:09.050Z</time>
      </trkpt>
      <trkpt lat="48.589695" lon="1.898143">
        <ele>164.461583</ele>
        <time>2024-09-21T23:23:37.881Z</time>
      </trkpt>
      <trkpt lat="48.589532" lon="1.897808">
        <ele>164.474236</ele>
        <time>2024-09-21T23:23:41.958Z</time>
      </trkpt>
      <trkpt lat="48.589240" lon="1.897407">
        <ele>164.413856</ele>
        <time>2024-09-21T23:23:47.626Z</time>
      </trkpt>
      <trkpt lat="48.588898" lon="1.896995">
        <ele>164.164086</ele>
        <time>2024-09-21T23:23:53.595Z</time>
      </trkpt>
      <trkpt lat="48.587911" lon="1.895927">
        <ele>163.470825</ele>
        <time>2024-09-21T23:24:09.030Z</time>
      </trkpt>
      <trkpt lat="48.587301" lon="1.895100">
        <ele>162.891695</ele>
        <time>2024-09-21T23:24:19.371Z</time>
      </trkpt>
      <trkpt lat="48.586938" lon="1.894509">
        <ele>162.512786</ele>
        <time>2024-09-21T23:24:26.217Z</time>
      </trkpt>
      <trkpt lat="48.586323" lon="1.893239">
        <ele>161.765377</ele>
        <time>2024-09-21T23:24:39.712Z</time>
      </trkpt>
      <trkpt lat="48.585822" lon="1.892341">
        <ele>161.202728</ele>
        <time>2024-09-21T23:24:49.718Z</time>
      </trkpt>
      <trkpt lat="48.585363" lon="1.891431">
        <ele>160.647121</ele>
        <time>2024-09-21T23:24:59.137Z</time>
      </trkpt>
      <trkpt lat="48.584922" lon="1.890151">
        <ele>159.932801</ele>
        <time>2024-09-21T23:25:10.920Z</time>
      </trkpt>
      <trkpt lat="48.584806" lon="1.889936">
        <ele>159.795478</ele>
        <time>2024-09-21T23:25:13.253Z</time>
      </trkpt>
      <trkpt lat="48.583945" lon="1.888788">
        <ele>159.655500</ele>
        <time>2024-09-21T23:25:28.886Z</time>
      </trkpt>
      <trkpt lat="48.581503" lon="1.887305">
        <ele>161.026320</ele>
        <time>2024-09-21T23:26:14.469Z</time>
      </trkpt>
      <trkpt lat="48.580979" lon="1.886706">
        <ele>161.737196</ele>
        <time>2024-09-21T23:26:27.587Z</time>
      </trkpt>
      <trkpt lat="48.580208" lon="1.885671">
        <ele>162.971306</ele>
        <time>2024-09-21T23:26:49.343Z</time>
      </trkpt>
      <trkpt lat="48.579281" lon="1.886557">
        <ele>162.310878</ele>
        <time>2024-09-21T23:27:07.367Z</time>
      </trkpt>
      <trkpt lat="48.578213" lon="1.887577">
        <ele>159.635243</ele>
        <time>2024-09-21T23:27:20.841Z</time>
      </trkpt>
      <trkpt lat="48.577465" lon="1.886743">
        <ele>154.758837</ele>
        <time>2024-09-21T23:27:29.456Z</time>
      </trkpt>
      <trkpt lat="48.576906" lon="1.886242">
        <ele>151.310214</ele>
        <time>2024-09-21T23:27:35.359Z</time>
      </trkpt>
      <trkpt lat="48.576736" lon="1.886057">
        <ele>150.083473</ele>
        <time>2024-09-21T23:27:37.248Z</time>
      </trkpt>
      <trkpt lat="48.576183" lon="1.885084">
        <ele>145.113567</ele>
        <time>2024-09-21T23:27:44.959Z</time>
      </trkpt>
      <trkpt lat="48.576068" lon="1.884878">
        <ele>144.069246</ele>
        <time>2024-09-21T23:27:46.596Z</time>
      </trkpt>
      <trkpt lat="48.575876" lon="1.884411">
        <ele>141.938924</ele>
        <time>2024-09-21T23:27:49.959Z</time>
      </trkpt>
      <trkpt lat="48.575294" lon="1.882230">
        <ele>136.550547</ele>
        <time>2024-09-21T23:28:05.332Z</time>
      </trkpt>
      <trkpt lat="48.575143" lon="1.881660">
        <ele>135.349709</ele>
        <time>2024-09-21T23:28:09.932Z</time>
      </trkpt>
      <trkpt lat="48.575171" lon="1.880799">
        <ele>135.724242</ele>
        <time>2024-09-21T23:28:17.626Z</time>
      </trkpt>
      <trkpt lat="48.575048" lon="1.879821">
        <ele>136.156765</ele>
        <time>2024-09-21T23:28:30.593Z</time>
      </trkpt>
      <trkpt lat="48.575076" lon="1.879284">
        <ele>136.390801</ele>
        <time>2024-09-21T23:28:38.716Z</time>
      </trkpt>
      <trkpt lat="48.575446" lon="1.878438">
        <ele>137.021878</ele>
        <time>2024-09-21T23:28:54.244Z</time>
      </trkpt>
      <trkpt lat="48.575499" lon="1.878344">
        <ele>137.107488</ele>
        <time>2024-09-21T23:28:56.113Z</time>
      </trkpt>
      <trkpt lat="48.575814" lon="1.877867">
        <ele>137.574657</ele>
        <time>2024-09-21T23:29:05.149Z</time>
      </trkpt>
      <trkpt lat="48.575839" lon="1.877834">
        <ele>137.609432</ele>
        <time>2024-09-21T23:29:05.747Z</time>
      </trkpt>
      <trkpt lat="48.575531" lon="1.877012">
        <ele>138.264262</ele>
        <time>2024-09-21T23:29:19.671Z</time>
      </trkpt>
      <trkpt lat="48.575183" lon="1.877193">
        <ele>138.388198</ele>
        <time>2024-09-21T23:29:24.699Z</time>
      </trkpt>
      <trkpt lat="48.573918" lon="1.877418">
        <ele>138.347250</ele>
        <time>2024-09-21T23:29:41.190Z</time>
      </trkpt>
      <trkpt lat="48.571692" lon="1.877814">
        <ele>141.380079</ele>
        <time>2024-09-21T23:30:27.800Z</time>
      </trkpt>
      <trkpt lat="48.570428" lon="1.877979">
        <ele>144.711329</ele>
        <time>2024-09-21T23:31:07.159Z</time>
      </trkpt>
      <trkpt lat="48.569880" lon="1.877912">
        <ele>146.250507</ele>
        <time>2024-09-21T23:31:25.207Z</time>
      </trkpt>
      <trkpt lat="48.569223" lon="1.877815">
        <ele>148.334440</ele>
        <time>2024-09-21T23:31:47.072Z</time>
      </trkpt>
      <trkpt lat="48.568453" lon="1.877691">
        <ele>150.778988</ele>
        <time>2024-09-21T23:32:12.491Z</time>
      </trkpt>
      <trkpt lat="48.568300" lon="1.877703">
        <ele>151.262638</ele>
        <time>2024-09-21T23:32:17.486Z</time>
      </trkpt>
      <trkpt lat="48.568143" lon="1.877790">
        <ele>151.746487</ele>
        <time>2024-09-21T23:32:22.963Z</time>
      </trkpt>
      <trkpt lat="48.568020" lon="1.877901">
        <ele>152.152427</ele>
        <time>2024-09-21T23:32:27.758Z</time>
      </trkpt>
      <trkpt lat="48.567666" lon="1.878316">
        <ele>153.421940</ele>
        <time>2024-09-21T23:32:42.835Z</time>
      </trkpt>
      <trkpt lat="48.567465" lon="1.878468">
        <ele>154.058814</ele>
        <time>2024-09-21T23:32:50.352Z</time>
      </trkpt>
      <trkpt lat="48.567166" lon="1.878583">
        <ele>154.933052</ele>
        <time>2024-09-21T23:33:00.345Z</time>
      </trkpt>
      <trkpt lat="48.565351" lon="1.878884">
        <ele>158.539160</ele>
        <time>2024-09-21T23:33:52.130Z</time>
      </trkpt>
      <trkpt lat="48.561720" lon="1.879147">
        <ele>161.096922</ele>
        <time>2024-09-21T23:35:14.504Z</time>
      </trkpt>
      <trkpt lat="48.561156" lon="1.879270">
        <ele>161.252118</ele>
        <time>2024-09-21T23:35:26.030Z</time>
      </trkpt>
      <trkpt lat="48.558969" lon="1.879965">
        <ele>160.252516</ele>
        <time>2024-09-21T23:36:07.985Z</time>
      </trkpt>
      <trkpt lat="48.558487" lon="1.880060">
        <ele>159.913342</ele>
        <time>2024-09-21T23:36:16.683Z</time>
      </trkpt>
      <trkpt lat="48.556633" lon="1.880052">
        <ele>158.679290</ele>
        <time>2024-09-21T23:36:49.493Z</time>
      </trkpt>
      <trkpt lat="48.555952" lon="1.879910">
        <ele>158.237736</ele>
        <time>2024-09-21T23:37:02.109Z</time>
      </trkpt>
      <trkpt lat="48.556739" lon="1.875484">
        <ele>158.094188</ele>
        <time>2024-09-21T23:38:02.953Z</time>
      </trkpt>
      <trkpt lat="48.556955" lon="1.874306">
        <ele>158.063964</ele>
        <time>2024-09-21T23:38:20.158Z</time>
      </trkpt>
      <trkpt lat="48.556573" lon="1.873886">
        <ele>157.933579</ele>
        <time>2024-09-21T23:38:29.772Z</time>
      </trkpt>
      <trkpt lat="48.556493" lon="1.873764">
        <ele>157.902208</ele>
        <time>2024-09-21T23:38:32.029Z</time>
      </trkpt>
      <trkpt lat="48.556367" lon="1.873352">
        <ele>157.819304</ele>
        <time>2024-09-21T23:38:37.788Z</time>
      </trkpt>
      <trkpt lat="48.556320" lon="1.872901">
        <ele>157.735906</ele>
        <time>2024-09-21T23:38:43.370Z</time>
      </trkpt>
      <trkpt lat="48.556350" lon="1.872627">
        <ele>157.685175</ele>
        <time>2024-09-21T23:38:46.749Z</time>
      </trkpt>
      <trkpt lat="48.556465" lon="1.871758">
        <ele>157.323324</ele>
        <time>2024-09-21T23:38:57.247Z</time>
      </trkpt>
      <trkpt lat="48.556485" lon="1.870873">
        <ele>156.844113</ele>
        <time>2024-09-21T23:39:07.661Z</time>
      </trkpt>
      <trkpt lat="48.556486" lon="1.870852">
        <ele>156.832719</ele>
        <time>2024-09-21T23:39:07.915Z</time>
      </trkpt>
      <trkpt lat="48.556634" lon="1.869661">
        <ele>156.176930</ele>
        <time>2024-09-21T23:39:21.832Z</time>
      </trkpt>
      <trkpt lat="48.556681" lon="1.869517">
        <ele>156.116901</ele>
        <time>2024-09-21T23:39:23.710Z</time>
      </trkpt>
      <trkpt lat="48.556779" lon="1.869529">
        <ele>156.069966</ele>
        <time>2024-09-21T23:39:25.462Z</time>
      </trkpt>
      <trkpt lat="48.556852" lon="1.869484">
        <ele>156.032329</ele>
        <time>2024-09-21T23:39:26.873Z</time>
      </trkpt>
      <trkpt lat="48.556829" lon="1.869358">
        <ele>155.991032</ele>
        <time>2024-09-21T23:39:28.430Z</time>
      </trkpt>
      <trkpt lat="48.556746" lon="1.869260">
        <ele>155.940747</ele>
        <time>2024-09-21T23:39:30.347Z</time>
      </trkpt>
      <trkpt lat="48.556689" lon="1.869234">
        <ele>155.912324</ele>
        <time>2024-09-21T23:39:31.431Z</time>
      </trkpt>
      <trkpt lat="48.556679" lon="1.869255">
        <ele>155.904150</ele>
        <time>2024-09-21T23:39:31.756Z</time>
      </trkpt>
      <trkpt lat="48.556663" lon="1.869173">
        <ele>155.877139</ele>
        <time>2024-09-21T23:39:32.810Z</time>
      </trkpt>
      <trkpt lat="48.556624" lon="1.869134">
        <ele>155.854813</ele>
        <time>2024-09-21T23:39:33.660Z</time>
      </trkpt>
      <trkpt lat="48.556405" lon="1.868878">
        <ele>155.722632</ele>
        <time>2024-09-21T23:39:38.912Z</time>
      </trkpt>
      <trkpt lat="48.555942" lon="1.868446">
        <ele>155.462860</ele>
        <time>2024-09-21T23:39:49.272Z</time>
      </trkpt>
      <trkpt lat="48.555156" lon="1.867629">
        <ele>155.170950</ele>
        <time>2024-09-21T23:40:07.475Z</time>
      </trkpt>
      <trkpt lat="48.554587" lon="1.866812">
        <ele>155.008589</ele>
        <time>2024-09-21T23:40:22.877Z</time>
      </trkpt>
      <trkpt lat="48.554448" lon="1.866631">
        <ele>154.970634</ele>
        <time>2024-09-21T23:40:26.477Z</time>
      </trkpt>
      <trkpt lat="48.554269" lon="1.866461">
        <ele>154.926903</ele>
        <time>2024-09-21T23:40:30.674Z</time>
      </trkpt>
      <trkpt lat="48.553910" lon="1.866393">
        <ele>154.957259</ele>
        <time>2024-09-21T23:40:37.905Z</time>
      </trkpt>
      <trkpt lat="48.552690" lon="1.866363">
        <ele>155.074198</ele>
        <time>2024-09-21T23:41:03.067Z</time>
      </trkpt>
      <trkpt lat="48.552449" lon="1.866302">
        <ele>155.100298</ele>
        <time>2024-09-21T23:41:08.267Z</time>
      </trkpt>
      <trkpt lat="48.552335" lon="1.866225">
        <ele>155.137214</ele>
        <time>2024-09-21T23:41:10.901Z</time>
      </trkpt>
      <trkpt lat="48.550609" lon="1.864974">
        <ele>155.796065</ele>
        <time>2024-09-21T23:41:51.991Z</time>
      </trkpt>
      <trkpt lat="48.550281" lon="1.864776">
        <ele>156.029693</ele>
        <time>2024-09-21T23:41:59.787Z</time>
      </trkpt>
      <trkpt lat="48.549894" lon="1.864637">
        <ele>156.292800</ele>
        <time>2024-09-21T23:42:08.685Z</time>
      </trkpt>
      <trkpt lat="48.546957" lon="1.863811">
        <ele>158.762282</ele>
        <time>2024-09-21T23:43:19.855Z</time>
      </trkpt>
      <trkpt lat="48.546848" lon="1.863806">
        <ele>158.853499</ele>
        <time>2024-09-21T23:43:22.523Z</time>
      </trkpt>
      <trkpt lat="48.546783" lon="1.863762">
        <ele>158.913079</ele>
        <time>2024-09-21T23:43:24.228Z</time>
      </trkpt>
      <trkpt lat="48.545837" lon="1.863741">
        <ele>159.704464</ele>
        <time>2024-09-21T23:43:46.777Z</time>
      </trkpt>
      <trkpt lat="48.545297" lon="1.863561">
        <ele>160.012977</ele>
        <time>2024-09-21T23:43:59.594Z</time>
      </trkpt>
      <trkpt lat="48.544771" lon="1.863272">
        <ele>160.168690</ele>
        <time>2024-09-21T23:44:11.900Z</time>
      </trkpt>
      <trkpt lat="48.544389" lon="1.863104">
        <ele>160.279375</ele>
        <time>2024-09-21T23:44:20.333Z</time>
      </trkpt>
      <trkpt lat="48.541239" lon="1.862121">
        <ele>160.170580</ele>
        <time>2024-09-21T23:45:23.862Z</time>
      </trkpt>
      <trkpt lat="48.541102" lon="1.862066">
        <ele>160.152529</ele>
        <time>2024-09-21T23:45:26.641Z</time>
      </trkpt>
      <trkpt lat="48.540774" lon="1.861802">
        <ele>160.105202</ele>
        <time>2024-09-21T23:45:33.902Z</time>
      </trkpt>
      <trkpt lat="48.540410" lon="1.861195">
        <ele>160.066289</ele>
        <time>2024-09-21T23:45:44.661Z</time>
      </trkpt>
      <trkpt lat="48.540063" lon="1.860752">
        <ele>160.133167</ele>
        <time>2024-09-21T23:45:53.851Z</time>
      </trkpt>
      <trkpt lat="48.538982" lon="1.859719">
        <ele>160.328601</ele>
        <time>2024-09-21T23:46:20.823Z</time>
      </trkpt>
      <trkpt lat="48.537613" lon="1.858276">
        <ele>160.841308</ele>
        <time>2024-09-21T23:46:56.952Z</time>
      </trkpt>
      <trkpt lat="48.537019" lon="1.857756">
        <ele>160.864854</ele>
        <time>2024-09-21T23:47:11.331Z</time>
      </trkpt>
      <trkpt lat="48.535893" lon="1.857059">
        <ele>160.851702</ele>
        <time>2024-09-21T23:47:35.583Z</time>
      </trkpt>
      <trkpt lat="48.535222" lon="1.856578">
        <ele>160.546170</ele>
        <time>2024-09-21T23:47:49.703Z</time>
      </trkpt>
      <trkpt lat="48.534757" lon="1.856136">
        <ele>160.320158</ele>
        <time>2024-09-21T23:47:59.911Z</time>
      </trkpt>
      <trkpt lat="48.534331" lon="1.855610">
        <ele>160.083691</ele>
        <time>2024-09-21T23:48:09.984Z</time>
      </trkpt>
      <trkpt lat="48.533448" lon="1.854196">
        <ele>159.351235</ele>
        <time>2024-09-21T23:48:33.636Z</time>
      </trkpt>
      <trkpt lat="48.532601" lon="1.852778">
        <ele>158.849543</ele>
        <time>2024-09-21T23:48:57.144Z</time>
      </trkpt>
      <trkpt lat="48.532316" lon="1.852121">
        <ele>158.692308</ele>
        <time>2024-09-21T23:49:07.206Z</time>
      </trkpt>
      <trkpt lat="48.532097" lon="1.851403">
        <ele>158.558683</ele>
        <time>2024-09-21T23:49:17.503Z</time>
      </trkpt>
      <trkpt lat="48.532326" lon="1.851271">
        <ele>158.582001</ele>
        <time>2024-09-21T23:49:22.409Z</time>
      </trkpt>
      <trkpt lat="48.532614" lon="1.851044">
        <ele>158.612906</ele>
        <time>2024-09-21T23:49:28.939Z</time>
      </trkpt>
      <trkpt lat="48.534043" lon="1.849847">
        <ele>158.861298</ele>
        <time>2024-09-21T23:50:03.307Z</time>
      </trkpt>
      <trkpt lat="48.534540" lon="1.849530">
        <ele>159.019895</ele>
        <time>2024-09-21T23:50:15.041Z</time>
      </trkpt>
      <trkpt lat="48.535311" lon="1.849099">
        <ele>159.254112</ele>
        <time>2024-09-21T23:50:32.859Z</time>
      </trkpt>
      <trkpt lat="48.535590" lon="1.848998">
        <ele>159.268075</ele>
        <time>2024-09-21T23:50:38.814Z</time>
      </trkpt>
      <trkpt lat="48.535993" lon="1.848938">
        <ele>159.287783</ele>
        <time>2024-09-21T23:50:46.999Z</time>
      </trkpt>
      <trkpt lat="48.536038" lon="1.848300">
        <ele>159.308459</ele>
        <time>2024-09-21T23:50:55.484Z</time>
      </trkpt>
      <trkpt lat="48.535995" lon="1.847623">
        <ele>159.330376</ele>
        <time>2024-09-21T23:51:04.601Z</time>
      </trkpt>
      <trkpt lat="48.536055" lon="1.847210">
        <ele>159.273820</ele>
        <time>2024-09-21T23:51:10.417Z</time>
      </trkpt>
      <trkpt lat="48.536218" lon="1.846561">
        <ele>158.886682</ele>
        <time>2024-09-21T23:51:19.428Z</time>
      </trkpt>
      <trkpt lat="48.536332" lon="1.846407">
        <ele>158.757849</ele>
        <time>2024-09-21T23:51:22.270Z</time>
      </trkpt>
      <trkpt lat="48.536993" lon="1.846953">
        <ele>158.123237</ele>
        <time>2024-09-21T23:51:31.554Z</time>
      </trkpt>
      <trkpt lat="48.537234" lon="1.847039">
        <ele>157.914648</ele>
        <time>2024-09-21T23:51:34.479Z</time>
      </trkpt>
      <trkpt lat="48.537422" lon="1.846954">
        <ele>157.565344</ele>
        <time>2024-09-21T23:51:36.727Z</time>
      </trkpt>
      <trkpt lat="48.538171" lon="1.846827">
        <ele>155.389049</ele>
        <time>2024-09-21T23:51:44.797Z</time>
      </trkpt>
      <trkpt lat="48.538333" lon="1.846834">
        <ele>154.921090</ele>
        <time>2024-09-21T23:51:46.432Z</time>
      </trkpt>
      <trkpt lat="48.538687" lon="1.846543">
        <ele>153.757333</ele>
        <time>2024-09-21T23:51:50.389Z</time>
      </trkpt>
      <trkpt lat="48.538334" lon="1.845184">
        <ele>151.398143</ele>
        <time>2024-09-21T23:51:59.901Z</time>
      </trkpt>
      <trkpt lat="48.538216" lon="1.844545">
        <ele>150.458699</ele>
        <time>2024-09-21T23:52:04.461Z</time>
      </trkpt>
      <trkpt lat="48.538213" lon="1.843996">
        <ele>149.681214</ele>
        <time>2024-09-21T23:52:08.406Z</time>
      </trkpt>
      <trkpt lat="48.538542" lon="1.841941">
        <ele>150.073242</ele>
        <time>2024-09-21T23:52:32.193Z</time>
      </trkpt>
      <trkpt lat="48.539083" lon="1.839959">
        <ele>152.190628</ele>
        <time>2024-09-21T23:53:07.464Z</time>
      </trkpt>
      <trkpt lat="48.540950" lon="1.837396">
        <ele>155.793144</ele>
        <time>2024-09-21T23:53:58.241Z</time>
      </trkpt>
      <trkpt lat="48.542146" lon="1.833488">
        <ele>158.010377</ele>
        <time>2024-09-21T23:54:49.295Z</time>
      </trkpt>
      <trkpt lat="48.542820" lon="1.832742">
        <ele>158.388767</ele>
        <time>2024-09-21T23:55:03.521Z</time>
      </trkpt>
      <trkpt lat="48.543266" lon="1.832196">
        <ele>158.526719</ele>
        <time>2024-09-21T23:55:11.623Z</time>
      </trkpt>
      <trkpt lat="48.543350" lon="1.832058">
        <ele>158.503225</ele>
        <time>2024-09-21T23:55:13.423Z</time>
      </trkpt>
      <trkpt lat="48.543501" lon="1.831810">
        <ele>158.460999</ele>
        <time>2024-09-21T23:55:16.397Z</time>
      </trkpt>
      <trkpt lat="48.544078" lon="1.830656">
        <ele>158.279762</ele>
        <time>2024-09-21T23:55:29.712Z</time>
      </trkpt>
      <trkpt lat="48.544139" lon="1.830570">
        <ele>158.263967</ele>
        <time>2024-09-21T23:55:30.792Z</time>
      </trkpt>
      <trkpt lat="48.544160" lon="1.830216">
        <ele>158.227956</ele>
        <time>2024-09-21T23:55:34.490Z</time>
      </trkpt>
      <trkpt lat="48.544171" lon="1.829860">
        <ele>158.320138</ele>
        <time>2024-09-21T23:55:37.933Z</time>
      </trkpt>
      <trkpt lat="48.544167" lon="1.829538">
        <ele>158.403440</ele>
        <time>2024-09-21T23:55:40.874Z</time>
      </trkpt>
      <trkpt lat="48.544117" lon="1.829409">
        <ele>158.442105</ele>
        <time>2024-09-21T23:55:42.469Z</time>
      </trkpt>
      <trkpt lat="48.544035" lon="1.829306">
        <ele>158.483772</ele>
        <time>2024-09-21T23:55:44.243Z</time>
      </trkpt>
      <trkpt lat="48.543891" lon="1.829254">
        <ele>158.541618</ele>
        <time>2024-09-21T23:55:46.440Z</time>
      </trkpt>
      <trkpt lat="48.543819" lon="1.829267">
        <ele>158.569948</ele>
        <time>2024-09-21T23:55:47.636Z</time>
      </trkpt>
      <trkpt lat="48.543699" lon="1.829349">
        <ele>158.621406</ele>
        <time>2024-09-21T23:55:50.012Z</time>
      </trkpt>
      <trkpt lat="48.543566" lon="1.829509">
        <ele>158.687835</ele>
        <time>2024-09-21T23:55:52.710Z</time>
      </trkpt>
      <trkpt lat="48.543480" lon="1.829549">
        <ele>158.722992</ele>
        <time>2024-09-21T23:55:54.399Z</time>
      </trkpt>
      <trkpt lat="48.542993" lon="1.829530">
        <ele>158.913324</ele>
        <time>2024-09-21T23:56:03.454Z</time>
      </trkpt>
      <trkpt lat="48.542911" lon="1.829496">
        <ele>158.949282</ele>
        <time>2024-09-21T23:56:04.931Z</time>
      </trkpt>
      <trkpt lat="48.542837" lon="1.829413">
        <ele>158.989852</ele>
        <time>2024-09-21T23:56:06.598Z</time>
      </trkpt>
      <trkpt lat="48.542770" lon="1.829311">
        <ele>159.031723</ele>
        <time>2024-09-21T23:56:08.421Z</time>
      </trkpt>
      <trkpt lat="48.542736" lon="1.829158">
        <ele>159.078753</ele>
        <time>2024-09-21T23:56:10.477Z</time>
      </trkpt>
      <trkpt lat="48.543157" lon="1.821063">
        <ele>161.291180</ele>
        <time>2024-09-21T23:57:38.177Z</time>
      </trkpt>
      <trkpt lat="48.543230" lon="1.820262">
        <ele>161.475702</ele>
        <time>2024-09-21T23:57:47.007Z</time>
      </trkpt>
      <trkpt lat="48.543335" lon="1.819348">
        <ele>161.687405</ele>
        <time>2024-09-21T23:57:57.146Z</time>
      </trkpt>
      <trkpt lat="48.543513" lon="1.816474">
        <ele>161.831727</ele>
        <time>2024-09-21T23:58:26.389Z</time>
      </trkpt>
      <trkpt lat="48.543234" lon="1.816133">
        <ele>161.752536</ele>
        <time>2024-09-21T23:58:31.293Z</time>
      </trkpt>
      <trkpt lat="48.541807" lon="1.814246">
        <ele>160.661968</ele>
        <time>2024-09-21T23:58:55.917Z</time>
      </trkpt>
      <trkpt lat="48.540353" lon="1.812200">
        <ele>159.184037</ele>
        <time>2024-09-21T23:59:21.108Z</time>
      </trkpt>
      <trkpt lat="48.539893" lon="1.811662">
        <ele>158.718405</ele>
        <time>2024-09-21T23:59:28.575Z</time>
      </trkpt>
      <trkpt lat="48.539419" lon="1.811200">
        <ele>158.266909</ele>
        <time>2024-09-21T23:59:35.616Z</time>
      </trkpt>
      <trkpt lat="48.538970" lon="1.810678">
        <ele>157.775360</ele>
        <time>2024-09-21T23:59:42.607Z</time>
      </trkpt>
      <trkpt lat="48.538415" lon="1.809913">
        <ele>157.092744</ele>
        <time>2024-09-21T23:59:51.771Z</time>
      </trkpt>
      <trkpt lat="48.537734" lon="1.808710">
        <ele>156.337360</ele>
        <time>2024-09-22T00:00:04.726Z</time>
      </trkpt>
      <trkpt lat="48.536265" lon="1.806353">
        <ele>155.643450</ele>
        <time>2024-09-22T00:00:35.114Z</time>
      </trkpt>
      <trkpt lat="48.535907" lon="1.805831">
        <ele>155.510338</ele>
        <time>2024-09-22T00:00:42.070Z</time>
      </trkpt>
      <trkpt lat="48.535785" lon="1.805478">
        <ele>155.439809</ele>
        <time>2024-09-22T00:00:45.757Z</time>
      </trkpt>
      <trkpt lat="48.534942" lon="1.804204">
        <ele>154.240862</ele>
        <time>2024-09-22T00:01:01.677Z</time>
      </trkpt>
      <trkpt lat="48.534445" lon="1.803454">
        <ele>153.327782</ele>
        <time>2024-09-22T00:01:09.631Z</time>
      </trkpt>
      <trkpt lat="48.533957" lon="1.803081">
        <ele>151.834896</ele>
        <time>2024-09-22T00:01:15.467Z</time>
      </trkpt>
      <trkpt lat="48.533758" lon="1.802870">
        <ele>150.892288</ele>
        <time>2024-09-22T00:01:17.945Z</time>
      </trkpt>
      <trkpt lat="48.532678" lon="1.802104">
        <ele>146.266754</ele>
        <time>2024-09-22T00:01:29.407Z</time>
      </trkpt>
      <trkpt lat="48.532544" lon="1.802036">
        <ele>145.804864</ele>
        <time>2024-09-22T00:01:30.722Z</time>
      </trkpt>
      <trkpt lat="48.532200" lon="1.801944">
        <ele>144.815090</ele>
        <time>2024-09-22T00:01:33.985Z</time>
      </trkpt>
      <trkpt lat="48.531086" lon="1.801929">
        <ele>141.658822</ele>
        <time>2024-09-22T00:01:45.285Z</time>
      </trkpt>
      <trkpt lat="48.531034" lon="1.801879">
        <ele>141.484167</ele>
        <time>2024-09-22T00:01:45.990Z</time>
      </trkpt>
      <trkpt lat="48.530920" lon="1.801792">
        <ele>141.122284</ele>
        <time>2024-09-22T00:01:47.482Z</time>
      </trkpt>
      <trkpt lat="48.529932" lon="1.800091">
        <ele>143.589489</ele>
        <time>2024-09-22T00:02:21.033Z</time>
      </trkpt>
      <trkpt lat="48.529581" lon="1.799600">
        <ele>144.506245</ele>
        <time>2024-09-22T00:02:35.734Z</time>
      </trkpt>
      <trkpt lat="48.529303" lon="1.799327">
        <ele>145.216939</ele>
        <time>2024-09-22T00:02:45.065Z</time>
      </trkpt>
      <trkpt lat="48.528866" lon="1.798769">
        <ele>146.443436</ele>
        <time>2024-09-22T00:02:59.557Z</time>
      </trkpt>
      <trkpt lat="48.528337" lon="1.798099">
        <ele>147.923146</ele>
        <time>2024-09-22T00:03:13.748Z</time>
      </trkpt>
      <trkpt lat="48.528121" lon="1.797860">
        <ele>148.125011</ele>
        <time>2024-09-22T00:03:18.178Z</time>
      </trkpt>
      <trkpt lat="48.527987" lon="1.797777">
        <ele>148.133243</ele>
        <time>2024-09-22T00:03:20.561Z</time>
      </trkpt>
      <trkpt lat="48.527844" lon="1.797490">
        <ele>148.146762</ele>
        <time>2024-09-22T00:03:24.175Z</time>
      </trkpt>
      <trkpt lat="48.527768" lon="1.797155">
        <ele>148.160091</ele>
        <time>2024-09-22T00:03:27.494Z</time>
      </trkpt>
      <trkpt lat="48.527793" lon="1.796761">
        <ele>148.174989</ele>
        <time>2024-09-22T00:03:31.490Z</time>
      </trkpt>
      <trkpt lat="48.527817" lon="1.795109">
        <ele>148.045394</ele>
        <time>2024-09-22T00:03:46.522Z</time>
      </trkpt>
      <trkpt lat="48.527838" lon="1.794835">
        <ele>147.956616</ele>
        <time>2024-09-22T00:03:48.842Z</time>
      </trkpt>
      <trkpt lat="48.528100" lon="1.794809">
        <ele>147.829009</ele>
        <time>2024-09-22T00:03:52.372Z</time>
      </trkpt>
      <trkpt lat="48.528158" lon="1.794286">
        <ele>147.658334</ele>
        <time>2024-09-22T00:03:56.985Z</time>
      </trkpt>
      <trkpt lat="48.528157" lon="1.794046">
        <ele>147.581087</ele>
        <time>2024-09-22T00:03:59.008Z</time>
      </trkpt>
      <trkpt lat="48.528085" lon="1.792796">
        <ele>147.179067</ele>
        <time>2024-09-22T00:04:10.074Z</time>
      </trkpt>
      <trkpt lat="48.528062" lon="1.791083">
        <ele>146.633664</ele>
        <time>2024-09-22T00:04:24.471Z</time>
      </trkpt>
      <trkpt lat="48.528015" lon="1.790233">
        <ele>146.568544</ele>
        <time>2024-09-22T00:04:33.150Z</time>
      </trkpt>
      <trkpt lat="48.527851" lon="1.789568">
        <ele>146.743672</ele>
        <time>2024-09-22T00:04:40.981Z</time>
      </trkpt>
      <trkpt lat="48.527588" lon="1.788937">
        <ele>146.927673</ele>
        <time>2024-09-22T00:04:49.408Z</time>
      </trkpt>
      <trkpt lat="48.527429" lon="1.788269">
        <ele>147.102857</ele>
        <time>2024-09-22T00:04:57.344Z</time>
      </trkpt>
      <trkpt lat="48.527215" lon="1.786897">
        <ele>147.535135</ele>
        <time>2024-09-22T00:05:12.517Z</time>
      </trkpt>
      <trkpt lat="48.526945" lon="1.785535">
        <ele>147.984064</ele>
        <time>2024-09-22T00:05:28.484Z</time>
      </trkpt>
      <trkpt lat="48.526713" lon="1.784993">
        <ele>148.186481</ele>
        <time>2024-09-22T00:05:35.548Z</time>
      </trkpt>
      <trkpt lat="48.525978" lon="1.783637">
        <ele>148.735637</ele>
        <time>2024-09-22T00:05:54.816Z</time>
      </trkpt>
      <trkpt lat="48.524497" lon="1.780905">
        <ele>150.243379</ele>
        <time>2024-09-22T00:06:34.631Z</time>
      </trkpt>
      <trkpt lat="48.524321" lon="1.780398">
        <ele>150.701290</ele>
        <time>2024-09-22T00:06:41.851Z</time>
      </trkpt>
      <trkpt lat="48.524105" lon="1.776413">
        <ele>153.514164</ele>
        <time>2024-09-22T00:07:36.694Z</time>
      </trkpt>
      <trkpt lat="48.524163" lon="1.774270">
        <ele>151.983493</ele>
        <time>2024-09-22T00:07:54.318Z</time>
      </trkpt>
      <trkpt lat="48.524349" lon="1.772128">
        <ele>148.895892</ele>
        <time>2024-09-22T00:08:08.942Z</time>
      </trkpt>
      <trkpt lat="48.524067" lon="1.771252">
        <ele>147.186748</ele>
        <time>2024-09-22T00:08:15.734Z</time>
      </trkpt>
      <trkpt lat="48.523976" lon="1.770715">
        <ele>146.214076</ele>
        <time>2024-09-22T00:08:19.679Z</time>
      </trkpt>
      <trkpt lat="48.524017" lon="1.770410">
        <ele>145.708901</ele>
        <time>2024-09-22T00:08:21.935Z</time>
      </trkpt>
      <trkpt lat="48.524243" lon="1.769426">
        <ele>144.034423</ele>
        <time>2024-09-22T00:08:29.505Z</time>
      </trkpt>
      <trkpt lat="48.522515" lon="1.768464">
        <ele>138.728281</ele>
        <time>2024-09-22T00:08:48.696Z</time>
      </trkpt>
      <trkpt lat="48.522110" lon="1.768332">
        <ele>137.345214</ele>
        <time>2024-09-22T00:08:52.765Z</time>
      </trkpt>
      <trkpt lat="48.521894" lon="1.768195">
        <ele>136.563148</ele>
        <time>2024-09-22T00:08:55.024Z</time>
      </trkpt>
      <trkpt lat="48.521627" lon="1.767987">
        <ele>135.661160</ele>
        <time>2024-09-22T00:08:57.927Z</time>
      </trkpt>
      <trkpt lat="48.521106" lon="1.767692">
        <ele>134.632590</ele>
        <time>2024-09-22T00:09:03.391Z</time>
      </trkpt>
      <trkpt lat="48.521009" lon="1.767508">
        <ele>134.344665</ele>
        <time>2024-09-22T00:09:04.980Z</time>
      </trkpt>
      <trkpt lat="48.520908" lon="1.767147">
        <ele>133.864861</ele>
        <time>2024-09-22T00:09:07.750Z</time>
      </trkpt>
      <trkpt lat="48.520825" lon="1.766850">
        <ele>133.470186</ele>
        <time>2024-09-22T00:09:10.172Z</time>
      </trkpt>
      <trkpt lat="48.520596" lon="1.766268">
        <ele>132.641360</ele>
        <time>2024-09-22T00:09:16.805Z</time>
      </trkpt>
      <trkpt lat="48.520575" lon="1.766209">
        <ele>132.559354</ele>
        <time>2024-09-22T00:09:17.656Z</time>
      </trkpt>
      <trkpt lat="48.520235" lon="1.765375">
        <ele>134.356200</ele>
        <time>2024-09-22T00:09:32.719Z</time>
      </trkpt>
      <trkpt lat="48.520115" lon="1.765060">
        <ele>135.121603</ele>
        <time>2024-09-22T00:09:39.243Z</time>
      </trkpt>
      <trkpt lat="48.519843" lon="1.764059">
        <ele>137.400566</ele>
        <time>2024-09-22T00:10:01.837Z</time>
      </trkpt>
      <trkpt lat="48.519771" lon="1.763941">
        <ele>137.738501</ele>
        <time>2024-09-22T00:10:05.589Z</time>
      </trkpt>
      <trkpt lat="48.519557" lon="1.763729">
        <ele>138.640568</ele>
        <time>2024-09-22T00:10:14.610Z</time>
      </trkpt>
      <trkpt lat="48.519483" lon="1.763616">
        <ele>139.054751</ele>
        <time>2024-09-22T00:10:18.242Z</time>
      </trkpt>
      <trkpt lat="48.518639" lon="1.761675">
        <ele>145.106753</ele>
        <time>2024-09-22T00:11:05.935Z</time>
      </trkpt>
      <trkpt lat="48.518336" lon="1.761494">
        <ele>145.791834</ele>
        <time>2024-09-22T00:11:14.067Z</time>
      </trkpt>
      <trkpt lat="48.518266" lon="1.760170">
        <ele>147.423811</ele>
        <time>2024-09-22T00:11:34.151Z</time>
      </trkpt>
      <trkpt lat="48.518222" lon="1.760002">
        <ele>147.645784</ele>
        <time>2024-09-22T00:11:36.690Z</time>
      </trkpt>
      <trkpt lat="48.518163" lon="1.759891">
        <ele>147.820653</ele>
        <time>2024-09-22T00:11:38.733Z</time>
      </trkpt>
      <trkpt lat="48.517912" lon="1.759795">
        <ele>148.300963</ele>
        <time>2024-09-22T00:11:43.596Z</time>
      </trkpt>
      <trkpt lat="48.517797" lon="1.759698">
        <ele>148.545323</ele>
        <time>2024-09-22T00:11:46.060Z</time>
      </trkpt>
      <trkpt lat="48.517744" lon="1.759457">
        <ele>148.512941</ele>
        <time>2024-09-22T00:11:48.506Z</time>
      </trkpt>
      <trkpt lat="48.517790" lon="1.758448">
        <ele>148.119738</ele>
        <time>2024-09-22T00:11:58.361Z</time>
      </trkpt>
      <trkpt lat="48.517758" lon="1.758061">
        <ele>147.968113</ele>
        <time>2024-09-22T00:12:02.002Z</time>
      </trkpt>
      <trkpt lat="48.517853" lon="1.757980">
        <ele>147.904077</ele>
        <time>2024-09-22T00:12:03.374Z</time>
      </trkpt>
      <trkpt lat="48.517932" lon="1.757829">
        <ele>147.829268</ele>
        <time>2024-09-22T00:12:04.944Z</time>
      </trkpt>
      <trkpt lat="48.518271" lon="1.756501">
        <ele>146.290501</ele>
        <time>2024-09-22T00:12:15.416Z</time>
      </trkpt>
      <trkpt lat="48.518346" lon="1.756279">
        <ele>145.832064</ele>
        <time>2024-09-22T00:12:17.106Z</time>
      </trkpt>
      <trkpt lat="48.518417" lon="1.756164">
        <ele>145.542867</ele>
        <time>2024-09-22T00:12:18.166Z</time>
      </trkpt>
      <trkpt lat="48.518861" lon="1.755843">
        <ele>144.175683</ele>
        <time>2024-09-22T00:12:23.121Z</time>
      </trkpt>
      <trkpt lat="48.519117" lon="1.755600">
        <ele>143.335864</ele>
        <time>2024-09-22T00:12:26.215Z</time>
      </trkpt>
      <trkpt lat="48.519831" lon="1.754768">
        <ele>140.861452</ele>
        <time>2024-09-22T00:12:35.409Z</time>
      </trkpt>
      <trkpt lat="48.520296" lon="1.754204">
        <ele>139.234370</ele>
        <time>2024-09-22T00:12:41.612Z</time>
      </trkpt>
      <trkpt lat="48.520687" lon="1.753648">
        <ele>137.769181</ele>
        <time>2024-09-22T00:12:47.276Z</time>
      </trkpt>
      <trkpt lat="48.520742" lon="1.753529">
        <ele>137.517901</ele>
        <time>2024-09-22T00:12:48.326Z</time>
      </trkpt>
      <trkpt lat="48.520910" lon="1.753036">
        <ele>136.599267</ele>
        <time>2024-09-22T00:12:52.395Z</time>
      </trkpt>
      <trkpt lat="48.520997" lon="1.752509">
        <ele>135.699359</ele>
        <time>2024-09-22T00:12:56.363Z</time>
      </trkpt>
      <trkpt lat="48.521009" lon="1.751908">
        <ele>134.703101</ele>
        <time>2024-09-22T00:13:00.570Z</time>
      </trkpt>
      <trkpt lat="48.520946" lon="1.751408">
        <ele>133.859786</ele>
        <time>2024-09-22T00:13:04.047Z</time>
      </trkpt>
      <trkpt lat="48.520829" lon="1.750759">
        <ele>132.697496</ele>
        <time>2024-09-22T00:13:08.613Z</time>
      </trkpt>
      <trkpt lat="48.520700" lon="1.750018">
        <ele>131.273753</ele>
        <time>2024-09-22T00:13:13.759Z</time>
      </trkpt>
      <trkpt lat="48.520583" lon="1.749539">
        <ele>130.325045</ele>
        <time>2024-09-22T00:13:17.183Z</time>
      </trkpt>
      <trkpt lat="48.520467" lon="1.749314">
        <ele>129.795203</ele>
        <time>2024-09-22T00:13:19.139Z</time>
      </trkpt>
      <trkpt lat="48.519886" lon="1.748568">
        <ele>128.012630</ele>
        <time>2024-09-22T00:13:27.119Z</time>
      </trkpt>
      <trkpt lat="48.519793" lon="1.748384">
        <ele>127.933868</ele>
        <time>2024-09-22T00:13:28.792Z</time>
      </trkpt>
      <trkpt lat="48.519755" lon="1.748241">
        <ele>127.881436</ele>
        <time>2024-09-22T00:13:30.064Z</time>
      </trkpt>
      <trkpt lat="48.519761" lon="1.748125">
        <ele>127.841842</ele>
        <time>2024-09-22T00:13:30.995Z</time>
      </trkpt>
      <trkpt lat="48.519798" lon="1.748001">
        <ele>127.795561</ele>
        <time>2024-09-22T00:13:32.040Z</time>
      </trkpt>
      <trkpt lat="48.519828" lon="1.747876">
        <ele>127.750318</ele>
        <time>2024-09-22T00:13:33.102Z</time>
      </trkpt>
      <trkpt lat="48.519959" lon="1.747291">
        <ele>127.540178</ele>
        <time>2024-09-22T00:13:38.752Z</time>
      </trkpt>
      <trkpt lat="48.520022" lon="1.747110">
        <ele>127.470598</ele>
        <time>2024-09-22T00:13:40.978Z</time>
      </trkpt>
      <trkpt lat="48.520070" lon="1.746861">
        <ele>127.382350</ele>
        <time>2024-09-22T00:13:43.592Z</time>
      </trkpt>
      <trkpt lat="48.520015" lon="1.746680">
        <ele>127.314585</ele>
        <time>2024-09-22T00:13:46.119Z</time>
      </trkpt>
      <trkpt lat="48.519858" lon="1.746291">
        <ele>127.178463</ele>
        <time>2024-09-22T00:13:51.625Z</time>
      </trkpt>
      <trkpt lat="48.519698" lon="1.745728">
        <ele>127.404094</ele>
        <time>2024-09-22T00:13:59.339Z</time>
      </trkpt>
      <trkpt lat="48.519637" lon="1.745466">
        <ele>127.506375</ele>
        <time>2024-09-22T00:14:03.138Z</time>
      </trkpt>
      <trkpt lat="48.519618" lon="1.745274">
        <ele>127.577873</ele>
        <time>2024-09-22T00:14:05.580Z</time>
      </trkpt>
      <trkpt lat="48.519638" lon="1.744370">
        <ele>127.911000</ele>
        <time>2024-09-22T00:14:17.182Z</time>
      </trkpt>
      <trkpt lat="48.519791" lon="1.737202">
        <ele>126.064885</ele>
        <time>2024-09-22T00:15:17.738Z</time>
      </trkpt>
      <trkpt lat="48.519855" lon="1.736574">
        <ele>126.277383</ele>
        <time>2024-09-22T00:15:26.244Z</time>
      </trkpt>
      <trkpt lat="48.520106" lon="1.735473">
        <ele>126.642880</ele>
        <time>2024-09-22T00:15:42.083Z</time>
      </trkpt>
      <trkpt lat="48.520329" lon="1.734852">
        <ele>126.744119</ele>
        <time>2024-09-22T00:15:51.390Z</time>
      </trkpt>
      <trkpt lat="48.520694" lon="1.734017">
        <ele>126.887500</ele>
        <time>2024-09-22T00:16:01.983Z</time>
      </trkpt>
      <trkpt lat="48.520964" lon="1.733475">
        <ele>126.984695</ele>
        <time>2024-09-22T00:16:07.211Z</time>
      </trkpt>
      <trkpt lat="48.521187" lon="1.732873">
        <ele>127.354494</ele>
        <time>2024-09-22T00:16:12.963Z</time>
      </trkpt>
      <trkpt lat="48.521266" lon="1.732511">
        <ele>127.622313</ele>
        <time>2024-09-22T00:16:16.573Z</time>
      </trkpt>
      <trkpt lat="48.521265" lon="1.732128">
        <ele>127.891439</ele>
        <time>2024-09-22T00:16:21.111Z</time>
      </trkpt>
      <trkpt lat="48.521243" lon="1.731955">
        <ele>128.015222</ele>
        <time>2024-09-22T00:16:22.715Z</time>
      </trkpt>
      <trkpt lat="48.521235" lon="1.731886">
        <ele>128.064443</ele>
        <time>2024-09-22T00:16:23.503Z</time>
      </trkpt>
      <trkpt lat="48.521163" lon="1.731848">
        <ele>128.145360</ele>
        <time>2024-09-22T00:16:25.124Z</time>
      </trkpt>
      <trkpt lat="48.520911" lon="1.731462">
        <ele>128.526202</ele>
        <time>2024-09-22T00:16:32.872Z</time>
      </trkpt>
      <trkpt lat="48.520399" lon="1.731054">
        <ele>129.712605</ele>
        <time>2024-09-22T00:16:48.020Z</time>
      </trkpt>
      <trkpt lat="48.519333" lon="1.730314">
        <ele>134.222948</ele>
        <time>2024-09-22T00:17:27.317Z</time>
      </trkpt>
      <trkpt lat="48.518980" lon="1.729834">
        <ele>135.954380</ele>
        <time>2024-09-22T00:17:41.429Z</time>
      </trkpt>
      <trkpt lat="48.518883" lon="1.729738">
        <ele>136.201338</ele>
        <time>2024-09-22T00:17:44.340Z</time>
      </trkpt>
      <trkpt lat="48.518809" lon="1.729707">
        <ele>136.364855</ele>
        <time>2024-09-22T00:17:46.316Z</time>
      </trkpt>
      <trkpt lat="48.518434" lon="1.729728">
        <ele>137.163867</ele>
        <time>2024-09-22T00:17:55.043Z</time>
      </trkpt>
      <trkpt lat="48.518352" lon="1.729656">
        <ele>137.365847</ele>
        <time>2024-09-22T00:17:57.177Z</time>
      </trkpt>
      <trkpt lat="48.518275" lon="1.729531">
        <ele>137.606596</ele>
        <time>2024-09-22T00:17:59.544Z</time>
      </trkpt>
      <trkpt lat="48.517678" lon="1.727965">
        <ele>140.184715</ele>
        <time>2024-09-22T00:18:25.264Z</time>
      </trkpt>
      <trkpt lat="48.517584" lon="1.727750">
        <ele>140.570205</ele>
        <time>2024-09-22T00:18:29.062Z</time>
      </trkpt>
      <trkpt lat="48.517471" lon="1.727589">
        <ele>140.921217</ele>
        <time>2024-09-22T00:18:32.394Z</time>
      </trkpt>
      <trkpt lat="48.516249" lon="1.726516">
        <ele>143.997640</ele>
        <time>2024-09-22T00:19:07.417Z</time>
      </trkpt>
      <trkpt lat="48.515766" lon="1.725990">
        <ele>144.933704</ele>
        <time>2024-09-22T00:19:22.773Z</time>
      </trkpt>
      <trkpt lat="48.515636" lon="1.725881">
        <ele>145.167429</ele>
        <time>2024-09-22T00:19:26.237Z</time>
      </trkpt>
      <trkpt lat="48.515530" lon="1.725844">
        <ele>145.338429</ele>
        <time>2024-09-22T00:19:28.538Z</time>
      </trkpt>
      <trkpt lat="48.515305" lon="1.725831">
        <ele>145.692329</ele>
        <time>2024-09-22T00:19:33.225Z</time>
      </trkpt>
      <trkpt lat="48.514764" lon="1.725887">
        <ele>146.544636</ele>
        <time>2024-09-22T00:19:41.972Z</time>
      </trkpt>
      <trkpt lat="48.514674" lon="1.725863">
        <ele>146.514458</ele>
        <time>2024-09-22T00:19:43.231Z</time>
      </trkpt>
      <trkpt lat="48.514586" lon="1.725754">
        <ele>146.457076</ele>
        <time>2024-09-22T00:19:44.864Z</time>
      </trkpt>
      <trkpt lat="48.514458" lon="1.724585">
        <ele>146.061417</ele>
        <time>2024-09-22T00:19:55.117Z</time>
      </trkpt>
      <trkpt lat="48.514332" lon="1.723857">
        <ele>145.810157</ele>
        <time>2024-09-22T00:20:01.207Z</time>
      </trkpt>
      <trkpt lat="48.513726" lon="1.720932">
        <ele>144.764515</ele>
        <time>2024-09-22T00:20:27.816Z</time>
      </trkpt>
      <trkpt lat="48.512942" lon="1.717525">
        <ele>143.274321</ele>
        <time>2024-09-22T00:21:03.721Z</time>
      </trkpt>
      <trkpt lat="48.512852" lon="1.717214">
        <ele>142.686174</ele>
        <time>2024-09-22T00:21:06.206Z</time>
      </trkpt>
      <trkpt lat="48.512664" lon="1.716760">
        <ele>141.758318</ele>
        <time>2024-09-22T00:21:09.909Z</time>
      </trkpt>
      <trkpt lat="48.512265" lon="1.716030">
        <ele>140.118191</ele>
        <time>2024-09-22T00:21:16.004Z</time>
      </trkpt>
      <trkpt lat="48.511715" lon="1.715137">
        <ele>135.100531</ele>
        <time>2024-09-22T00:21:23.414Z</time>
      </trkpt>
      <trkpt lat="48.511230" lon="1.714406">
        <ele>130.542519</ele>
        <time>2024-09-22T00:21:29.516Z</time>
      </trkpt>
      <trkpt lat="48.510504" lon="1.713442">
        <ele>124.692815</ele>
        <time>2024-09-22T00:21:38.145Z</time>
      </trkpt>
      <trkpt lat="48.509896" lon="1.712632">
        <ele>120.120681</ele>
        <time>2024-09-22T00:21:45.664Z</time>
      </trkpt>
      <trkpt lat="48.509850" lon="1.712499">
        <ele>119.560276</ele>
        <time>2024-09-22T00:21:46.626Z</time>
      </trkpt>
      <trkpt lat="48.509859" lon="1.712220">
        <ele>118.516925</ele>
        <time>2024-09-22T00:21:48.418Z</time>
      </trkpt>
      <trkpt lat="48.509806" lon="1.712170">
        <ele>118.164545</ele>
        <time>2024-09-22T00:21:49.021Z</time>
      </trkpt>
      <trkpt lat="48.509501" lon="1.711291">
        <ele>117.050271</ele>
        <time>2024-09-22T00:21:55.748Z</time>
      </trkpt>
      <trkpt lat="48.509302" lon="1.710422">
        <ele>116.291060</ele>
        <time>2024-09-22T00:22:03.357Z</time>
      </trkpt>
      <trkpt lat="48.509238" lon="1.709967">
        <ele>115.906981</ele>
        <time>2024-09-22T00:22:08.426Z</time>
      </trkpt>
      <trkpt lat="48.509214" lon="1.709822">
        <ele>115.783570</ele>
        <time>2024-09-22T00:22:10.247Z</time>
      </trkpt>
      <trkpt lat="48.509167" lon="1.709488">
        <ele>115.566905</ele>
        <time>2024-09-22T00:22:14.195Z</time>
      </trkpt>
      <trkpt lat="48.509155" lon="1.708925">
        <ele>115.816528</ele>
        <time>2024-09-22T00:22:20.963Z</time>
      </trkpt>
      <trkpt lat="48.509217" lon="1.708675">
        <ele>115.934823</ele>
        <time>2024-09-22T00:22:24.387Z</time>
      </trkpt>
      <trkpt lat="48.509273" lon="1.708448">
        <ele>116.042166</ele>
        <time>2024-09-22T00:22:27.171Z</time>
      </trkpt>
      <trkpt lat="48.509405" lon="1.708138">
        <ele>116.205470</ele>
        <time>2024-09-22T00:22:31.774Z</time>
      </trkpt>
      <trkpt lat="48.509508" lon="1.707922">
        <ele>116.323407</ele>
        <time>2024-09-22T00:22:34.843Z</time>
      </trkpt>
      <trkpt lat="48.509806" lon="1.707514">
        <ele>116.592523</ele>
        <time>2024-09-22T00:22:41.990Z</time>
      </trkpt>
      <trkpt lat="48.510190" lon="1.707096">
        <ele>116.656792</ele>
        <time>2024-09-22T00:22:50.190Z</time>
      </trkpt>
      <trkpt lat="48.510517" lon="1.706678">
        <ele>116.496765</ele>
        <time>2024-09-22T00:22:56.330Z</time>
      </trkpt>
      <trkpt lat="48.510844" lon="1.706163">
        <ele>116.320276</ele>
        <time>2024-09-22T00:23:02.336Z</time>
      </trkpt>
      <trkpt lat="48.510874" lon="1.706096">
        <ele>116.300269</ele>
        <time>2024-09-22T00:23:03.258Z</time>
      </trkpt>
      <trkpt lat="48.511356" lon="1.704945">
        <ele>116.023270</ele>
        <time>2024-09-22T00:23:19.097Z</time>
      </trkpt>
      <trkpt lat="48.511494" lon="1.704435">
        <ele>115.959772</ele>
        <time>2024-09-22T00:23:25.672Z</time>
      </trkpt>
      <trkpt lat="48.511654" lon="1.703271">
        <ele>115.822749</ele>
        <time>2024-09-22T00:23:41.345Z</time>
      </trkpt>
      <trkpt lat="48.511651" lon="1.702381">
        <ele>116.167350</ele>
        <time>2024-09-22T00:23:54.743Z</time>
      </trkpt>
      <trkpt lat="48.511621" lon="1.702118">
        <ele>116.461005</ele>
        <time>2024-09-22T00:23:59.094Z</time>
      </trkpt>
      <trkpt lat="48.511629" lon="1.701495">
        <ele>117.146662</ele>
        <time>2024-09-22T00:24:09.598Z</time>
      </trkpt>
      <trkpt lat="48.511658" lon="1.701388">
        <ele>117.273873</ele>
        <time>2024-09-22T00:24:11.578Z</time>
      </trkpt>
      <trkpt lat="48.511092" lon="1.701176">
        <ele>118.242515</ele>
        <time>2024-09-22T00:24:27.434Z</time>
      </trkpt>
      <trkpt lat="48.510268" lon="1.700868">
        <ele>120.426626</ele>
        <time>2024-09-22T00:24:54.597Z</time>
      </trkpt>
      <trkpt lat="48.510211" lon="1.700455">
        <ele>121.289068</ele>
        <time>2024-09-22T00:25:03.489Z</time>
      </trkpt>
      <trkpt lat="48.510148" lon="1.700315">
        <ele>121.635061</ele>
        <time>2024-09-22T00:25:06.961Z</time>
      </trkpt>
      <trkpt lat="48.509963" lon="1.700170">
        <ele>122.278320</ele>
        <time>2024-09-22T00:25:13.143Z</time>
      </trkpt>
      <trkpt lat="48.509577" lon="1.700142">
        <ele>123.470841</ele>
        <time>2024-09-22T00:25:23.877Z</time>
      </trkpt>
      <trkpt lat="48.509566" lon="1.700040">
        <ele>123.682112</ele>
        <time>2024-09-22T00:25:25.740Z</time>
      </trkpt>
      <trkpt lat="48.509305" lon="1.699463">
        <ele>124.767811</ele>
        <time>2024-09-22T00:25:36.771Z</time>
      </trkpt>
      <trkpt lat="48.509291" lon="1.699388">
        <ele>124.859719</ele>
        <time>2024-09-22T00:25:37.973Z</time>
      </trkpt>
      <trkpt lat="48.509318" lon="1.699091">
        <ele>125.213318</ele>
        <time>2024-09-22T00:25:42.368Z</time>
      </trkpt>
      <trkpt lat="48.509419" lon="1.698811">
        <ele>125.589363</ele>
        <time>2024-09-22T00:25:46.723Z</time>
      </trkpt>
      <trkpt lat="48.509622" lon="1.698371">
        <ele>126.221796</ele>
        <time>2024-09-22T00:25:53.706Z</time>
      </trkpt>
      <trkpt lat="48.510084" lon="1.697609">
        <ele>127.440152</ele>
        <time>2024-09-22T00:26:08.722Z</time>
      </trkpt>
      <trkpt lat="48.510550" lon="1.696703">
        <ele>129.471552</ele>
        <time>2024-09-22T00:26:24.284Z</time>
      </trkpt>
      <trkpt lat="48.510290" lon="1.696274">
        <ele>130.518007</ele>
        <time>2024-09-22T00:26:35.999Z</time>
      </trkpt>
      <trkpt lat="48.509981" lon="1.695686">
        <ele>131.868800</ele>
        <time>2024-09-22T00:26:53.350Z</time>
      </trkpt>
      <trkpt lat="48.508868" lon="1.694620">
        <ele>137.085296</ele>
        <time>2024-09-22T00:27:43.791Z</time>
      </trkpt>
      <trkpt lat="48.507420" lon="1.693108">
        <ele>144.420038</ele>
        <time>2024-09-22T00:28:46.531Z</time>
      </trkpt>
      <trkpt lat="48.505097" lon="1.690686">
        <ele>156.027946</ele>
        <time>2024-09-22T00:30:35.443Z</time>
      </trkpt>
      <trkpt lat="48.504813" lon="1.690105">
        <ele>156.912626</ele>
        <time>2024-09-22T00:30:50.033Z</time>
      </trkpt>
      <trkpt lat="48.504102" lon="1.688594">
        <ele>158.618018</ele>
        <time>2024-09-22T00:31:18.190Z</time>
      </trkpt>
      <trkpt lat="48.503384" lon="1.687500">
        <ele>157.910450</ele>
        <time>2024-09-22T00:31:36.255Z</time>
      </trkpt>
      <trkpt lat="48.502702" lon="1.686695">
        <ele>156.921195</ele>
        <time>2024-09-22T00:31:50.926Z</time>
      </trkpt>
      <trkpt lat="48.502531" lon="1.686471">
        <ele>156.479990</ele>
        <time>2024-09-22T00:31:54.499Z</time>
      </trkpt>
      <trkpt lat="48.502446" lon="1.686359">
        <ele>156.260122</ele>
        <time>2024-09-22T00:31:56.437Z</time>
      </trkpt>
      <trkpt lat="48.502176" lon="1.685930">
        <ele>155.496204</ele>
        <time>2024-09-22T00:32:02.588Z</time>
      </trkpt>
      <trkpt lat="48.501962" lon="1.685436">
        <ele>154.734187</ele>
        <time>2024-09-22T00:32:08.615Z</time>
      </trkpt>
      <trkpt lat="48.501834" lon="1.684546">
        <ele>153.448899</ele>
        <time>2024-09-22T00:32:17.902Z</time>
      </trkpt>
      <trkpt lat="48.501692" lon="1.683741">
        <ele>152.118421</ele>
        <time>2024-09-22T00:32:26.220Z</time>
      </trkpt>
      <trkpt lat="48.501721" lon="1.682829">
        <ele>150.660152</ele>
        <time>2024-09-22T00:32:35.353Z</time>
      </trkpt>
      <trkpt lat="48.502019" lon="1.680726">
        <ele>147.597462</ele>
        <time>2024-09-22T00:32:57.589Z</time>
      </trkpt>
      <trkpt lat="48.502019" lon="1.680720">
        <ele>147.589329</ele>
        <time>2024-09-22T00:32:57.653Z</time>
      </trkpt>
      <trkpt lat="48.502019" lon="1.680720">
        <ele>147.589329</ele>
        <time>2024-09-22T00:32:57.662Z</time>
      </trkpt>
      <trkpt lat="48.502010" lon="1.680720">
        <ele>147.570917</ele>
        <time>2024-09-22T00:32:57.828Z</time>
      </trkpt>
      <trkpt lat="48.502010" lon="1.680380">
        <ele>147.110043</ele>
        <time>2024-09-22T00:33:02.004Z</time>
      </trkpt>
      <trkpt lat="48.501970" lon="1.679940">
        <ele>146.508031</ele>
        <time>2024-09-22T00:33:07.458Z</time>
      </trkpt>
      <trkpt lat="48.501860" lon="1.679230">
        <ele>145.505346</ele>
        <time>2024-09-22T00:33:16.413Z</time>
      </trkpt>
      <trkpt lat="48.501610" lon="1.678580">
        <ele>144.456540</ele>
        <time>2024-09-22T00:33:25.644Z</time>
      </trkpt>
      <trkpt lat="48.501510" lon="1.678100">
        <ele>143.754375</ele>
        <time>2024-09-22T00:33:31.824Z</time>
      </trkpt>
      <trkpt lat="48.501570" lon="1.677550">
        <ele>142.976521</ele>
        <time>2024-09-22T00:33:38.670Z</time>
      </trkpt>
      <trkpt lat="48.501660" lon="1.677000">
        <ele>142.193333</ele>
        <time>2024-09-22T00:33:45.628Z</time>
      </trkpt>
      <trkpt lat="48.501500" lon="1.676210">
        <ele>141.315599</ele>
        <time>2024-09-22T00:33:55.774Z</time>
      </trkpt>
      <trkpt lat="48.501390" lon="1.675210">
        <ele>140.238525</ele>
        <time>2024-09-22T00:34:08.223Z</time>
      </trkpt>
      <trkpt lat="48.501395" lon="1.675211">
        <ele>140.230437</ele>
        <time>2024-09-22T00:34:08.317Z</time>
      </trkpt>
      <trkpt lat="48.501390" lon="1.675274">
        <ele>140.163019</ele>
        <time>2024-09-22T00:34:09.041Z</time>
      </trkpt>
      <trkpt lat="48.501504" lon="1.676218">
        <ele>139.312986</ele>
        <time>2024-09-22T00:34:20.017Z</time>
      </trkpt>
      <trkpt lat="48.501390" lon="1.675274">
        <ele>139.206988</ele>
        <time>2024-09-22T00:34:31.456Z</time>
      </trkpt>
      <trkpt lat="48.501395" lon="1.675211">
        <ele>139.199979</ele>
        <time>2024-09-22T00:34:32.355Z</time>
      </trkpt>
      <trkpt lat="48.501418" lon="1.674888">
        <ele>139.164093</ele>
        <time>2024-09-22T00:34:36.361Z</time>
      </trkpt>
      <trkpt lat="48.501504" lon="1.674480">
        <ele>139.116797</ele>
        <time>2024-09-22T00:34:42.735Z</time>
      </trkpt>
      <trkpt lat="48.501703" lon="1.674212">
        <ele>139.072332</ele>
        <time>2024-09-22T00:34:48.782Z</time>
      </trkpt>
      <trkpt lat="48.502357" lon="1.673719">
        <ele>139.328055</ele>
        <time>2024-09-22T00:35:05.346Z</time>
      </trkpt>
      <trkpt lat="48.502442" lon="1.673547">
        <ele>139.413053</ele>
        <time>2024-09-22T00:35:08.677Z</time>
      </trkpt>
      <trkpt lat="48.502414" lon="1.673343">
        <ele>139.495579</ele>
        <time>2024-09-22T00:35:11.913Z</time>
      </trkpt>
      <trkpt lat="48.501916" lon="1.672656">
        <ele>139.898946</ele>
        <time>2024-09-22T00:35:27.517Z</time>
      </trkpt>
      <trkpt lat="48.501774" lon="1.672292">
        <ele>140.066275</ele>
        <time>2024-09-22T00:35:33.765Z</time>
      </trkpt>
      <trkpt lat="48.501774" lon="1.671916">
        <ele>140.106815</ele>
        <time>2024-09-22T00:35:39.169Z</time>
      </trkpt>
      <trkpt lat="48.501957" lon="1.671077">
        <ele>140.102568</ele>
        <time>2024-09-22T00:35:51.097Z</time>
      </trkpt>
      <trkpt lat="48.501821" lon="1.671015">
        <ele>140.101537</ele>
        <time>2024-09-22T00:35:53.270Z</time>
      </trkpt>
      <trkpt lat="48.501359" lon="1.670575">
        <ele>140.097572</ele>
        <time>2024-09-22T00:36:00.772Z</time>
      </trkpt>
      <trkpt lat="48.501328" lon="1.670544">
        <ele>140.097302</ele>
        <time>2024-09-22T00:36:01.274Z</time>
      </trkpt>
      <trkpt lat="48.500797" lon="1.669974">
        <ele>140.174340</ele>
        <time>2024-09-22T00:36:10.438Z</time>
      </trkpt>
      <trkpt lat="48.500214" lon="1.669491">
        <ele>140.328082</ele>
        <time>2024-09-22T00:36:20.527Z</time>
      </trkpt>
      <trkpt lat="48.499440" lon="1.668751">
        <ele>140.652219</ele>
        <time>2024-09-22T00:36:35.929Z</time>
      </trkpt>
      <trkpt lat="48.498863" lon="1.668081">
        <ele>141.471537</ele>
        <time>2024-09-22T00:36:49.252Z</time>
      </trkpt>
      <trkpt lat="48.494854" lon="1.663580">
        <ele>147.122358</ele>
        <time>2024-09-22T00:38:28.306Z</time>
      </trkpt>
      <trkpt lat="48.493944" lon="1.662378">
        <ele>148.008224</ele>
        <time>2024-09-22T00:38:49.224Z</time>
      </trkpt>
      <trkpt lat="48.493617" lon="1.661863">
        <ele>148.206406</ele>
        <time>2024-09-22T00:38:56.748Z</time>
      </trkpt>
      <trkpt lat="48.493192" lon="1.660997">
        <ele>148.416672</ele>
        <time>2024-09-22T00:39:07.837Z</time>
      </trkpt>
      <trkpt lat="48.493054" lon="1.660691">
        <ele>148.488894</ele>
        <time>2024-09-22T00:39:11.725Z</time>
      </trkpt>
      <trkpt lat="48.492593" lon="1.659674">
        <ele>148.646838</ele>
        <time>2024-09-22T00:39:25.177Z</time>
      </trkpt>
      <trkpt lat="48.492361" lon="1.658894">
        <ele>148.665442</ele>
        <time>2024-09-22T00:39:34.198Z</time>
      </trkpt>
      <trkpt lat="48.492094" lon="1.657534">
        <ele>148.675503</ele>
        <time>2024-09-22T00:39:47.497Z</time>
      </trkpt>
      <trkpt lat="48.491992" lon="1.657162">
        <ele>148.445599</ele>
        <time>2024-09-22T00:39:51.067Z</time>
      </trkpt>
      <trkpt lat="48.491842" lon="1.656986">
        <ele>148.281863</ele>
        <time>2024-09-22T00:39:53.570Z</time>
      </trkpt>
      <trkpt lat="48.491898" lon="1.656525">
        <ele>148.014211</ele>
        <time>2024-09-22T00:39:57.647Z</time>
      </trkpt>
      <trkpt lat="48.491888" lon="1.655085">
        <ele>147.191815</ele>
        <time>2024-09-22T00:40:09.115Z</time>
      </trkpt>
      <trkpt lat="48.491961" lon="1.654088">
        <ele>146.377067</ele>
        <time>2024-09-22T00:40:16.749Z</time>
      </trkpt>
      <trkpt lat="48.491968" lon="1.654047">
        <ele>146.341782</ele>
        <time>2024-09-22T00:40:17.067Z</time>
      </trkpt>
      <trkpt lat="48.492152" lon="1.653113">
        <ele>145.529721</ele>
        <time>2024-09-22T00:40:24.690Z</time>
      </trkpt>
      <trkpt lat="48.492294" lon="1.652597">
        <ele>145.064085</ele>
        <time>2024-09-22T00:40:29.147Z</time>
      </trkpt>
      <trkpt lat="48.492278" lon="1.652146">
        <ele>144.770435</ele>
        <time>2024-09-22T00:40:32.757Z</time>
      </trkpt>
      <trkpt lat="48.492233" lon="1.651791">
        <ele>144.596333</ele>
        <time>2024-09-22T00:40:35.638Z</time>
      </trkpt>
      <trkpt lat="48.491315" lon="1.648469">
        <ele>143.177317</ele>
        <time>2024-09-22T00:41:06.692Z</time>
      </trkpt>
      <trkpt lat="48.490965" lon="1.647674">
        <ele>142.920266</ele>
        <time>2024-09-22T00:41:15.545Z</time>
      </trkpt>
      <trkpt lat="48.490133" lon="1.646814">
        <ele>142.995004</ele>
        <time>2024-09-22T00:41:30.426Z</time>
      </trkpt>
      <trkpt lat="48.490074" lon="1.646753">
        <ele>143.007973</ele>
        <time>2024-09-22T00:41:31.505Z</time>
      </trkpt>
      <trkpt lat="48.489878" lon="1.646397">
        <ele>143.063592</ele>
        <time>2024-09-22T00:41:36.280Z</time>
      </trkpt>
      <trkpt lat="48.489333" lon="1.643847">
        <ele>143.895858</ele>
        <time>2024-09-22T00:42:06.130Z</time>
      </trkpt>
      <trkpt lat="48.489171" lon="1.642381">
        <ele>144.576699</ele>
        <time>2024-09-22T00:42:24.314Z</time>
      </trkpt>
      <trkpt lat="48.489164" lon="1.640404">
        <ele>145.653674</ele>
        <time>2024-09-22T00:42:48.347Z</time>
      </trkpt>
      <trkpt lat="48.489152" lon="1.639749">
        <ele>145.752715</ele>
        <time>2024-09-22T00:42:55.670Z</time>
      </trkpt>
      <trkpt lat="48.489107" lon="1.639123">
        <ele>145.750938</ele>
        <time>2024-09-22T00:43:02.329Z</time>
      </trkpt>
      <trkpt lat="48.488597" lon="1.635090">
        <ele>145.192175</ele>
        <time>2024-09-22T00:43:39.511Z</time>
      </trkpt>
      <trkpt lat="48.488475" lon="1.634357">
        <ele>145.109997</ele>
        <time>2024-09-22T00:43:46.251Z</time>
      </trkpt>
      <trkpt lat="48.488359" lon="1.633790">
        <ele>145.073382</ele>
        <time>2024-09-22T00:43:51.681Z</time>
      </trkpt>
      <trkpt lat="48.488177" lon="1.633087">
        <ele>145.026813</ele>
        <time>2024-09-22T00:43:58.894Z</time>
      </trkpt>
      <trkpt lat="48.487807" lon="1.631845">
        <ele>145.188614</ele>
        <time>2024-09-22T00:44:13.140Z</time>
      </trkpt>
      <trkpt lat="48.487667" lon="1.631448">
        <ele>145.369249</ele>
        <time>2024-09-22T00:44:18.224Z</time>
      </trkpt>
      <trkpt lat="48.487192" lon="1.630281">
        <ele>145.919350</ele>
        <time>2024-09-22T00:44:34.378Z</time>
      </trkpt>
      <trkpt lat="48.486598" lon="1.628369">
        <ele>146.783794</ele>
        <time>2024-09-22T00:44:59.342Z</time>
      </trkpt>
      <trkpt lat="48.486494" lon="1.627858">
        <ele>147.003482</ele>
        <time>2024-09-22T00:45:05.333Z</time>
      </trkpt>
      <trkpt lat="48.486367" lon="1.626881">
        <ele>147.208594</ele>
        <time>2024-09-22T00:45:16.418Z</time>
      </trkpt>
      <trkpt lat="48.486291" lon="1.625709">
        <ele>147.266460</ele>
        <time>2024-09-22T00:45:28.085Z</time>
      </trkpt>
      <trkpt lat="48.486243" lon="1.624833">
        <ele>147.309653</ele>
        <time>2024-09-22T00:45:36.473Z</time>
      </trkpt>
      <trkpt lat="48.486213" lon="1.624427">
        <ele>147.288842</ele>
        <time>2024-09-22T00:45:40.156Z</time>
      </trkpt>
      <trkpt lat="48.486075" lon="1.623447">
        <ele>147.208183</ele>
        <time>2024-09-22T00:45:49.411Z</time>
      </trkpt>
      <trkpt lat="48.485948" lon="1.622324">
        <ele>147.116465</ele>
        <time>2024-09-22T00:46:00.143Z</time>
      </trkpt>
      <trkpt lat="48.485906" lon="1.621518">
        <ele>147.267565</ele>
        <time>2024-09-22T00:46:08.471Z</time>
      </trkpt>
      <trkpt lat="48.485837" lon="1.620767">
        <ele>147.503871</ele>
        <time>2024-09-22T00:46:16.805Z</time>
      </trkpt>
      <trkpt lat="48.485487" lon="1.619019">
        <ele>148.188882</ele>
        <time>2024-09-22T00:46:37.993Z</time>
      </trkpt>
      <trkpt lat="48.485291" lon="1.617383">
        <ele>149.163844</ele>
        <time>2024-09-22T00:46:58.071Z</time>
      </trkpt>
      <trkpt lat="48.485218" lon="1.616603">
        <ele>149.656943</ele>
        <time>2024-09-22T00:47:07.903Z</time>
      </trkpt>
      <trkpt lat="48.485166" lon="1.615535">
        <ele>150.495514</ele>
        <time>2024-09-22T00:47:21.695Z</time>
      </trkpt>
      <trkpt lat="48.485121" lon="1.614768">
        <ele>151.098477</ele>
        <time>2024-09-22T00:47:31.960Z</time>
      </trkpt>
      <trkpt lat="48.484884" lon="1.612655">
        <ele>152.397276</ele>
        <time>2024-09-22T00:47:59.871Z</time>
      </trkpt>
      <trkpt lat="48.484716" lon="1.611626">
        <ele>152.945738</ele>
        <time>2024-09-22T00:48:11.736Z</time>
      </trkpt>
      <trkpt lat="48.484619" lon="1.611171">
        <ele>153.029726</ele>
        <time>2024-09-22T00:48:16.677Z</time>
      </trkpt>
      <trkpt lat="48.484234" lon="1.610204">
        <ele>152.884267</ele>
        <time>2024-09-22T00:48:27.516Z</time>
      </trkpt>
      <trkpt lat="48.484165" lon="1.609898">
        <ele>152.842589</ele>
        <time>2024-09-22T00:48:30.450Z</time>
      </trkpt>
      <trkpt lat="48.484158" lon="1.609429">
        <ele>152.782096</ele>
        <time>2024-09-22T00:48:34.667Z</time>
      </trkpt>
      <trkpt lat="48.484312" lon="1.606272">
        <ele>151.626064</ele>
        <time>2024-09-22T00:49:02.205Z</time>
      </trkpt>
      <trkpt lat="48.484426" lon="1.604809">
        <ele>150.345450</ele>
        <time>2024-09-22T00:49:13.878Z</time>
      </trkpt>
      <trkpt lat="48.484632" lon="1.602352">
        <ele>147.951516</ele>
        <time>2024-09-22T00:49:32.413Z</time>
      </trkpt>
      <trkpt lat="48.484801" lon="1.600659">
        <ele>146.213186</ele>
        <time>2024-09-22T00:49:45.398Z</time>
      </trkpt>
      <trkpt lat="48.484828" lon="1.600183">
        <ele>145.883106</ele>
        <time>2024-09-22T00:49:49.128Z</time>
      </trkpt>
      <trkpt lat="48.484831" lon="1.599711">
        <ele>145.556976</ele>
        <time>2024-09-22T00:49:52.877Z</time>
      </trkpt>
      <trkpt lat="48.484722" lon="1.597712">
        <ele>144.276526</ele>
        <time>2024-09-22T00:50:09.483Z</time>
      </trkpt>
      <trkpt lat="48.484727" lon="1.595943">
        <ele>143.534891</ele>
        <time>2024-09-22T00:50:24.857Z</time>
      </trkpt>
      <trkpt lat="48.484752" lon="1.594858">
        <ele>143.069972</ele>
        <time>2024-09-22T00:50:34.275Z</time>
      </trkpt>
      <trkpt lat="48.484884" lon="1.593704">
        <ele>142.557383</ele>
        <time>2024-09-22T00:50:44.366Z</time>
      </trkpt>
      <trkpt lat="48.484940" lon="1.592671">
        <ele>142.101328</ele>
        <time>2024-09-22T00:50:53.062Z</time>
      </trkpt>
      <trkpt lat="48.484961" lon="1.591946">
        <ele>141.707571</ele>
        <time>2024-09-22T00:50:59.075Z</time>
      </trkpt>
      <trkpt lat="48.484950" lon="1.591115">
        <ele>141.256584</ele>
        <time>2024-09-22T00:51:05.874Z</time>
      </trkpt>
      <trkpt lat="48.484907" lon="1.590768">
        <ele>141.065041</ele>
        <time>2024-09-22T00:51:08.824Z</time>
      </trkpt>
      <trkpt lat="48.484898" lon="1.590333">
        <ele>140.828897</ele>
        <time>2024-09-22T00:51:12.448Z</time>
      </trkpt>
      <trkpt lat="48.484907" lon="1.589289">
        <ele>140.494391</ele>
        <time>2024-09-22T00:51:21.209Z</time>
      </trkpt>
      <trkpt lat="48.484964" lon="1.589067">
        <ele>140.444315</ele>
        <time>2024-09-22T00:51:23.233Z</time>
      </trkpt>
      <trkpt lat="48.484974" lon="1.588879">
        <ele>140.404644</ele>
        <time>2024-09-22T00:51:24.857Z</time>
      </trkpt>
      <trkpt lat="48.484933" lon="1.588152">
        <ele>140.251175</ele>
        <time>2024-09-22T00:51:31.347Z</time>
      </trkpt>
      <trkpt lat="48.484897" lon="1.586362">
        <ele>140.175384</ele>
        <time>2024-09-22T00:51:50.317Z</time>
      </trkpt>
      <trkpt lat="48.484983" lon="1.586143">
        <ele>140.204041</ele>
        <time>2024-09-22T00:51:53.142Z</time>
      </trkpt>
      <trkpt lat="48.485199" lon="1.585730">
        <ele>140.263267</ele>
        <time>2024-09-22T00:51:58.739Z</time>
      </trkpt>
      <trkpt lat="48.485460" lon="1.585311">
        <ele>140.327998</ele>
        <time>2024-09-22T00:52:04.540Z</time>
      </trkpt>
      <trkpt lat="48.485867" lon="1.584963">
        <ele>140.380129</ele>
        <time>2024-09-22T00:52:11.180Z</time>
      </trkpt>
      <trkpt lat="48.486206" lon="1.584572">
        <ele>140.389682</ele>
        <time>2024-09-22T00:52:17.446Z</time>
      </trkpt>
      <trkpt lat="48.486289" lon="1.584501">
        <ele>140.391818</ele>
        <time>2024-09-22T00:52:18.874Z</time>
      </trkpt>
      <trkpt lat="48.486351" lon="1.584491">
        <ele>140.393214</ele>
        <time>2024-09-22T00:52:19.815Z</time>
      </trkpt>
      <trkpt lat="48.486449" lon="1.583484">
        <ele>140.408315</ele>
        <time>2024-09-22T00:52:29.683Z</time>
      </trkpt>
      <trkpt lat="48.486445" lon="1.583352">
        <ele>140.410276</ele>
        <time>2024-09-22T00:52:30.942Z</time>
      </trkpt>
      <trkpt lat="48.486392" lon="1.583170">
        <ele>140.413225</ele>
        <time>2024-09-22T00:52:32.932Z</time>
      </trkpt>
      <trkpt lat="48.486584" lon="1.582939">
        <ele>140.473450</ele>
        <time>2024-09-22T00:52:36.693Z</time>
      </trkpt>
      <trkpt lat="48.486824" lon="1.582566">
        <ele>140.651580</ele>
        <time>2024-09-22T00:52:42.238Z</time>
      </trkpt>
      <trkpt lat="48.487553" lon="1.581359">
        <ele>141.211122</ele>
        <time>2024-09-22T00:53:01.382Z</time>
      </trkpt>
      <trkpt lat="48.487692" lon="1.581069">
        <ele>141.333751</ele>
        <time>2024-09-22T00:53:05.721Z</time>
      </trkpt>
      <trkpt lat="48.487742" lon="1.580817">
        <ele>141.327851</ele>
        <time>2024-09-22T00:53:08.747Z</time>
      </trkpt>
      <trkpt lat="48.487811" lon="1.580112">
        <ele>141.270502</ele>
        <time>2024-09-22T00:53:16.475Z</time>
      </trkpt>
      <trkpt lat="48.487803" lon="1.579830">
        <ele>141.247788</ele>
        <time>2024-09-22T00:53:19.300Z</time>
      </trkpt>
      <trkpt lat="48.487712" lon="1.579472">
        <ele>141.216933</ele>
        <time>2024-09-22T00:53:22.899Z</time>
      </trkpt>
      <trkpt lat="48.487611" lon="1.579190">
        <ele>141.191138</ele>
        <time>2024-09-22T00:53:25.713Z</time>
      </trkpt>
      <trkpt lat="48.487591" lon="1.578767">
        <ele>141.157011</ele>
        <time>2024-09-22T00:53:29.321Z</time>
      </trkpt>
      <trkpt lat="48.487671" lon="1.577839">
        <ele>140.715240</ele>
        <time>2024-09-22T00:53:36.982Z</time>
      </trkpt>
      <trkpt lat="48.487665" lon="1.577311">
        <ele>140.334388</ele>
        <time>2024-09-22T00:53:41.294Z</time>
      </trkpt>
      <trkpt lat="48.487409" lon="1.576322">
        <ele>139.568647</ele>
        <time>2024-09-22T00:53:49.680Z</time>
      </trkpt>
      <trkpt lat="48.487404" lon="1.576236">
        <ele>139.506384</ele>
        <time>2024-09-22T00:53:50.351Z</time>
      </trkpt>
      <trkpt lat="48.487470" lon="1.576065">
        <ele>139.363670</ele>
        <time>2024-09-22T00:53:51.873Z</time>
      </trkpt>
      <trkpt lat="48.487764" lon="1.575855">
        <ele>139.001641</ele>
        <time>2024-09-22T00:53:55.705Z</time>
      </trkpt>
      <trkpt lat="48.487821" lon="1.575767">
        <ele>138.908444</ele>
        <time>2024-09-22T00:53:56.671Z</time>
      </trkpt>
      <trkpt lat="48.487879" lon="1.575587">
        <ele>138.756851</ele>
        <time>2024-09-22T00:53:58.244Z</time>
      </trkpt>
      <trkpt lat="48.487954" lon="1.574952">
        <ele>138.268318</ele>
        <time>2024-09-22T00:54:03.321Z</time>
      </trkpt>
      <trkpt lat="48.488100" lon="1.574167">
        <ele>137.650784</ele>
        <time>2024-09-22T00:54:09.818Z</time>
      </trkpt>
      <trkpt lat="48.488434" lon="1.572898">
        <ele>136.921413</ele>
        <time>2024-09-22T00:54:20.838Z</time>
      </trkpt>
      <trkpt lat="48.488609" lon="1.572126">
        <ele>136.681317</ele>
        <time>2024-09-22T00:54:27.892Z</time>
      </trkpt>
      <trkpt lat="48.488793" lon="1.571574">
        <ele>136.499494</ele>
        <time>2024-09-22T00:54:33.621Z</time>
      </trkpt>
      <trkpt lat="48.489663" lon="1.569849">
        <ele>136.987605</ele>
        <time>2024-09-22T00:54:55.970Z</time>
      </trkpt>
      <trkpt lat="48.490243" lon="1.568499">
        <ele>137.997279</ele>
        <time>2024-09-22T00:55:17.001Z</time>
      </trkpt>
      <trkpt lat="48.490605" lon="1.567066">
        <ele>139.745906</ele>
        <time>2024-09-22T00:55:38.878Z</time>
      </trkpt>
      <trkpt lat="48.490819" lon="1.565802">
        <ele>141.307414</ele>
        <time>2024-09-22T00:55:59.248Z</time>
      </trkpt>
      <trkpt lat="48.490969" lon="1.564638">
        <ele>142.814772</ele>
        <time>2024-09-22T00:56:17.389Z</time>
      </trkpt>
      <trkpt lat="48.491080" lon="1.563577">
        <ele>144.122598</ele>
        <time>2024-09-22T00:56:33.007Z</time>
      </trkpt>
      <trkpt lat="48.491207" lon="1.561925">
        <ele>145.373122</ele>
        <time>2024-09-22T00:56:54.843Z</time>
      </trkpt>
      <trkpt lat="48.491356" lon="1.560987">
        <ele>146.085430</ele>
        <time>2024-09-22T00:57:06.367Z</time>
      </trkpt>
      <trkpt lat="48.491544" lon="1.560100">
        <ele>146.293831</ele>
        <time>2024-09-22T00:57:17.372Z</time>
      </trkpt>
      <trkpt lat="48.491605" lon="1.559914">
        <ele>146.340273</ele>
        <time>2024-09-22T00:57:19.597Z</time>
      </trkpt>
      <trkpt lat="48.491780" lon="1.559380">
        <ele>146.473586</ele>
        <time>2024-09-22T00:57:25.797Z</time>
      </trkpt>
      <trkpt lat="48.491867" lon="1.559211">
        <ele>146.521475</ele>
        <time>2024-09-22T00:57:27.954Z</time>
      </trkpt>
      <trkpt lat="48.492113" lon="1.558733">
        <ele>146.656909</ele>
        <time>2024-09-22T00:57:33.880Z</time>
      </trkpt>
      <trkpt lat="48.492235" lon="1.558665">
        <ele>146.664320</ele>
        <time>2024-09-22T00:57:35.676Z</time>
      </trkpt>
      <trkpt lat="48.492262" lon="1.558613">
        <ele>146.639266</ele>
        <time>2024-09-22T00:57:36.871Z</time>
      </trkpt>
      <trkpt lat="48.492611" lon="1.558234">
        <ele>146.393196</ele>
        <time>2024-09-22T00:57:48.566Z</time>
      </trkpt>
      <trkpt lat="48.492958" lon="1.557804">
        <ele>146.136235</ele>
        <time>2024-09-22T00:58:00.575Z</time>
      </trkpt>
      <trkpt lat="48.493601" lon="1.556935">
        <ele>145.637700</ele>
        <time>2024-09-22T00:58:21.934Z</time>
      </trkpt>
      <trkpt lat="48.493967" lon="1.556399">
        <ele>145.261255</ele>
        <time>2024-09-22T00:58:34.185Z</time>
      </trkpt>
      <trkpt lat="48.494407" lon="1.555681">
        <ele>144.782920</ele>
        <time>2024-09-22T00:58:50.847Z</time>
      </trkpt>
      <trkpt lat="48.494686" lon="1.555172">
        <ele>144.459827</ele>
        <time>2024-09-22T00:59:02.379Z</time>
      </trkpt>
      <trkpt lat="48.494723" lon="1.555075">
        <ele>144.405084</ele>
        <time>2024-09-22T00:59:04.248Z</time>
      </trkpt>
      <trkpt lat="48.494716" lon="1.554920">
        <ele>144.329442</ele>
        <time>2024-09-22T00:59:07.064Z</time>
      </trkpt>
      <trkpt lat="48.494613" lon="1.554507">
        <ele>144.170925</ele>
        <time>2024-09-22T00:59:14.681Z</time>
      </trkpt>
      <trkpt lat="48.494542" lon="1.553992">
        <ele>143.981964</ele>
        <time>2024-09-22T00:59:23.714Z</time>
      </trkpt>
      <trkpt lat="48.494485" lon="1.553338">
        <ele>143.745008</ele>
        <time>2024-09-22T00:59:35.053Z</time>
      </trkpt>
      <trkpt lat="48.494532" lon="1.552062">
        <ele>143.256934</ele>
        <time>2024-09-22T00:59:57.087Z</time>
      </trkpt>
      <trkpt lat="48.494542" lon="1.550427">
        <ele>142.424483</ele>
        <time>2024-09-22T01:00:23.787Z</time>
      </trkpt>
      <trkpt lat="48.494514" lon="1.549800">
        <ele>142.104539</ele>
        <time>2024-09-22T01:00:29.086Z</time>
      </trkpt>
      <trkpt lat="48.494407" lon="1.549140">
        <ele>142.055016</ele>
        <time>2024-09-22T01:00:35.222Z</time>
      </trkpt>
      <trkpt lat="48.494208" lon="1.548518">
        <ele>142.188224</ele>
        <time>2024-09-22T01:00:42.115Z</time>
      </trkpt>
      <trkpt lat="48.493768" lon="1.547516">
        <ele>142.420048</ele>
        <time>2024-09-22T01:00:55.654Z</time>
      </trkpt>
      <trkpt lat="48.493611" lon="1.547044">
        <ele>142.578028</ele>
        <time>2024-09-22T01:01:02.035Z</time>
      </trkpt>
      <trkpt lat="48.493270" lon="1.545505">
        <ele>143.597337</ele>
        <time>2024-09-22T01:01:22.201Z</time>
      </trkpt>
      <trkpt lat="48.492961" lon="1.543506">
        <ele>144.266163</ele>
        <time>2024-09-22T01:01:47.486Z</time>
      </trkpt>
      <trkpt lat="48.492798" lon="1.542873">
        <ele>144.306215</ele>
        <time>2024-09-22T01:01:54.514Z</time>
      </trkpt>
      <trkpt lat="48.492570" lon="1.542251">
        <ele>144.348137</ele>
        <time>2024-09-22T01:02:00.720Z</time>
      </trkpt>
      <trkpt lat="48.492290" lon="1.541356">
        <ele>143.094017</ele>
        <time>2024-09-22T01:02:08.456Z</time>
      </trkpt>
      <trkpt lat="48.492179" lon="1.541131">
        <ele>142.623475</ele>
        <time>2024-09-22T01:02:10.458Z</time>
      </trkpt>
      <trkpt lat="48.492069" lon="1.541002">
        <ele>142.270829</ele>
        <time>2024-09-22T01:02:12.034Z</time>
      </trkpt>
      <trkpt lat="48.491654" lon="1.540665">
        <ele>141.077888</ele>
        <time>2024-09-22T01:02:17.073Z</time>
      </trkpt>
      <trkpt lat="48.490918" lon="1.539984">
        <ele>137.820797</ele>
        <time>2024-09-22T01:02:25.410Z</time>
      </trkpt>
      <trkpt lat="48.490417" lon="1.539604">
        <ele>134.741834</ele>
        <time>2024-09-22T01:02:30.692Z</time>
      </trkpt>
      <trkpt lat="48.490094" lon="1.539362">
        <ele>132.761653</ele>
        <time>2024-09-22T01:02:33.980Z</time>
      </trkpt>
      <trkpt lat="48.489746" lon="1.538976">
        <ele>130.390049</ele>
        <time>2024-09-22T01:02:37.897Z</time>
      </trkpt>
      <trkpt lat="48.489420" lon="1.538502">
        <ele>127.915817</ele>
        <time>2024-09-22T01:02:41.993Z</time>
      </trkpt>
      <trkpt lat="48.489370" lon="1.538370">
        <ele>127.365710</ele>
        <time>2024-09-22T01:02:42.921Z</time>
      </trkpt>
      <trkpt lat="48.489370" lon="1.538254">
        <ele>126.945996</ele>
        <time>2024-09-22T01:02:43.621Z</time>
      </trkpt>
      <trkpt lat="48.489443" lon="1.537925">
        <ele>125.690661</ele>
        <time>2024-09-22T01:02:45.692Z</time>
      </trkpt>
      <trkpt lat="48.489439" lon="1.537753">
        <ele>125.067945</ele>
        <time>2024-09-22T01:02:46.737Z</time>
      </trkpt>
      <trkpt lat="48.488847" lon="1.536892">
        <ele>120.579018</ele>
        <time>2024-09-22T01:02:54.491Z</time>
      </trkpt>
      <trkpt lat="48.488804" lon="1.536740">
        <ele>120.072064</ele>
        <time>2024-09-22T01:02:55.551Z</time>
      </trkpt>
      <trkpt lat="48.488591" lon="1.536602">
        <ele>119.676507</ele>
        <time>2024-09-22T01:02:57.875Z</time>
      </trkpt>
      <trkpt lat="48.488502" lon="1.536441">
        <ele>119.439401</ele>
        <time>2024-09-22T01:02:59.259Z</time>
      </trkpt>
      <trkpt lat="48.488375" lon="1.536110">
        <ele>119.006849</ele>
        <time>2024-09-22T01:03:02.072Z</time>
      </trkpt>
      <trkpt lat="48.488337" lon="1.536002">
        <ele>118.868560</ele>
        <time>2024-09-22T01:03:03.023Z</time>
      </trkpt>
      <trkpt lat="48.488011" lon="1.535072">
        <ele>117.678713</ele>
        <time>2024-09-22T01:03:11.749Z</time>
      </trkpt>
      <trkpt lat="48.487709" lon="1.534284">
        <ele>116.990704</ele>
        <time>2024-09-22T01:03:19.939Z</time>
      </trkpt>
      <trkpt lat="48.487627" lon="1.533941">
        <ele>116.934820</ele>
        <time>2024-09-22T01:03:23.391Z</time>
      </trkpt>
      <trkpt lat="48.487612" lon="1.533444">
        <ele>116.858570</ele>
        <time>2024-09-22T01:03:28.123Z</time>
      </trkpt>
      <trkpt lat="48.487583" lon="1.533315">
        <ele>116.837693</ele>
        <time>2024-09-22T01:03:29.447Z</time>
      </trkpt>
      <trkpt lat="48.487521" lon="1.533090">
        <ele>116.800347</ele>
        <time>2024-09-22T01:03:31.704Z</time>
      </trkpt>
      <trkpt lat="48.487069" lon="1.532160">
        <ele>116.628220</ele>
        <time>2024-09-22T01:03:42.693Z</time>
      </trkpt>
      <trkpt lat="48.487008" lon="1.531727">
        <ele>116.626887</ele>
        <time>2024-09-22T01:03:46.631Z</time>
      </trkpt>
      <trkpt lat="48.486968" lon="1.531064">
        <ele>116.624882</ele>
        <time>2024-09-22T01:03:52.494Z</time>
      </trkpt>
      <trkpt lat="48.486930" lon="1.530235">
        <ele>116.622379</ele>
        <time>2024-09-22T01:04:00.672Z</time>
      </trkpt>
      <trkpt lat="48.486955" lon="1.530115">
        <ele>116.622001</ele>
        <time>2024-09-22T01:04:02.006Z</time>
      </trkpt>
      <trkpt lat="48.486787" lon="1.529577">
        <ele>116.620210</ele>
        <time>2024-09-22T01:04:08.684Z</time>
      </trkpt>
      <trkpt lat="48.486620" lon="1.529176">
        <ele>116.890216</ele>
        <time>2024-09-22T01:04:14.025Z</time>
      </trkpt>
      <trkpt lat="48.486446" lon="1.528835">
        <ele>117.148205</ele>
        <time>2024-09-22T01:04:18.811Z</time>
      </trkpt>
      <trkpt lat="48.486277" lon="1.528551">
        <ele>117.377012</ele>
        <time>2024-09-22T01:04:23.168Z</time>
      </trkpt>
      <trkpt lat="48.485917" lon="1.527948">
        <ele>117.863533</ele>
        <time>2024-09-22T01:04:33.391Z</time>
      </trkpt>
      <trkpt lat="48.485960" lon="1.527879">
        <ele>117.920311</ele>
        <time>2024-09-22T01:04:35.972Z</time>
      </trkpt>
      <trkpt lat="48.485845" lon="1.527764">
        <ele>118.045100</ele>
        <time>2024-09-22T01:04:41.854Z</time>
      </trkpt>
      <trkpt lat="48.485745" lon="1.527544">
        <ele>118.205024</ele>
        <time>2024-09-22T01:04:49.510Z</time>
      </trkpt>
      <trkpt lat="48.485655" lon="1.527346">
        <ele>118.373123</ele>
        <time>2024-09-22T01:04:56.359Z</time>
      </trkpt>
      <trkpt lat="48.485650" lon="1.526998">
        <ele>118.631251</ele>
        <time>2024-09-22T01:05:06.543Z</time>
      </trkpt>
      <trkpt lat="48.485638" lon="1.526927">
        <ele>118.685588</ele>
        <time>2024-09-22T01:05:08.535Z</time>
      </trkpt>
      <trkpt lat="48.485719" lon="1.526908">
        <ele>118.777303</ele>
        <time>2024-09-22T01:05:10.277Z</time>
      </trkpt>
      <trkpt lat="48.485998" lon="1.526787">
        <ele>119.102099</ele>
        <time>2024-09-22T01:05:15.980Z</time>
      </trkpt>
      <trkpt lat="48.486710" lon="1.526445">
        <ele>119.938110</ele>
        <time>2024-09-22T01:05:30.214Z</time>
      </trkpt>
      <trkpt lat="48.486969" lon="1.526362">
        <ele>120.234354</ele>
        <time>2024-09-22T01:05:35.179Z</time>
      </trkpt>
      <trkpt lat="48.487012" lon="1.526458">
        <ele>120.253666</ele>
        <time>2024-09-22T01:05:36.409Z</time>
      </trkpt>
      <trkpt lat="48.487087" lon="1.526479">
        <ele>120.245661</ele>
        <time>2024-09-22T01:05:37.924Z</time>
      </trkpt>
      <trkpt lat="48.487133" lon="1.526443">
        <ele>120.240223</ele>
        <time>2024-09-22T01:05:39.019Z</time>
      </trkpt>
      <trkpt lat="48.487165" lon="1.526324">
        <ele>120.231291</ele>
        <time>2024-09-22T01:05:40.409Z</time>
      </trkpt>
      <trkpt lat="48.487144" lon="1.526243">
        <ele>120.225241</ele>
        <time>2024-09-22T01:05:41.253Z</time>
      </trkpt>
      <trkpt lat="48.487097" lon="1.526192">
        <ele>120.219166</ele>
        <time>2024-09-22T01:05:42.070Z</time>
      </trkpt>
      <trkpt lat="48.487068" lon="1.525963">
        <ele>120.202950</ele>
        <time>2024-09-22T01:05:44.797Z</time>
      </trkpt>
      <trkpt lat="48.486668" lon="1.524677">
        <ele>120.104145</ele>
        <time>2024-09-22T01:05:57.523Z</time>
      </trkpt>
      <trkpt lat="48.486499" lon="1.523883">
        <ele>119.892004</ele>
        <time>2024-09-22T01:06:04.722Z</time>
      </trkpt>
      <trkpt lat="48.486460" lon="1.523568">
        <ele>119.729414</ele>
        <time>2024-09-22T01:06:07.393Z</time>
      </trkpt>
      <trkpt lat="48.486475" lon="1.523243">
        <ele>119.564116</ele>
        <time>2024-09-22T01:06:10.068Z</time>
      </trkpt>
      <trkpt lat="48.486557" lon="1.522840">
        <ele>119.350223</ele>
        <time>2024-09-22T01:06:13.533Z</time>
      </trkpt>
      <trkpt lat="48.486705" lon="1.522425">
        <ele>119.111115</ele>
        <time>2024-09-22T01:06:17.391Z</time>
      </trkpt>
      <trkpt lat="48.486883" lon="1.522021">
        <ele>118.864977</ele>
        <time>2024-09-22T01:06:21.395Z</time>
      </trkpt>
      <trkpt lat="48.486987" lon="1.521663">
        <ele>118.682235</ele>
        <time>2024-09-22T01:06:24.708Z</time>
      </trkpt>
      <trkpt lat="48.487072" lon="1.521192">
        <ele>118.577033</ele>
        <time>2024-09-22T01:06:28.960Z</time>
      </trkpt>
      <trkpt lat="48.487195" lon="1.520215">
        <ele>118.362714</ele>
        <time>2024-09-22T01:06:37.790Z</time>
      </trkpt>
      <trkpt lat="48.487278" lon="1.519814">
        <ele>118.272178</ele>
        <time>2024-09-22T01:06:41.580Z</time>
      </trkpt>
      <trkpt lat="48.487399" lon="1.519326">
        <ele>118.159891</ele>
        <time>2024-09-22T01:06:46.510Z</time>
      </trkpt>
      <trkpt lat="48.487923" lon="1.518026">
        <ele>118.461551</ele>
        <time>2024-09-22T01:07:02.928Z</time>
      </trkpt>
      <trkpt lat="48.488000" lon="1.517784">
        <ele>118.535228</ele>
        <time>2024-09-22T01:07:05.982Z</time>
      </trkpt>
      <trkpt lat="48.488251" lon="1.516326">
        <ele>118.904994</ele>
        <time>2024-09-22T01:07:22.870Z</time>
      </trkpt>
      <trkpt lat="48.488261" lon="1.515955">
        <ele>118.960025</ele>
        <time>2024-09-22T01:07:26.907Z</time>
      </trkpt>
      <trkpt lat="48.488219" lon="1.515757">
        <ele>118.990836</ele>
        <time>2024-09-22T01:07:29.223Z</time>
      </trkpt>
      <trkpt lat="48.487638" lon="1.514046">
        <ele>119.256789</ele>
        <time>2024-09-22T01:07:48.937Z</time>
      </trkpt>
      <trkpt lat="48.487609" lon="1.513860">
        <ele>119.258009</ele>
        <time>2024-09-22T01:07:50.756Z</time>
      </trkpt>
      <trkpt lat="48.487589" lon="1.513634">
        <ele>119.259464</ele>
        <time>2024-09-22T01:07:52.951Z</time>
      </trkpt>
      <trkpt lat="48.487609" lon="1.513186">
        <ele>119.262330</ele>
        <time>2024-09-22T01:07:57.320Z</time>
      </trkpt>
      <trkpt lat="48.487699" lon="1.511615">
        <ele>119.272396</ele>
        <time>2024-09-22T01:08:12.435Z</time>
      </trkpt>
      <trkpt lat="48.487764" lon="1.511042">
        <ele>119.413648</ele>
        <time>2024-09-22T01:08:18.297Z</time>
      </trkpt>
      <trkpt lat="48.487823" lon="1.510825">
        <ele>119.487424</ele>
        <time>2024-09-22T01:08:20.875Z</time>
      </trkpt>
      <trkpt lat="48.487949" lon="1.510509">
        <ele>119.603419</ele>
        <time>2024-09-22T01:08:24.954Z</time>
      </trkpt>
      <trkpt lat="48.488202" lon="1.510025">
        <ele>119.797307</ele>
        <time>2024-09-22T01:08:31.920Z</time>
      </trkpt>
      <trkpt lat="48.488356" lon="1.509691">
        <ele>119.925284</ele>
        <time>2024-09-22T01:08:36.755Z</time>
      </trkpt>
      <trkpt lat="48.488443" lon="1.509437">
        <ele>120.015215</ele>
        <time>2024-09-22T01:08:40.015Z</time>
      </trkpt>
      <trkpt lat="48.488529" lon="1.509118">
        <ele>120.123535</ele>
        <time>2024-09-22T01:08:44.018Z</time>
      </trkpt>
      <trkpt lat="48.488585" lon="1.508758">
        <ele>120.212924</ele>
        <time>2024-09-22T01:08:48.366Z</time>
      </trkpt>
      <trkpt lat="48.488599" lon="1.508398">
        <ele>120.299326</ele>
        <time>2024-09-22T01:08:52.272Z</time>
      </trkpt>
      <trkpt lat="48.488582" lon="1.508123">
        <ele>120.365500</ele>
        <time>2024-09-22T01:08:55.411Z</time>
      </trkpt>
      <trkpt lat="48.488499" lon="1.507759">
        <ele>120.457729</ele>
        <time>2024-09-22T01:08:59.813Z</time>
      </trkpt>
      <trkpt lat="48.488353" lon="1.507377">
        <ele>120.563382</ele>
        <time>2024-09-22T01:09:04.719Z</time>
      </trkpt>
      <trkpt lat="48.488190" lon="1.507109">
        <ele>120.650533</ele>
        <time>2024-09-22T01:09:08.658Z</time>
      </trkpt>
      <trkpt lat="48.487616" lon="1.506385">
        <ele>120.602193</ele>
        <time>2024-09-22T01:09:19.388Z</time>
      </trkpt>
      <trkpt lat="48.486223" lon="1.504532">
        <ele>119.856543</ele>
        <time>2024-09-22T01:09:43.622Z</time>
      </trkpt>
      <trkpt lat="48.485703" lon="1.503840">
        <ele>119.658426</ele>
        <time>2024-09-22T01:09:53.071Z</time>
      </trkpt>
      <trkpt lat="48.484067" lon="1.501892">
        <ele>119.506834</ele>
        <time>2024-09-22T01:10:23.719Z</time>
      </trkpt>
      <trkpt lat="48.483582" lon="1.501411">
        <ele>119.603806</ele>
        <time>2024-09-22T01:10:32.868Z</time>
      </trkpt>
      <trkpt lat="48.482750" lon="1.500893">
        <ele>119.970251</ele>
        <time>2024-09-22T01:10:47.564Z</time>
      </trkpt>
      <trkpt lat="48.482533" lon="1.500770">
        <ele>120.064629</ele>
        <time>2024-09-22T01:10:51.473Z</time>
      </trkpt>
      <trkpt lat="48.481636" lon="1.500262">
        <ele>120.556952</ele>
        <time>2024-09-22T01:11:07.805Z</time>
      </trkpt>
      <trkpt lat="48.481371" lon="1.500168">
        <ele>120.722514</ele>
        <time>2024-09-22T01:11:12.415Z</time>
      </trkpt>
      <trkpt lat="48.481006" lon="1.499461">
        <ele>121.083780</ele>
        <time>2024-09-22T01:11:22.437Z</time>
      </trkpt>
      <trkpt lat="48.480739" lon="1.499007">
        <ele>121.328456</ele>
        <time>2024-09-22T01:11:29.413Z</time>
      </trkpt>
      <trkpt lat="48.479607" lon="1.497079">
        <ele>123.070001</ele>
        <time>2024-09-22T01:12:01.915Z</time>
      </trkpt>
      <trkpt lat="48.479381" lon="1.496670">
        <ele>123.401509</ele>
        <time>2024-09-22T01:12:09.037Z</time>
      </trkpt>
      <trkpt lat="48.478954" lon="1.495800">
        <ele>124.046414</ele>
        <time>2024-09-22T01:12:22.727Z</time>
      </trkpt>
      <trkpt lat="48.478451" lon="1.495166">
        <ele>124.635494</ele>
        <time>2024-09-22T01:12:34.545Z</time>
      </trkpt>
      <trkpt lat="48.478009" lon="1.494770">
        <ele>124.781352</ele>
        <time>2024-09-22T01:12:43.155Z</time>
      </trkpt>
      <trkpt lat="48.477886" lon="1.494696">
        <ele>124.772939</ele>
        <time>2024-09-22T01:12:45.140Z</time>
      </trkpt>
      <trkpt lat="48.477337" lon="1.494434">
        <ele>124.736353</ele>
        <time>2024-09-22T01:12:54.175Z</time>
      </trkpt>
      <trkpt lat="48.476963" lon="1.494280">
        <ele>124.711720</ele>
        <time>2024-09-22T01:12:59.506Z</time>
      </trkpt>
      <trkpt lat="48.476517" lon="1.494104">
        <ele>124.612458</ele>
        <time>2024-09-22T01:13:05.291Z</time>
      </trkpt>
      <trkpt lat="48.476148" lon="1.493957">
        <ele>124.280696</ele>
        <time>2024-09-22T01:13:10.056Z</time>
      </trkpt>
      <trkpt lat="48.475719" lon="1.493784">
        <ele>123.894678</ele>
        <time>2024-09-22T01:13:15.616Z</time>
      </trkpt>
      <trkpt lat="48.475142" lon="1.493743">
        <ele>123.392547</ele>
        <time>2024-09-22T01:13:22.843Z</time>
      </trkpt>
      <trkpt lat="48.474960" lon="1.493663">
        <ele>123.227757</ele>
        <time>2024-09-22T01:13:25.201Z</time>
      </trkpt>
      <trkpt lat="48.474865" lon="1.493573">
        <ele>123.130239</ele>
        <time>2024-09-22T01:13:26.561Z</time>
      </trkpt>
      <trkpt lat="48.474716" lon="1.493358">
        <ele>122.885691</ele>
        <time>2024-09-22T01:13:29.066Z</time>
      </trkpt>
      <trkpt lat="48.474433" lon="1.492155">
        <ele>121.873047</ele>
        <time>2024-09-22T01:13:38.941Z</time>
      </trkpt>
      <trkpt lat="48.474288" lon="1.491523">
        <ele>121.342504</ele>
        <time>2024-09-22T01:13:44.233Z</time>
      </trkpt>
      <trkpt lat="48.474240" lon="1.491389">
        <ele>121.221676</ele>
        <time>2024-09-22T01:13:45.460Z</time>
      </trkpt>
      <trkpt lat="48.473968" lon="1.490448">
        <ele>120.791023</ele>
        <time>2024-09-22T01:13:53.595Z</time>
      </trkpt>
      <trkpt lat="48.473659" lon="1.489380">
        <ele>120.494614</ele>
        <time>2024-09-22T01:14:03.559Z</time>
      </trkpt>
      <trkpt lat="48.473417" lon="1.488640">
        <ele>120.284725</ele>
        <time>2024-09-22T01:14:12.160Z</time>
      </trkpt>
      <trkpt lat="48.472840" lon="1.487256">
        <ele>121.939107</ele>
        <time>2024-09-22T01:14:33.807Z</time>
      </trkpt>
      <trkpt lat="48.472740" lon="1.486922">
        <ele>122.312995</ele>
        <time>2024-09-22T01:14:39.585Z</time>
      </trkpt>
      <trkpt lat="48.472630" lon="1.486407">
        <ele>122.865002</ele>
        <time>2024-09-22T01:14:48.340Z</time>
      </trkpt>
      <trkpt lat="48.472526" lon="1.486053">
        <ele>123.259524</ele>
        <time>2024-09-22T01:14:54.614Z</time>
      </trkpt>
      <trkpt lat="48.472292" lon="1.485559">
        <ele>123.877441</ele>
        <time>2024-09-22T01:15:04.065Z</time>
      </trkpt>
      <trkpt lat="48.472114" lon="1.485260">
        <ele>124.286431</ele>
        <time>2024-09-22T01:15:09.941Z</time>
      </trkpt>
      <trkpt lat="48.471435" lon="1.484277">
        <ele>125.731232</ele>
        <time>2024-09-22T01:15:28.742Z</time>
      </trkpt>
      <trkpt lat="48.471200" lon="1.483849">
        <ele>125.746757</ele>
        <time>2024-09-22T01:15:35.054Z</time>
      </trkpt>
      <trkpt lat="48.470945" lon="1.483216">
        <ele>125.647069</ele>
        <time>2024-09-22T01:15:42.155Z</time>
      </trkpt>
      <trkpt lat="48.470489" lon="1.482472">
        <ele>125.510702</ele>
        <time>2024-09-22T01:15:51.038Z</time>
      </trkpt>
      <trkpt lat="48.470271" lon="1.481981">
        <ele>125.384325</ele>
        <time>2024-09-22T01:15:55.899Z</time>
      </trkpt>
      <trkpt lat="48.470026" lon="1.481313">
        <ele>124.954322</ele>
        <time>2024-09-22T01:16:02.043Z</time>
      </trkpt>
      <trkpt lat="48.469982" lon="1.481123">
        <ele>124.840958</ele>
        <time>2024-09-22T01:16:03.861Z</time>
      </trkpt>
      <trkpt lat="48.470023" lon="1.480957">
        <ele>124.741177</ele>
        <time>2024-09-22T01:16:05.313Z</time>
      </trkpt>
      <trkpt lat="48.469876" lon="1.480894">
        <ele>124.611346</ele>
        <time>2024-09-22T01:16:07.183Z</time>
      </trkpt>
      <trkpt lat="48.469642" lon="1.481256">
        <ele>124.326565</ele>
        <time>2024-09-22T01:16:11.298Z</time>
      </trkpt>
      <trkpt lat="48.469562" lon="1.481419">
        <ele>124.212331</ele>
        <time>2024-09-22T01:16:13.046Z</time>
      </trkpt>
      <trkpt lat="48.469494" lon="1.481604">
        <ele>124.093181</ele>
        <time>2024-09-22T01:16:14.732Z</time>
      </trkpt>
      <trkpt lat="48.469480" lon="1.481665">
        <ele>124.056821</ele>
        <time>2024-09-22T01:16:15.240Z</time>
      </trkpt>
      <trkpt lat="48.469458" lon="1.481734">
        <ele>124.013693</ele>
        <time>2024-09-22T01:16:15.898Z</time>
      </trkpt>
      <trkpt lat="48.469314" lon="1.482183">
        <ele>123.775010</ele>
        <time>2024-09-22T01:16:20.102Z</time>
      </trkpt>
      <trkpt lat="48.469258" lon="1.482349">
        <ele>123.694060</ele>
        <time>2024-09-22T01:16:21.770Z</time>
      </trkpt>
      <trkpt lat="48.469094" lon="1.482670">
        <ele>123.517929</ele>
        <time>2024-09-22T01:16:25.179Z</time>
      </trkpt>
      <trkpt lat="48.468947" lon="1.482846">
        <ele>123.394895</ele>
        <time>2024-09-22T01:16:27.566Z</time>
      </trkpt>
      <trkpt lat="48.468299" lon="1.483261">
        <ele>122.933405</ele>
        <time>2024-09-22T01:16:36.471Z</time>
      </trkpt>
      <trkpt lat="48.468310" lon="1.483153">
        <ele>122.885913</ele>
        <time>2024-09-22T01:16:37.471Z</time>
      </trkpt>
      <trkpt lat="48.468263" lon="1.483042">
        <ele>122.828670</ele>
        <time>2024-09-22T01:16:38.633Z</time>
      </trkpt>
      <trkpt lat="48.468227" lon="1.483026">
        <ele>122.804068</ele>
        <time>2024-09-22T01:16:39.119Z</time>
      </trkpt>
      <trkpt lat="48.468159" lon="1.483020">
        <ele>122.759416</ele>
        <time>2024-09-22T01:16:41.513Z</time>
      </trkpt>
      <trkpt lat="48.468052" lon="1.482856">
        <ele>122.767711</ele>
        <time>2024-09-22T01:16:43.673Z</time>
      </trkpt>
      <trkpt lat="48.467540" lon="1.482584">
        <ele>122.897692</ele>
        <time>2024-09-22T01:16:51.219Z</time>
      </trkpt>
      <trkpt lat="48.467007" lon="1.482444">
        <ele>123.027239</ele>
        <time>2024-09-22T01:16:59.634Z</time>
      </trkpt>
      <trkpt lat="48.466966" lon="1.482465">
        <ele>123.037607</ele>
        <time>2024-09-22T01:17:00.336Z</time>
      </trkpt>
      <trkpt lat="48.466913" lon="1.483324">
        <ele>123.190543</ele>
        <time>2024-09-22T01:17:10.756Z</time>
      </trkpt>
      <trkpt lat="48.466501" lon="1.483187">
        <ele>123.604230</ele>
        <time>2024-09-22T01:17:19.021Z</time>
      </trkpt>
      <trkpt lat="48.465795" lon="1.483117">
        <ele>124.297987</ele>
        <time>2024-09-22T01:17:32.912Z</time>
      </trkpt>
      <trkpt lat="48.465338" lon="1.483075">
        <ele>124.746927</ele>
        <time>2024-09-22T01:17:41.793Z</time>
      </trkpt>
      <trkpt lat="48.464544" lon="1.482766">
        <ele>124.938196</ele>
        <time>2024-09-22T01:17:55.377Z</time>
      </trkpt>
      <trkpt lat="48.464451" lon="1.482773">
        <ele>124.938954</ele>
        <time>2024-09-22T01:17:56.825Z</time>
      </trkpt>
      <trkpt lat="48.464041" lon="1.482904">
        <ele>124.942367</ele>
        <time>2024-09-22T01:18:02.825Z</time>
      </trkpt>
      <trkpt lat="48.463670" lon="1.483212">
        <ele>124.945815</ele>
        <time>2024-09-22T01:18:08.478Z</time>
      </trkpt>
      <trkpt lat="48.463375" lon="1.483516">
        <ele>124.883821</ele>
        <time>2024-09-22T01:18:13.249Z</time>
      </trkpt>
      <trkpt lat="48.463282" lon="1.483639">
        <ele>124.820366</ele>
        <time>2024-09-22T01:18:14.813Z</time>
      </trkpt>
      <trkpt lat="48.463156" lon="1.483813">
        <ele>124.732726</ele>
        <time>2024-09-22T01:18:17.277Z</time>
      </trkpt>
      <trkpt lat="48.463024" lon="1.483996">
        <ele>124.640749</ele>
        <time>2024-09-22T01:18:19.399Z</time>
      </trkpt>
      <trkpt lat="48.462035" lon="1.485218">
        <ele>124.051005</ele>
        <time>2024-09-22T01:18:36.289Z</time>
      </trkpt>
      <trkpt lat="48.461944" lon="1.485196">
        <ele>124.081548</ele>
        <time>2024-09-22T01:18:37.530Z</time>
      </trkpt>
      <trkpt lat="48.461868" lon="1.485095">
        <ele>124.115120</ele>
        <time>2024-09-22T01:18:38.828Z</time>
      </trkpt>
      <trkpt lat="48.461783" lon="1.485325">
        <ele>124.172986</ele>
        <time>2024-09-22T01:18:41.626Z</time>
      </trkpt>
      <trkpt lat="48.461452" lon="1.485778">
        <ele>124.321123</ele>
        <time>2024-09-22T01:18:47.898Z</time>
      </trkpt>
      <trkpt lat="48.460273" lon="1.487292">
        <ele>125.209649</ele>
        <time>2024-09-22T01:19:16.551Z</time>
      </trkpt>
      <trkpt lat="48.460038" lon="1.487535">
        <ele>125.470329</ele>
        <time>2024-09-22T01:19:22.207Z</time>
      </trkpt>
      <trkpt lat="48.459888" lon="1.487622">
        <ele>125.617357</ele>
        <time>2024-09-22T01:19:25.818Z</time>
      </trkpt>
      <trkpt lat="48.459610" lon="1.487650">
        <ele>125.872253</ele>
        <time>2024-09-22T01:19:30.922Z</time>
      </trkpt>
      <trkpt lat="48.459463" lon="1.487612">
        <ele>126.008698</ele>
        <time>2024-09-22T01:19:33.739Z</time>
      </trkpt>
      <trkpt lat="48.459164" lon="1.487452">
        <ele>126.260041</ele>
        <time>2024-09-22T01:19:39.206Z</time>
      </trkpt>
      <trkpt lat="48.458971" lon="1.487082">
        <ele>126.201786</ele>
        <time>2024-09-22T01:19:44.090Z</time>
      </trkpt>
      <trkpt lat="48.458734" lon="1.487594">
        <ele>126.124516</ele>
        <time>2024-09-22T01:19:50.717Z</time>
      </trkpt>
      <trkpt lat="48.458522" lon="1.487798">
        <ele>126.077586</ele>
        <time>2024-09-22T01:19:54.098Z</time>
      </trkpt>
      <trkpt lat="48.458315" lon="1.488041">
        <ele>126.028632</ele>
        <time>2024-09-22T01:19:57.602Z</time>
      </trkpt>
      <trkpt lat="48.457949" lon="1.488395">
        <ele>125.947490</ele>
        <time>2024-09-22T01:20:03.058Z</time>
      </trkpt>
      <trkpt lat="48.457608" lon="1.488596">
        <ele>125.909752</ele>
        <time>2024-09-22T01:20:07.564Z</time>
      </trkpt>
      <trkpt lat="48.457283" lon="1.488695">
        <ele>125.884397</ele>
        <time>2024-09-22T01:20:11.717Z</time>
      </trkpt>
      <trkpt lat="48.456880" lon="1.488724">
        <ele>125.853544</ele>
        <time>2024-09-22T01:20:17.189Z</time>
      </trkpt>
      <trkpt lat="48.456030" lon="1.488784">
        <ele>125.855505</ele>
        <time>2024-09-22T01:20:32.047Z</time>
      </trkpt>
      <trkpt lat="48.455869" lon="1.488795">
        <ele>126.009363</ele>
        <time>2024-09-22T01:20:34.935Z</time>
      </trkpt>
      <trkpt lat="48.454741" lon="1.488851">
        <ele>127.086802</ele>
        <time>2024-09-22T01:20:55.219Z</time>
      </trkpt>
      <trkpt lat="48.454412" lon="1.488832">
        <ele>127.401115</ele>
        <time>2024-09-22T01:21:01.657Z</time>
      </trkpt>
      <trkpt lat="48.454227" lon="1.488823">
        <ele>127.586275</ele>
        <time>2024-09-22T01:21:05.568Z</time>
      </trkpt>
      <trkpt lat="48.453685" lon="1.488824">
        <ele>128.168735</ele>
        <time>2024-09-22T01:21:17.528Z</time>
      </trkpt>
      <trkpt lat="48.453469" lon="1.488745">
        <ele>128.407591</ele>
        <time>2024-09-22T01:21:22.259Z</time>
      </trkpt>
      <trkpt lat="48.453236" lon="1.488538">
        <ele>128.698217</ele>
        <time>2024-09-22T01:21:27.399Z</time>
      </trkpt>
      <trkpt lat="48.453231" lon="1.488521">
        <ele>128.711472</ele>
        <time>2024-09-22T01:21:27.625Z</time>
      </trkpt>
      <trkpt lat="48.453230" lon="1.488456">
        <ele>128.757813</ele>
        <time>2024-09-22T01:21:28.240Z</time>
      </trkpt>
      <trkpt lat="48.453177" lon="1.488367">
        <ele>128.843065</ele>
        <time>2024-09-22T01:21:29.413Z</time>
      </trkpt>
      <trkpt lat="48.453098" lon="1.488377">
        <ele>128.928260</ele>
        <time>2024-09-22T01:21:30.699Z</time>
      </trkpt>
      <trkpt lat="48.453061" lon="1.488445">
        <ele>128.990950</ele>
        <time>2024-09-22T01:21:31.577Z</time>
      </trkpt>
      <trkpt lat="48.452880" lon="1.488514">
        <ele>129.191583</ele>
        <time>2024-09-22T01:21:34.707Z</time>
      </trkpt>
      <trkpt lat="48.452889" lon="1.488553">
        <ele>129.221014</ele>
        <time>2024-09-22T01:21:35.102Z</time>
      </trkpt>
      <trkpt lat="48.452808" lon="1.488573">
        <ele>129.309220</ele>
        <time>2024-09-22T01:21:36.511Z</time>
      </trkpt>
      <trkpt lat="48.452739" lon="1.488588">
        <ele>129.384138</ele>
        <time>2024-09-22T01:21:37.667Z</time>
      </trkpt>
      <trkpt lat="48.452621" lon="1.488617">
        <ele>129.493603</ele>
        <time>2024-09-22T01:21:39.842Z</time>
      </trkpt>
      <trkpt lat="48.452284" lon="1.488710">
        <ele>129.760563</ele>
        <time>2024-09-22T01:21:45.932Z</time>
      </trkpt>
      <trkpt lat="48.451714" lon="1.489290">
        <ele>130.296406</ele>
        <time>2024-09-22T01:22:02.022Z</time>
      </trkpt>
      <trkpt lat="48.451631" lon="1.489361">
        <ele>130.370766</ele>
        <time>2024-09-22T01:22:04.521Z</time>
      </trkpt>
      <trkpt lat="48.450820" lon="1.489677">
        <ele>131.190085</ele>
        <time>2024-09-22T01:22:24.364Z</time>
      </trkpt>
      <trkpt lat="48.450615" lon="1.489661">
        <ele>131.499346</ele>
        <time>2024-09-22T01:22:28.532Z</time>
      </trkpt>
      <trkpt lat="48.450512" lon="1.489634">
        <ele>131.656851</ele>
        <time>2024-09-22T01:22:31.072Z</time>
      </trkpt>
      <trkpt lat="48.450317" lon="1.489586">
        <ele>131.954523</ele>
        <time>2024-09-22T01:22:35.521Z</time>
      </trkpt>
      <trkpt lat="48.450158" lon="1.489553">
        <ele>132.196327</ele>
        <time>2024-09-22T01:22:40.254Z</time>
      </trkpt>
      <trkpt lat="48.449923" lon="1.489684">
        <ele>132.573797</ele>
        <time>2024-09-22T01:22:47.259Z</time>
      </trkpt>
      <trkpt lat="48.449818" lon="1.489747">
        <ele>132.744054</ele>
        <time>2024-09-22T01:22:50.498Z</time>
      </trkpt>
      <trkpt lat="48.449580" lon="1.489669">
        <ele>133.110992</ele>
        <time>2024-09-22T01:22:57.349Z</time>
      </trkpt>
      <trkpt lat="48.449419" lon="1.489736">
        <ele>133.362621</ele>
        <time>2024-09-22T01:23:01.332Z</time>
      </trkpt>
      <trkpt lat="48.449415" lon="1.489740">
        <ele>133.369852</ele>
        <time>2024-09-22T01:23:01.441Z</time>
      </trkpt>
      <trkpt lat="48.449415" lon="1.489740">
        <ele>133.369852</ele>
        <time>2024-09-22T01:23:01.472Z</time>
      </trkpt>
      <trkpt lat="48.449415" lon="1.489740">
        <ele>133.369852</ele>
        <time>2024-09-22T01:23:01.472Z</time>
      </trkpt>
      <trkpt lat="48.449410" lon="1.489730">
        <ele>133.382366</ele>
        <time>2024-09-22T01:23:01.626Z</time>
      </trkpt>
      <trkpt lat="48.449300" lon="1.489850">
        <ele>133.619094</ele>
        <time>2024-09-22T01:23:04.143Z</time>
      </trkpt>
      <trkpt lat="48.449320" lon="1.489820">
        <ele>133.704133</ele>
        <time>2024-09-22T01:23:04.666Z</time>
      </trkpt>
      <trkpt lat="48.449280" lon="1.489880">
        <ele>133.874209</ele>
        <time>2024-09-22T01:23:05.712Z</time>
      </trkpt>
      <trkpt lat="48.449170" lon="1.490080">
        <ele>134.393649</ele>
        <time>2024-09-22T01:23:08.906Z</time>
      </trkpt>
      <trkpt lat="48.448800" lon="1.490310">
        <ele>135.599984</ele>
        <time>2024-09-22T01:23:16.325Z</time>
      </trkpt>
      <trkpt lat="48.448630" lon="1.490390">
        <ele>136.136781</ele>
        <time>2024-09-22T01:23:19.627Z</time>
      </trkpt>
      <trkpt lat="48.448010" lon="1.490370">
        <ele>138.006015</ele>
        <time>2024-09-22T01:23:31.123Z</time>
      </trkpt>
      <trkpt lat="48.447790" lon="1.490400">
        <ele>138.671847</ele>
        <time>2024-09-22T01:23:35.220Z</time>
      </trkpt>
      <trkpt lat="48.447190" lon="1.490730">
        <ele>141.966004</ele>
        <time>2024-09-22T01:23:47.068Z</time>
      </trkpt>
      <trkpt lat="48.446960" lon="1.490780">
        <ele>143.258114</ele>
        <time>2024-09-22T01:23:51.380Z</time>
      </trkpt>
      <trkpt lat="48.446940" lon="1.490540">
        <ele>144.150255</ele>
        <time>2024-09-22T01:23:54.356Z</time>
      </trkpt>
      <trkpt lat="48.446960" lon="1.490290">
        <ele>145.079001</ele>
        <time>2024-09-22T01:23:57.457Z</time>
      </trkpt>
      <trkpt lat="48.447050" lon="1.490080">
        <ele>146.001137</ele>
        <time>2024-09-22T01:24:00.535Z</time>
      </trkpt>
      <trkpt lat="48.447061" lon="1.490085">
        <ele>146.065021</ele>
        <time>2024-09-22T01:24:00.745Z</time>
      </trkpt>
      <trkpt lat="48.447203" lon="1.489864">
        <ele>147.199839</ele>
        <time>2024-09-22T01:24:09.996Z</time>
      </trkpt>
      <trkpt lat="48.447339" lon="1.489712">
        <ele>148.141188</ele>
        <time>2024-09-22T01:24:16.347Z</time>
      </trkpt>
      <trkpt lat="48.447533" lon="1.489500">
        <ele>149.415585</ele>
        <time>2024-09-22T01:24:26.892Z</time>
      </trkpt>
      <trkpt lat="48.448041" lon="1.489167">
        <ele>152.136299</ele>
        <time>2024-09-22T01:24:48.295Z</time>
      </trkpt>
      <trkpt lat="48.448157" lon="1.488946">
        <ele>153.054434</ele>
        <time>2024-09-22T01:24:55.908Z</time>
      </trkpt>
      <trkpt lat="48.447941" lon="1.488685">
        <ele>154.414028</ele>
        <time>2024-09-22T01:25:05.936Z</time>
      </trkpt>
      <trkpt lat="48.447640" lon="1.488558">
        <ele>155.949210</ele>
        <time>2024-09-22T01:25:15.448Z</time>
      </trkpt>
      <trkpt lat="48.447510" lon="1.488392">
        <ele>156.785961</ele>
        <time>2024-09-22T01:25:20.358Z</time>
      </trkpt>
      <trkpt lat="48.447378" lon="1.488174">
        <ele>157.747590</ele>
        <time>2024-09-22T01:25:25.518Z</time>
      </trkpt>
      <trkpt lat="48.447337" lon="1.488061">
        <ele>157.860822</ele>
        <time>2024-09-22T01:25:27.695Z</time>
      </trkpt>
      <trkpt lat="48.447200" lon="1.487895">
        <ele>157.980566</ele>
        <time>2024-09-22T01:25:31.949Z</time>
      </trkpt>
      <trkpt lat="48.446929" lon="1.488220">
        <ele>158.216482</ele>
        <time>2024-09-22T01:25:47.645Z</time>
      </trkpt>
      <trkpt lat="48.446909" lon="1.488246">
        <ele>158.234473</ele>
        <time>2024-09-22T01:25:48.779Z</time>
      </trkpt>
      <trkpt lat="48.446612" lon="1.488677">
        <ele>158.515322</ele>
        <time>2024-09-22T01:26:04.840Z</time>
      </trkpt>
      <trkpt lat="48.446501" lon="1.488735">
        <ele>158.595357</ele>
        <time>2024-09-22T01:26:08.944Z</time>
      </trkpt>
      <trkpt lat="48.446279" lon="1.488884">
        <ele>158.760911</ele>
        <time>2024-09-22T01:26:17.694Z</time>
      </trkpt>
      <trkpt lat="48.446090" lon="1.489084">
        <ele>158.918227</ele>
        <time>2024-09-22T01:26:25.419Z</time>
      </trkpt>
      <trkpt lat="48.445921" lon="1.489350">
        <ele>158.965022</ele>
        <time>2024-09-22T01:26:33.470Z</time>
      </trkpt>
      <trkpt lat="48.445684" lon="1.489479">
        <ele>158.707219</ele>
        <time>2024-09-22T01:26:41.864Z</time>
      </trkpt>
      <trkpt lat="48.444851" lon="1.489785">
        <ele>157.830012</ele>
        <time>2024-09-22T01:26:52.319Z</time>
      </trkpt>
      <trkpt lat="48.444731" lon="1.489872">
        <ele>157.693776</ele>
        <time>2024-09-22T01:26:53.932Z</time>
      </trkpt>
      <trkpt lat="48.444654" lon="1.489907">
        <ele>157.611491</ele>
        <time>2024-09-22T01:26:54.969Z</time>
      </trkpt>
      <trkpt lat="48.444374" lon="1.489983">
        <ele>157.320408</ele>
        <time>2024-09-22T01:26:58.618Z</time>
      </trkpt>
      <trkpt lat="48.444286" lon="1.489944">
        <ele>157.226562</ele>
        <time>2024-09-22T01:26:59.897Z</time>
      </trkpt>
      <trkpt lat="48.444086" lon="1.489866">
        <ele>156.974445</ele>
        <time>2024-09-22T01:27:02.477Z</time>
      </trkpt>
      <trkpt lat="48.443559" lon="1.489866">
        <ele>156.314118</ele>
        <time>2024-09-22T01:27:39.155Z</time>
      </trkpt>
      <trkpt lat="48.443144" lon="1.489906">
        <ele>155.793064</ele>
        <time>2024-09-22T01:28:08.023Z</time>
      </trkpt>
      <trkpt lat="48.442749" lon="1.490166">
        <ele>155.253007</ele>
        <time>2024-09-22T01:28:13.238Z</time>
      </trkpt>
      <trkpt lat="48.442110" lon="1.490534">
        <ele>154.862554</ele>
        <time>2024-09-22T01:28:21.929Z</time>
      </trkpt>
      <trkpt lat="48.442061" lon="1.490563">
        <ele>154.852864</ele>
        <time>2024-09-22T01:28:22.571Z</time>
      </trkpt>
      <trkpt lat="48.442032" lon="1.490564">
        <ele>154.847524</ele>
        <time>2024-09-22T01:28:22.913Z</time>
      </trkpt>
      <trkpt lat="48.441995" lon="1.490561">
        <ele>154.840703</ele>
        <time>2024-09-22T01:28:23.388Z</time>
      </trkpt>
      <trkpt lat="48.441976" lon="1.490138">
        <ele>154.788932</ele>
        <time>2024-09-22T01:28:27.158Z</time>
      </trkpt>
      <trkpt lat="48.441988" lon="1.489918">
        <ele>154.761977</ele>
        <time>2024-09-22T01:28:29.067Z</time>
      </trkpt>
      <trkpt lat="48.442015" lon="1.489780">
        <ele>154.744408</ele>
        <time>2024-09-22T01:28:30.548Z</time>
      </trkpt>
      <trkpt lat="48.442016" lon="1.489667">
        <ele>154.730608</ele>
        <time>2024-09-22T01:28:31.552Z</time>
      </trkpt>
      <trkpt lat="48.442073" lon="1.489573">
        <ele>154.715057</ele>
        <time>2024-09-22T01:28:32.639Z</time>
      </trkpt>
      <trkpt lat="48.442118" lon="1.489468">
        <ele>154.699792</ele>
        <time>2024-09-22T01:28:33.810Z</time>
      </trkpt>
      <trkpt lat="48.442222" lon="1.488842">
        <ele>154.620990</ele>
        <time>2024-09-22T01:28:40.873Z</time>
      </trkpt>
      <trkpt lat="48.442391" lon="1.487723">
        <ele>155.405293</ele>
        <time>2024-09-22T01:28:56.451Z</time>
      </trkpt>
      <trkpt lat="48.442461" lon="1.487258">
        <ele>155.758024</ele>
        <time>2024-09-22T01:29:02.868Z</time>
      </trkpt>
      <trkpt lat="48.442568" lon="1.486583">
        <ele>156.271415</ele>
        <time>2024-09-22T01:29:12.165Z</time>
      </trkpt>
      <trkpt lat="48.442582" lon="1.486497">
        <ele>156.336921</ele>
        <time>2024-09-22T01:29:13.220Z</time>
      </trkpt>
      <trkpt lat="48.442710" lon="1.486001">
        <ele>156.624540</ele>
        <time>2024-09-22T01:29:20.050Z</time>
      </trkpt>
      <trkpt lat="48.442898" lon="1.485635">
        <ele>156.645655</ele>
        <time>2024-09-22T01:29:25.513Z</time>
      </trkpt>
      <trkpt lat="48.443773" lon="1.484347">
        <ele>156.729753</ele>
        <time>2024-09-22T01:29:43.008Z</time>
      </trkpt>
      <trkpt lat="48.443830" lon="1.484137">
        <ele>156.740103</ele>
        <time>2024-09-22T01:29:44.973Z</time>
      </trkpt>
      <trkpt lat="48.443852" lon="1.483983">
        <ele>156.640272</ele>
        <time>2024-09-22T01:29:46.413Z</time>
      </trkpt>
      <trkpt lat="48.443952" lon="1.483742">
        <ele>156.423363</ele>
        <time>2024-09-22T01:29:48.927Z</time>
      </trkpt>
      <trkpt lat="48.444109" lon="1.483555">
        <ele>156.193198</ele>
        <time>2024-09-22T01:29:51.420Z</time>
      </trkpt>
      <trkpt lat="48.444156" lon="1.483526">
        <ele>156.134781</ele>
        <time>2024-09-22T01:29:52.151Z</time>
      </trkpt>
      <trkpt lat="48.444459" lon="1.483410">
        <ele>155.775177</ele>
        <time>2024-09-22T01:29:55.861Z</time>
      </trkpt>
      <trkpt lat="48.444561" lon="1.483423">
        <ele>155.657427</ele>
        <time>2024-09-22T01:29:57.147Z</time>
      </trkpt>
      <trkpt lat="48.444707" lon="1.483434">
        <ele>155.489274</ele>
        <time>2024-09-22T01:29:58.788Z</time>
      </trkpt>
      <trkpt lat="48.444963" lon="1.483473">
        <ele>155.193298</ele>
        <time>2024-09-22T01:30:01.696Z</time>
      </trkpt>
      <trkpt lat="48.445050" lon="1.483490">
        <ele>155.092385</ele>
        <time>2024-09-22T01:30:02.648Z</time>
      </trkpt>
      <trkpt lat="48.445247" lon="1.483521">
        <ele>154.864545</ele>
        <time>2024-09-22T01:30:04.873Z</time>
      </trkpt>
      <trkpt lat="48.446168" lon="1.483713">
        <ele>153.206993</ele>
        <time>2024-09-22T01:30:15.665Z</time>
      </trkpt>
      <trkpt lat="48.446576" lon="1.483798">
        <ele>152.415618</ele>
        <time>2024-09-22T01:30:20.179Z</time>
      </trkpt>
      <trkpt lat="48.446710" lon="1.483748">
        <ele>152.150383</ele>
        <time>2024-09-22T01:30:21.681Z</time>
      </trkpt>
      <trkpt lat="48.446861" lon="1.483494">
        <ele>151.715677</ele>
        <time>2024-09-22T01:30:24.035Z</time>
      </trkpt>
      <trkpt lat="48.446999" lon="1.483268">
        <ele>151.324182</ele>
        <time>2024-09-22T01:30:26.208Z</time>
      </trkpt>
      <trkpt lat="48.447727" lon="1.482064">
        <ele>151.216386</ele>
        <time>2024-09-22T01:30:37.832Z</time>
      </trkpt>
      <trkpt lat="48.447748" lon="1.482029">
        <ele>151.216386</ele>
        <time>2024-09-22T01:30:38.172Z</time>
      </trkpt>
      <trkpt lat="48.447878" lon="1.481805">
        <ele>151.216386</ele>
        <time>2024-09-22T01:30:40.272Z</time>
      </trkpt>
    </trkseg>
  </trk>
</gpx>